     2              OBSERVATION DATA    GPS                 RINEX VERSION / TYPE
teqc 1997Jun30 19970702                                     PGM / RUN BY / DATE
                                                            COMMENT
Original Marker Name: DBAR                                  COMMENT
Campaign Name: HMC San Gabriel Valley 1993-1996             COMMENT
4-Character Station Name: DBAR                              COMMENT
6-Character Antenna Code: DMRCHT                            COMMENT
Vertical Measurement Point: BPA                             COMMENT
Vertical Offset to Rinex Ref. Point: 0.0000                 COMMENT
Radial Measurement Point: RRP                               COMMENT
Radial Offset to Rinex Ref. Point: 0.0000                   COMMENT
Antenna Height from Field Measurement: 0.0610 m             COMMENT
Additional Antenna Identification Info.:                    COMMENT
Turborogue and Ashtech Choke Ring                           COMMENT
Original XYZ: -2468383.7257 -4682617.7680 3546948.5729      COMMENT
New XYZ position is based on association with SCEC monument COMMENT
E1D0Q1V7+0011. Position of that monument is believed to be  COMMENT
valid to within 1 m horizontally; vertical accuracy         COMMENT
should be no worse than 3-times this value.                 COMMENT
                                                            COMMENT
Revised Rinex header created by UCSD GPS archive for        COMMENT
GSAC on 12-Apr-1999 (1999:102) 20:35:02 GMT                 COMMENT
For assistance contact dagnew@ucsd.edu or hjohnson@ucsd.edu COMMENT
                                                            COMMENT
DIAMOND BAR                                                 MARKER NAME
WRP HARVEY MUDD COLLEGE                                     OBSERVER / AGENCY
262 TURBOROGUE SNR-8000 95.03.08                            REC # / TYPE / VERS
260 DORNE-MARGOL. TYPE T                                    ANT # / TYPE
 -2468387.0000 -4682607.0000  3546949.0000                  APPROX POSITION XYZ
        0.0610        0.0000        0.0000                  ANTENNA: DELTA H/E/N
     1     1     0                                          WAVELENGTH FACT L1/2
     5    L1    L2    C1    P2    P1                        # / TYPES OF OBSERV
     0                                                      INTERVAL
  1995     6     1     0     0    0.000000                  TIME OF FIRST OBS
  1995     6     1    21    44    0.000000                  TIME OF LAST OBS
     0                                                      # OF SATELLITES
                                                            END OF HEADER
 95  6  1  0  0  0.0000000  0  8G 6G 5G24G23G17G26G16G20
 -20515780.45144 -15986311.24344  20640669.9854   20640669.7394
 -11973348.74444  -9329880.74444  23060064.9374   23060066.7534
  -3736266.73244  -2911363.84044  24527972.8774   24527973.7354
  -3211302.90544  -2502304.04544  24569126.6454   24569127.5394
 -17304907.33844 -13484319.89344  22223801.9664   22223802.8994
  -2455935.44944  -1913711.30444  24236122.3894   24236127.3604
 -19775183.61044 -15409201.04144  21546244.4384   21546245.4494
 -21504488.02244 -16756736.26344  21046307.7034   21046308.7114
 95  6  1  0  0 30.0000000  0  8G 6G 5G24G23G17G26G16G20
 -20555327.08744 -16017126.79744  20633144.5614   20633144.3074
 -11868179.06844  -9247930.42144  23080078.0074   23080079.7264
  -3658392.51644  -2850682.66744  24542791.5344   24542793.9374
  -3317522.66844  -2585072.43744  24548913.6604   24548913.6154
 -17365159.01344 -13531269.20944  22212336.3204   22212337.5124
  -2535134.30444  -1975424.55144  24221051.5084   24221053.7284
 -19722327.82944 -15368014.72244  21556302.5334   21556303.3964
 -21444718.56544 -16710162.68344  21057681.4324   21057682.6894
 95  6  1  0  1  0.0000000  0  8G 6G 5G24G23G17G26G16G20
 -20594585.48944 -16047717.75044  20625673.8274   20625673.7454
 -11762832.45144  -9165842.23444  23100124.7264   23100127.0364
  -3580547.35044  -2790024.15444  24557604.9964   24557604.4284
  -3423655.55844  -2667773.08744  24528717.0224   24528720.1744
 -17425199.56044 -13578054.01144  22200910.9024   22200912.3004
  -2614287.63244  -2037102.34844  24205988.6624   24205997.3504
 -19668992.80544 -15326454.96144  21566451.7654   21566452.5834
 -21384450.32044 -16663200.43644  21069150.1014   21069150.8004
 95  6  1  0  1 30.0000000  0  8G 6G 5G24G23G17G26G16G20
 -20633536.65344 -16078069.30444  20618261.6744   20618261.5744
 -11657271.93544  -9083587.39344  23120212.2094   23120215.6374
  -3502710.28144  -2729371.93244  24572417.0254   24572420.8414
  -3529697.95644  -2750403.27844  24508537.6824   24508540.9854
 -17485014.11744 -13624662.72644  22189528.5814   22189529.6064
  -2693387.45844  -2098738.38344  24190936.5314   24190939.1074
 -19615179.71644 -15284522.68844  21576692.0984   21576693.0874
 -21323685.78444 -16615851.47344  21080713.1934   21080714.2044
 95  6  1  0  2  0.0000000  0  8G 6G 5G24G23G17G26G16G20
 -20672207.91044 -16108202.74544  20610902.7924   20610902.7614
 -11551521.35844  -9001184.42444  23140335.9714   23140339.3574
  -3424930.43044  -2668764.30044  24587218.4234   24587219.6944
  -3635686.34544  -2832991.41144  24488368.5874   24488374.4084
 -17544634.45444 -13671120.09444  22178183.2454   22178184.1034
  -2772462.48644  -2160355.14044  24175888.8234   24175895.2014
 -19560915.36044 -15242238.78144  21587018.2424   21587019.2234
 -21262465.51344 -16568147.38844  21092363.0674   21092364.0294
 95  6  1  0  2 30.0000000  0  8G 6G 5G24G23G17G26G16G20
 -20710597.90144 -16138117.02144  20603597.4064   20603597.3624
 -11445606.46844  -8918653.44244  23160491.1154   23160492.7444
  -3347216.16044  -2608207.79044  24602007.1694   24602006.2114
  -3741636.45944  -2915549.68544  24468206.2194   24468211.4094
 -17604052.22144 -13717419.63044  22166876.4004   22166877.7064
  -2851515.22544  -2221954.55944  24160845.4534   24160847.1244
 -19506220.94144 -15199619.75544  21597426.3074   21597426.9554
 -21200802.48444 -16520098.29344  21104097.2524   21104098.2404
 95  6  1  0  3  0.0000000  0  8G 6G 5G24G23G17G26G16G20
 -20748652.88144 -16167770.24844  20596355.7404   20596355.8124
 -11339501.24944  -8835974.15644  23180682.6484   23180684.8784
  -3269504.99944  -2547653.65244  24616794.9264   24616798.3144
  -3847502.33444  -2998042.34744  24448060.6544   24448065.9514
 -17663205.10544 -13763512.76144  22155620.0384   22155621.2264
  -2930493.25244  -2283495.74444  24145816.2754   24145820.5064
 -19451033.65144 -15156616.67544  21607928.0924   21607929.2604
 -21138641.80644 -16471661.42444  21115926.1314   21115927.1204
 95  6  1  0  3 30.0000000  0  8G 6G 5G24G23G17G26G16G20
 -20786392.57044 -16197177.79344  20589174.0684   20589173.9084
 -11233245.12444  -8753177.27544  23200902.5964   23200904.6324
  -3191838.22144  -2487134.09044  24631574.3494   24631577.5524
  -3953301.06744  -3080482.66144  24427927.8004   24427932.9864
 -17722099.52844 -13809404.48344  22144412.8594   22144413.5524
  -3009396.56944  -2344978.68044  24130801.1434   24130804.1054
 -19395345.91244 -15113223.64044  21618525.1424   21618526.0994
 -21076003.54844 -16422852.41444  21127845.6944   21127846.6654
 95  6  1  0  4  0.0000000  0  8G 6G 5G24G23G17G26G16G20
 -20823839.52044 -16226357.23544  20582048.1004   20582048.1994
 -11126868.93544  -8670286.84844  23221145.6284   23221146.3664
  -3114221.44644  -2426653.56544  24646344.4744   24646346.4774
  -4059022.68144  -3162862.90844  24407809.3244   24407815.1174
 -17780736.90244 -13855095.91544  22133254.5504   22133255.5514
  -3088219.83144  -2406399.23444  24115801.5984   24115806.0104
 -19339163.79444 -15069445.36944  21629216.2304   21629217.0924
 -21012878.89744 -16373664.39444  21139857.9394   21139858.9274
 95  6  1  0  4 30.0000000  0  8G 6G 5G24G23G17G26G16G20
 -20861015.75444 -16255325.72444  20574973.7634   20574973.6954
 -11020388.53444  -8587315.19644  23241408.1984   23241412.1744
  -3036649.12244  -2366207.63244  24661105.8714   24661107.0084
  -4164654.15344  -3245172.91244  24387708.2284   24387712.1174
 -17839125.37744 -13900593.40444  22122143.5124   22122144.3644
  -3166965.96144  -2467759.71244  24100816.4084   24100819.6554
 -19282504.05944 -15025294.93544  21639998.2534   21639999.2344
 -20949274.27244 -16324102.37044  21151961.6064   21151962.3384
 95  6  1  0  5  0.0000000  0  8G 6G 5G24G23G17G26G16G20
 -20897927.15444 -16284087.85044  20567949.7744   20567949.7094
 -10913782.46044  -8504245.63444  23261694.5984   23261696.9194
  -2959122.01344  -2305796.95344  24675859.0164   24675861.8464
  -4270170.42444  -3327393.11144  24367629.0164   24367631.9674
 -17897269.68844 -13945900.63344  22111078.9654   22111080.1094
  -3245622.31544  -2529050.28944  24085848.7024   24085853.8394
 -19225344.41944 -14980754.96144  21650875.4444   21650876.4454
 -20885190.86144 -16274167.26844  21164156.2584   21164157.1274
 95  6  1  0  5 30.0000000  0  8G 6G 5G24G23G17G26G16G20
 -20934579.98344 -16312648.49144  20560974.9814   20560975.0134
 -10807039.96744  -8421069.77144  23282006.8204   23282010.3444
  -2881647.77144  -2245427.43344  24690602.1724   24690602.9754
  -4375563.97944  -3409517.68744  24347573.2094   24347577.5494
 -17955196.64644 -13991038.49644  22100055.7274   22100056.8374
  -3324196.29744  -2590276.60344  24070896.4614   24070900.5204
 -19167699.55344 -14935836.89344  21661844.8774   21661845.8944
 -20820641.62544 -16223869.18244  21176439.4804   21176440.6044
 95  6  1  0  6  0.0000000  0  8G 6G 5G24G23G17G26G16G20
 -20970968.85844 -16341003.45644  20554050.3714   20554050.3294
 -10700149.80944  -8337778.84744  23302347.3514   23302349.8054
  -2804202.42044  -2185080.48344  24705339.6474   24705338.3394
  -4480835.99544  -3491547.59144  24327540.5254   24327544.6784
 -18012910.36744 -14036010.19744  22089073.0394   22089073.8964
  -3402689.95744  -2651440.36544  24055959.5914   24055962.6284
 -19109583.14244 -14890551.38444  21672904.0724   21672904.9284
 -20755615.27944 -16173199.32444  21188813.6704   21188814.6644
 95  6  1  0  6 30.0000000  0  8G 6G 5G24G23G17G26G16G20
 -21007078.90144 -16369141.14944  20547178.9984   20547178.8914
 -10593107.69144  -8254369.51244  23322716.9134   23322719.8574
  -2726797.87744  -2124765.26044  24720069.0564   24720071.9734
  -4585993.41444  -3573488.19344  24307529.7004   24307535.9034
 -18070414.31844 -14080818.45244  22078130.3744   22078131.1804
  -3481105.53544  -2712543.27644  24041037.5784   24041041.3914
 -19050996.67744 -14844899.60244  21684052.6904   21684053.5984
 -20690136.15244 -16122176.64944  21201274.0004   21201275.0444
 95  6  1  0  7  0.0000000  0  8G 6G 5G24G23G17G26G16G20
 -21042889.56444 -16397045.56444  20540364.5284   20540364.2884
 -10485921.59844  -8170847.99744  23343113.8754   23343116.2384
  -2649438.83844  -2064485.53044  24734789.9924   24734793.5064
  -4691047.63044  -3655348.35444  24287538.2554   24287540.2914
 -18127705.80644 -14125461.14344  22067228.2974   22067229.5454
  -3559447.10544  -2773588.54144  24026129.6864   24026132.3414
 -18991940.72244 -14798881.98244  21695290.6864   21695291.6114
 -20624205.41444 -16070802.07544  21213820.1514   21213821.4184
 95  6  1  0  7 30.0000000  0  8G 6G 5G24G23G17G26G16G20
 -21078384.98144 -16424704.32544  20533609.9544   20533609.8194
 -10378606.81644  -8087226.19344  23363535.5064   23363537.0514
  -2572118.91544  -2004236.28544  24749503.3074   24749507.1144
  -4796005.84744  -3737133.75344  24267564.8834   24267570.0584
 -18184786.85044 -14169939.84944  22056366.1764   22056367.4424
  -3637725.34444  -2834584.42344  24011233.7194   24011235.6494
 -18932422.01444 -14752503.77644  21706616.7834   21706617.5344
 -20557807.63044 -16019063.56544  21226455.2064   21226456.3424
 95  6  1  0  8  0.0000000  0  8G 6G 5G24G23G17G26G16G20
 -21113560.04644 -16452113.46644  20526916.3404   20526916.1664
 -10271180.54044  -8003517.51344  23383978.0414   23383980.2414
  -2494838.78544  -1944018.04644  24764209.2884   24764212.4484
  -4900865.71744  -3818842.54244  24247610.8834   24247614.2824
 -18241641.63544 -14214242.24944  22045547.0614   22045548.1044
  -3715930.06644  -2895523.04444  23996351.9364   23996353.8534
 -18872436.31244 -14705761.67044  21718031.6854   21718032.3374
 -20490935.07744 -15966955.11044  21239180.6964   21239181.8554
 95  6  1  0  8 30.0000000  0  8G 6G 5G24G23G17G26G16G20
 -21148420.31844 -16479277.31144  20520282.5814   20520282.3134
 -10163665.70444  -7919739.82344  23404437.3574   23404440.2714
  -2417615.05444  -1883843.75644  24778904.4094   24778910.2234
  -5005627.88644  -3900475.18044  24227675.1314   24227678.2884
 -18298276.79444 -14258373.51644  22034769.8424   22034770.9694
  -3794080.64844  -2956419.48344  23981480.2114   23981483.5514
 -18811999.32544 -14658667.92144  21729532.3874   21729533.1214
 -20423607.48544 -15914492.08044  21251992.7774   21251993.7294
 95  6  1  0  9  0.0000000  0  8G 6G 5G24G23G17G26G16G20
 -21182953.26044 -16506186.09744  20513711.2414   20513711.0364
 -10056042.54844  -7835877.75144  23424917.5394   23424919.4644
  -2340418.57444  -1823690.68444  24793594.5944   24793597.6004
  -5110266.65044  -3982011.63044  24207762.4804   24207766.9984
 -18354661.94544 -14302309.97144  22024040.1654   22024041.2354
  -3872151.89144  -3017254.08044  23966623.7074   23966626.7334
 -18751091.52644 -14611207.30844  21741122.7094   21741123.9184
 -20355789.05044 -15861646.57544  21264898.2274   21264899.1294
 95  6  1  0  9 30.0000000  0  8G 6G 5G24G23G17G26G16G20
 -21217191.14644 -16532864.96944  20507196.0274   20507195.6664
  -9948311.33044  -7751931.45944  23445418.0404   23445421.7454
  -2263254.03044  -1763562.54344  24808278.3734   24808277.9754
  -5214783.58144  -4063453.18444  24187873.5044   24187877.8904
 -18410804.52444 -14346057.41044  22013356.4904   22013357.1304
  -3950144.64744  -3078027.54644  23951782.3144   23951784.4854
 -18689725.99544 -14563390.01644  21752800.2214   21752800.8664
 -20287493.55344 -15808429.33344  21277894.4924   21277895.7234
 95  6  1  0 10  0.0000000  0  8G 6G 5G24G23G17G26G16G20
 -21251148.90044 -16559325.55444  20500733.9634   20500733.7434
  -9840478.42244  -7667905.93744  23465938.3564   23465941.5904
  -2186138.62044  -1703472.62544  24822952.8194
  -5319184.55444  -4144804.40044  24168006.4934   24168007.8354
 -18466708.55644 -14389618.95744  22002718.1214   22002719.2564
  -4028052.26444  -3138734.65844  23936956.7894   23936956.2234
 -18627925.88844 -14515234.09644  21764560.4534   21764561.3864
 -20218761.83844 -15754872.17944  21290973.6114   21290974.6844
 95  6  1  0 10 30.0000000  0  8G 6G 5G24G23G17G26G16G20
 -21284812.15044 -16585556.65744  20494328.0834   20494327.8004
  -9732514.19644  -7583778.08644  23486483.2724   23486484.9324
  -2109060.99944  -1643412.18444  24837620.4244   24837621.4764
  -5423442.99644  -4226044.51044  24148166.2014   24148167.9894
 -18522361.36344 -14432984.75744  21992127.6874   21992128.7754
  -4105862.96044  -3199366.24444  23922149.5094   23922151.6554
 -18565682.36544 -14466732.65644  21776404.9724   21776405.5264
 -20149595.27144 -15700976.18144  21304135.5994   21304136.7594
 95  6  1  0 11  0.0000000  0  8G 6G 5G24G23G17G26G16G20
 -21318183.07044 -16611559.96544  20487977.7374   20487977.4004
  -9624421.96044  -7499550.49644  23507052.8104   23507053.8784
  -2032029.85044  -1583387.95044  24852279.0154
  -5527557.60044  -4307172.55644  24128353.6674   24128356.8244
 -18577776.21544 -14476165.12844  21981582.3534   21981583.3984
  -4183563.44944  -3259911.95844  23907363.2434   23907365.3924
 -18502990.70444 -14417882.01044  21788334.7134   21788335.5734
 -20079997.70544 -15646744.33744  21317379.4704   21317380.3694
 95  6  1  0 11 30.0000000  0  8G 6G 5G24G23G17G26G16G20
 -21351252.00944 -16637327.96844  20481684.9954   20481684.6524
  -9516234.72644  -7415248.88344  23527640.4924   23527643.1154
  -1955066.76944  -1523416.72644  24866924.2334   24866925.5714
  -5631542.08044  -4388199.23444  24108566.1064   24108569.3064
 -18632988.15444 -14519187.40344  21971075.9664   21971077.3064
  -4261163.13344  -3320379.16444  23892596.8574   23892598.2184
 -18439867.26844 -14368694.92944  21800346.6514   21800347.5424
 -20010003.75444 -15592203.62644  21330699.0854   21330700.1564
 95  6  1  0 12  0.0000000  0  8G 6G 5G24G23G17G26G16G20
 -21383963.31844 -16662817.29544  20475460.1574   20475459.9334
  -9407938.38544  -7330862.26344  23548248.7414   23548250.7624
  -1878146.97444  -1463479.34244  24881561.8704   24881563.5884
  -5735366.36444  -4469101.09344  24088808.9124   24088812.1104
 -18687966.59944 -14562027.72344  21960614.0844   21960614.7094
  -4338626.55544  -3380740.15544  23877855.9134   23877859.2074
 -18376283.84444 -14319149.41544  21812446.3034   21812447.1204
 -19939590.01344 -15537335.80144  21344098.3204   21344099.5134
 95  6  1  0 12 30.0000000  0  8G 6G 5G24G23G17G26G16G20
 -21416393.38544 -16688087.47344  20469289.0094   20469288.6954
  -9299612.42644  -7246452.55544  23568862.6124   23568864.3344
  -1801329.52144  -1403621.60444  24896179.9384   24896182.2514
  -5839107.23144  -4549937.92644  24069067.8354   24069072.3874
 -18742771.02344 -14604732.44444  21950185.0754   21950186.0444
  -4416025.67844  -3441051.03044  23863127.1014   23863130.0744
 -18312300.34444 -14269292.14144  21824621.9084   21824622.5314
 -19868796.95944 -15482172.41644  21357569.7774   21357571.0404
 95  6  1  0 13  0.0000000  0  8G 6G 5G24G23G17G26G16G20
 -21448491.17344 -16713098.73444  20463180.9574   20463180.7804
  -9191225.57944  -7161995.41644  23589487.8274   23589489.7904
  -1724561.13844  -1343802.13444  24910788.5004   24910788.0074
  -5942738.91344  -4630689.67344  24049347.0244   24049350.3284
 -18797366.09844 -14647274.04644  21939795.9584   21939797.1604
  -4493314.07844  -3501275.66444  23848419.3704   23848420.8694
 -18247872.75944 -14219088.85344  21836882.0304   21836883.0854
 -19797584.43944 -15426682.16344  21371121.1464   21371122.0764
 95  6  1  0 13 30.0000000  0  8G 6G 5G24G23G17G26G16G20
 -21480233.60044 -16737833.09044  20457140.4894   20457140.2464
  -9082738.01644  -7077459.80344  23610132.1604   23610136.2114
  -1647806.67244  -1283993.50844  24925394.3184
  -6046245.26544  -4711343.78244  24029650.2014   24029654.2684
 -18851723.12844 -14689630.14944  21929452.1684   21929452.8544
  -4570468.11944  -3561395.58844  23833737.6874   23833739.9544
 -18182984.48344 -14168526.57344  21849229.8864   21849230.8814
 -19725926.03644 -15370844.47644  21384757.3204   21384758.4054
 95  6  1  0 14  0.0000000  0  8G 6G 5G24G23G17G26G16G20
 -21511675.65044 -16762333.38644  20451157.2824   20451157.2334
  -8974166.11244  -6992858.45044  23630792.7984   23630795.1504
  -1571099.91544  -1224222.02444  24939991.2394   24939994.9114
  -6149653.91344  -4791921.74744  24009971.8574   24009975.6494
 -18905852.94044 -14731809.20244  21919151.6234   21919152.6984
  -4647513.99144  -3621431.18644  23819076.1754   23819077.5284
 -18117671.92244 -14117633.67244  21861658.5454   21861659.6114
 -19653827.04744 -15314663.47944  21398477.3284   21398478.5924
 95  6  1  0 14 30.0000000  0  8G 6G 5G24G23G17G26G16G20
 -21542827.69344 -16786607.70244  20445229.2324   20445229.1524
  -8865513.77344  -6908194.44744  23651468.9414   23651471.1894
  -1494437.69944  -1164485.24944  24954579.7134
  -6252960.57744  -4872420.27144  23990312.8584   23990315.9584
 -18959761.03044 -14773815.48444  21908893.0734   21908893.5804
  -4724448.65944  -3681380.18244  23804435.5504   23804437.0584
 -18051935.92544 -14066410.83444  21874167.7934   21874168.4174
 -19581279.41644 -15258132.88744  21412282.6094   21412283.6404
 95  6  1  0 15  0.0000000  0  8G 6G 5G24G23G17G26G16G20
 -21573703.58544 -16810666.83844  20439353.7194   20439353.6184
  -8756810.73044  -6823490.91644  23672154.4734   23672154.9774
  -1417849.03844  -1104805.82644  24969154.0754   24969157.2304
  -6356169.72844  -4952842.79944  23970672.5754   23970674.3464
 -19013482.79144 -14815676.57844  21898670.1664   21898671.1474
  -4801301.25744  -3741265.20044  23789811.1464   23789812.0984
 -17985818.39844 -14014890.69244  21886749.4704   21886750.1414
 -19508324.77644 -15201285.14844  21426165.3914   21426166.4744
 95  6  1  0 15 30.0000000  0  8G 6G 5G24G23G17G26G16G20
 -21604318.55744 -16834522.65844  20433527.7914   20433527.8774
  -8648071.44644  -6738759.14944  23692847.0374   23692850.4564
  -1341337.90144  -1045186.90044  24983713.3544   24983715.0664
  -6459266.36344  -5033177.62544  23951053.8984   23951057.5464
 -19066998.44144 -14857377.06244  21888486.5334   21888487.2554
  -4878064.39444  -3801080.54144  23775203.6044   23775204.7894
 -17919333.45144 -13963084.25444  21899401.0044   21899402.0884
 -19434954.26744 -15144113.35744  21440127.5274   21440128.5794
 95  6  1  0 16  0.0000000  0  8G 6G 5G24G23G17G26G16G20
 -21634533.84744 -16858067.03844  20427777.9964   20427777.8004
  -8539195.15444  -6653920.62144  23713565.7184   23713570.2664
  -1264772.77744                  24998283.0874
  -6562106.43144  -5113312.58144  23931484.0794   23931488.8174
 -19120169.98144 -14898809.41744  21878368.1134   21878369.0584
  -4954599.99944  -3860718.55844  23760639.0934   23760641.2014
 -17852358.79544 -13910896.21744  21912145.9064   21912146.8514
 -19361052.81144 -15086527.84244  21454190.3774   21454191.4694
 95  6  1  0 16 30.0000000  0  8G 6G 5G24G23G17G26G16G20
 -21664426.37544 -16881359.91444  20422089.6974   20422089.5924
  -8430276.63244  -6569049.20844  23734292.4074   23734295.5914
  -1188239.55544                  25012846.9304
  -6664783.59844  -5193320.56944  23911945.3474   23911947.7184
 -19173108.38244 -14940060.10044  21868294.4044   21868294.9844
  -5031011.56244  -3920259.93744  23746098.2914   23746101.1024
 -17784987.54744 -13858399.15144  21924966.2754   21924967.0784
 -19286738.78644 -15028620.84044  21468331.9284   21468333.3294
 95  6  1  0 17  0.0000000  0  8G 6G 5G24G23G17G26G16G20
 -21693995.63844 -16904400.89744  20416462.8734   20416462.7514
  -8321308.84344  -6484139.37944  23755028.2114   23755030.7584
  -1111755.99344                  25027401.6424
  -6767308.32444  -5273209.77844  23892435.4994   23892439.8214
 -19225821.97144 -14981135.60844  21858263.2504   21858264.0694
  -5107294.51344  -3979701.07144  23731582.3674   23731584.8924
 -17717222.89144 -13805595.53544  21937861.4744   21937861.9654
 -19212034.17744 -14970409.48244  21482547.8494   21482549.4864
 95  6  1  0 17 30.0000000  0  8G 6G 5G24G23G17G26G16G20
 -21723215.56444 -16927169.67044  20410902.5614   20410902.2634
  -8212260.91344  -6399167.11144  23775779.2394   23775781.5684
  -1035306.68644                  25041949.5924
  -6869679.31544  -5352979.20344  23872954.7104   23872956.6674
 -19278307.02044 -15022033.02744  21848275.5894   21848276.3474
  -5183402.24744  -4039005.70444  23717099.5564   23717102.7344
 -17649030.09144 -13752458.29644  21950838.0914   21950838.9244
 -19136922.58944 -14911880.99644  21496841.1244   21496842.2454
 95  6  1  0 18  0.0000000  0  8G 6G 5G24G23G17G26G16G20
 -21752083.94244 -16949664.51344  20405409.1894   20405408.8894
  -8103132.16144  -6314131.87944  23796545.9204   23796549.1094
   -958921.03944   -747199.15644  25056485.1564   25056484.0494
  -6971925.96244  -5432651.73144  23853497.5884   23853502.0524
 -19330604.11544 -15062783.99244  21838323.9844   21838324.7924
  -5259358.79344  -4098192.53144  23702645.1684   23702648.2814
 -17580412.83244 -13698990.31444  21963895.5464   21963896.4964
 -19061421.14944 -14853048.72544  21511208.5104   21511209.6254
 95  6  1  0 18 30.0000000  0  8G 6G 5G24G23G17G26G16G20
 -21780607.47244 -16971890.63844  20399981.2374   20399980.9334
  -7993909.17744  -6229023.23144  23817330.3624   23817331.8464
   -882620.01344   -687738.73444  25071005.1294   25071006.3664
  -7074054.67044  -5512232.36844  23834062.9334   23834067.2074
 -19382718.65644 -15103392.70144  21828406.9694   21828407.6374
  -5335173.64444  -4157268.93844  23688217.5804   23688220.6774
 -17511374.27844 -13645194.04844  21977033.1464   21977033.9494
 -18985522.89144 -14793907.25744  21525651.4364   21525652.7594
 95  6  1  0 19  0.0000000  0  8G 6G 5G24G23G17G26G16G20
 -21808780.84144 -16993843.91144  20394620.0334   20394619.7214
  -7884590.47944  -6143839.96844  23838133.2204   23838136.3624
   -806397.49444   -628348.74444  25085509.8314   25085511.1264
  -7176058.13044  -5591715.42044  23814652.5764   23814656.4404
 -19434631.11544 -15143843.95044  21818528.2824   21818529.2474
  -5410832.90344  -4216224.09544  23673819.8364   23673824.1694
 -17441915.30544 -13591070.18744  21990250.7744   21990251.8534
 -18909223.03844 -14734452.85344  21540170.9924   21540172.2884
 95  6  1  0 19 30.0000000  0  8G 6G 5G24G23G17G26G16G20
 -21836618.79844 -17015535.82344  20389322.5824   20389322.5934
  -7775217.17544  -6058614.16544  23858946.3844   23858950.6094
   -730256.95844   -569022.02044  25099998.8684   25099999.3624
  -7277948.41144  -5671110.28644  23795263.4614   23795265.1394
 -19486350.71344 -15184144.91444  21808686.3794   21808687.0644
  -5486378.54544  -4275090.76044  23659444.1294   23659445.8774
 -17372061.75844 -13536638.86244  22003543.3314   22003544.5804
 -18832538.17244 -14674698.44744  21554763.5134   21554764.9114
 95  6  1  0 20  0.0000000  0  8G 6G 5G24G23G17G26G16G20
 -21864111.67244 -17036958.84044  20384090.8544   20384090.8514
  -7665785.67144  -5973343.02544  23879771.0714   23879774.6844
   -654169.12644                  25114478.0304
  -7379684.20744  -5750384.76944  23775903.7994   23775906.9364
 -19537825.45344 -15224255.08644  21798891.0504   21798891.7584
  -5561796.66144  -4333858.05044  23645092.7214   23645094.5794
 -17301801.31044 -13481890.46944  22016913.5294   22016914.6724
 -18755453.85344 -14614632.77744  21569432.2704   21569433.6004
 95  6  1  0 20 30.0000000  0  8G 6G 5G24G23G17G26G16G20
 -21891231.78944 -17058091.39644  20378929.8784   20378929.7004
  -7556271.77744  -5888007.71044  23900610.6534   23900615.0814
   -578079.36144                  25128957.3174
  -7481210.49544  -5829496.00744  23756583.7004   23756586.7774
 -19589004.12844 -15264134.54844  21789151.8814   21789152.5214
  -5637024.19844  -4392476.81744  23630777.2104   23630782.4514
 -17231107.08944 -13426804.08044  22030366.1434   22030366.8534
 -18677940.39944 -14554232.72244  21584182.4754   21584183.7764
 95  6  1  0 21  0.0000000  0  8G 6G 5G24G23G17G26G16G20
 -21917989.29444 -17078941.40344  20373838.2074   20373837.9554
  -7446714.76444  -5802638.78344  23921458.9094   23921462.3214
   -501987.94444                  25143436.6134
  -7582553.79744  -5908464.70544  23737298.2314   23737300.1534
 -19639914.25944 -15303804.76644  21779463.9594   21779464.5854
  -5712067.38644  -4450951.92944  23616497.3104   23616500.5894
 -17159994.25544 -13371391.49144  22043898.4334   22043899.7214
 -18600033.69144 -14493526.23044  21599007.5824   21599008.8154
 95  6  1  0 21 30.0000000  0  8G 6G 5G24G23G17G26G16G20
 -21944387.61144 -17099511.52044  20368814.9204   20368814.8494
  -7337122.07644  -5717242.05044  23942314.0644   23942317.0524
   -425901.66744   -331861.40644  25157915.9314
  -7683709.42144  -5987287.10644  23718049.0084   23718052.2454
 -19690562.61344 -15343271.00344  21769825.8324   21769826.5204
  -5786913.94944  -4509273.82644  23602254.3074   23602255.8284
 -17088466.21444 -13315655.36744  22057509.7994   22057510.9764
 -18521737.05044 -14432515.89344  21613906.9994   21613908.2634
 95  6  1  0 22  0.0000000  0  8G 6G 5G24G23G17G26G16G20
 -21970437.23544 -17119809.92944  20363857.7604   20363857.5284
  -7227489.83244  -5631814.51044  23963176.0424   23963181.9714
   -349842.60244                  25172389.4224
  -7784673.41344  -6065960.22544  23698836.0264   23698838.5264
 -19740962.49944 -15382543.63244  21760235.0784   21760236.3304
  -5861544.64344  -4567427.53244  23588052.6894   23588052.5544
 -17016543.43144 -13259611.65544  22071196.3604   22071197.5584
 -18443054.05944 -14371204.51144  21628880.0364   21628881.4174
 95  6  1  0 22 30.0000000  0  8G 6G 5G24G23G17G26G16G20
 -21996141.32644 -17139839.08844  20358966.4174   20358966.2504
  -7117846.21144  -5546378.09344  23984041.0774   23984043.3894
   -273847.97944   -213378.15044  25186850.3934
  -7885487.39644  -6144516.44744  23679651.8094   23679654.9964
 -19791161.60744 -15421659.80644  21750682.4524   21750683.3764
  -5936003.45444  -4625447.30044  23573883.7144   23573884.3884
 -16944255.57244 -13203283.46444  22084952.4294   22084953.3764
 -18364020.01244 -14309619.57644  21643919.8074   21643921.3794
 95  6  1  0 23  0.0000000  0  8G 6G 5G24G23G17G26G16G20
 -22021516.49444 -17159611.94544  20354137.7124   20354137.4654
  -7008216.47544  -5460952.50244  24004902.8004   24004905.0434
   -197944.03944   -154232.39844  25201294.5724   25201296.2254
  -7986176.01644  -6222974.96944  23660491.2294   23660494.1684
 -19841186.55544 -15460640.27644  21741163.0514   21741164.1124
  -6010340.37744  -4683372.08944  23559737.3194   23559739.3264
 -16871627.62544 -13146690.26944  22098772.9784   22098773.9854
 -18284664.00244 -14247783.76044  21659020.7314   21659022.0064
 95  6  1  0 23 30.0000000  0  8G 6G 5G24G23G17G26G16G20
 -22046511.45544 -17179088.54444  20349381.4704   20349381.4054
  -6898545.68044  -5375494.95044  24025772.7914   24025775.2064
   -122087.23444                  25215729.5914
  -8086664.37744  -6301277.47544  23641368.7784   23641371.7024
 -19890972.53544 -15499434.52844  21731689.1994   21731689.7114
  -6084497.86344  -4741157.06044  23545625.7374   23545627.6264
 -16798604.84544 -13089789.41144  22112668.7264   22112669.7104
 -18204916.71044 -14185643.05244  21674196.2034   21674197.5494
 95  6  1  0 24  0.0000000  0  8G 6G 5G24G23G17G26G16G20
 -22071145.25344 -17198283.71444  20344693.7784   20344693.6764
  -6788860.19544  -5290025.89744  24046645.5534   24046649.1244
    -46303.76944                  25230151.1974
  -8186988.73044  -6379452.16744  23622277.5114   23622280.6794
 -19940546.32644 -15538063.44544  21722255.5894   21722256.2154
  -6158509.71744  -4798828.54344  23531541.7394   23531543.5674
 -16725217.83144 -13032604.73244  22126633.8934   22126634.5824
 -18124802.57744 -14123216.48944  21689441.4914   21689442.8694
 95  6  1  0 24 30.0000000  0  8G 6G 5G24G23G17G26G16G20
 -22095415.91444 -17217195.92044  20340075.1904   20340074.9014
  -6679161.55244  -5204546.62844  24067520.4274   24067527.2864
     29423.09544                  25244561.5984
  -8287145.95044  -6457496.63144  23603217.9764   23603221.1804
 -19989907.12944 -15576526.39644  21712862.4114   21712863.6374
  -6232375.34144  -4856386.09144  23517485.3844   23517487.5904
 -16651460.73844 -12975131.67444  22140669.4134   22140670.3884
 -18044326.54544 -14060507.92744  21704755.7044   21704757.0214
 95  6  1  0 25  0.0000000  0  8G 6G 5G24G23G17G26G16G20
 -22119352.02944 -17235847.43644  20335520.3244   20335520.0664
  -6569453.13644  -5119059.74644  24088397.3514   24088403.6054
    105091.62344                  25258960.8894
  -8387117.41144  -6535396.38144  23584194.1634   23584196.6444
 -20039053.74244 -15614822.44344  21703510.2464   21703511.1644
  -6306065.63144  -4913807.01544  23503462.3444   23503464.0154
 -16577339.97744 -12917375.25344  22154774.1424   22154775.2944
 -17963485.91244 -13997515.25944  21720139.1304   21720140.3374
 95  6  1  0 25 30.0000000  0  8G 6G 5G24G23G17G26G16G20
 -22142942.04544 -17254229.26844  20331031.2254   20331031.0024
  -6459719.19744  -5033553.00244  24109278.9584   24109281.1134
    180701.26344                  25273349.0304
  -8486888.30844  -6613139.79444  23565208.2804   23565211.4264
 -20087983.85444 -15652949.79144  21694199.2304   21694200.0624
  -6379542.85344  -4971061.90244  23489480.1774   23489481.6114
 -16502852.38044 -12859332.98144  22168948.6414   22168949.3504
 -17882267.43744 -13934228.17344  21735594.5204   21735595.6344
 95  6  1  0 26  0.0000000  0  8G 6G 5G24G23G17G26G16G20
 -22166192.75244 -17272346.70444  20326606.7334   20326606.5544
  -6349951.23344  -4948019.69144  24130167.2424   24130171.7394
    256259.97544                  25287727.6214
  -8586467.41344  -6690733.79944  23546259.2224   23546263.1824
 -20136706.88644 -15690915.78144  21684927.4074   21684928.3584
  -6452807.44444  -5028151.11244  23475538.4194   23475538.8284
 -16428014.44944 -12801017.73044  22183189.9594   22183190.8714
 -17800683.73444 -13870656.49744  21751119.3924   21751120.7014
 95  6  1  0 26 30.0000000  0  8G 6G 5G24G23G17G26G16G20
 -22189105.32844 -17290200.65944  20322246.6294   20322246.5054
  -6240146.73744  -4862457.94744  24151062.4174   24151062.3614
    331777.68544    258540.61944  25302098.0704   25302099.0924
  -8685840.37044  -6768167.17844  23527348.9674   23527351.4854
 -20185222.88444 -15728720.44544  21675695.2564   21675696.1034
  -6525851.67444  -5085068.63244  23461638.4504   23461640.3934
 -16352808.72444 -12742415.87544  22197500.9924   22197502.0494
 -17718725.61644 -13806793.07444  21766715.3674   21766716.8264
 95  6  1  0 27  0.0000000  0  8G 6G 5G24G23G17G26G16G20
 -22211666.37744 -17307780.69544  20317953.3254   20317953.0324
  -6130302.65044                  24171964.8324
    407243.68344                  25316458.5254
  -8785021.99544  -6845451.45744  23508475.2374   23508476.6704
 -20233528.36544 -15766361.06444  21666502.9704   21666503.4704
  -6598686.33744  -5141822.81844  23447778.6594   23447782.0424
 -16277224.18944 -12683518.84244  22211884.2844   22211885.0074
 -17636386.11244 -13742632.46644  21782383.9494   21782385.2124
 95  6  1  0 27 30.0000000  0  8G 6G 5G24G23G17G26G16G20
 -22233860.92344 -17325075.14144  20313729.7984   20313729.5484
  -6020428.51444  -4691249.30144  24192873.4434
    482652.55944                  25330808.4154
  -8884037.98444  -6922606.66044  23489632.8654   23489635.6484
 -20281630.84444 -15803843.50544  21657349.2594   21657349.7084
  -6671331.39844  -5198429.27144  23433954.4544   23433956.7134
 -16201273.91644 -12624336.82444  22226337.0754   22226337.8124
 -17553674.01844 -13678181.52944  21798123.6804   21798125.0944
 95  6  1  0 28  0.0000000  0  8G 6G 5G24G23G17G26G16G20
 -22255668.90044 -17342068.36644  20309580.0394   20309579.7344
  -5910510.25644  -4605598.97444  24213790.1454   24213791.7314
    558041.44844                  25345154.4774
  -8982860.75744  -6999611.31644  23470827.5404   23470828.4234
 -20329496.34044 -15841141.28544  21648240.7104   21648241.1984
  -6743773.36644  -5254877.48644  23420169.0864   23420170.9754
 -16124917.35544 -12564838.21544  22240867.2234   22240867.6774
 -17470579.25544 -13613432.40344  21813936.2104   21813937.4424
 95  6  1  0 28 30.0000000  0  8G 6G 5G24G23G17G26G16G20
 -22277070.81444 -17358745.17944  20305507.3654   20305507.1114
  -5800549.07644  -4519915.10544  24234715.4724   24234721.9554
    633411.68344                  25359497.0384
  -9081474.24644  -7076452.92344  23452061.8534   23452063.7834
 -20377109.37044 -15878242.33044  21639180.3274   21639181.1064
  -6815999.02844  -5311157.12644  23406424.7734   23406427.1974
 -16048142.86644 -12505013.94744  22255476.7684   22255477.9344
 -17387107.08244 -13548389.18444  21829820.4614   21829821.7844
 95  6  1  0 29  0.0000000  0  8G 6G 5G24G23G17G26G16G20
 -22298077.94944 -17375114.37344  20301509.7674   20301509.5834
  -5690573.09044  -4434219.77044  24255643.1874
    708741.74244                  25373831.7804
  -9179890.24644  -7153140.62144  23433334.1934   23433336.7954
 -20424482.30944 -15915156.29644  21630165.3714   21630166.0684
  -6888017.34444  -5367275.22344  23392719.9484   23392720.6274
 -15970991.71644 -12444896.19044  22270158.1714   22270159.8234
 -17303302.30244 -13483086.79644  21845768.0064   21845769.8314
 95  6  1  0 29 30.0000000  0  8G 6G 5G24G23G17G26G16G20
 -22318716.52344 -17391196.38544  20297582.3744   20297582.1704
  -5580609.60544  -4348534.17544  24276568.8014
    784026.16344                  25388157.7474
  -9278110.75044  -7229675.98844  23414643.2744   23414644.8234
 -20471630.69044 -15951895.28144  21621193.2714   21621194.2764
  -6959822.32244  -5423227.05044  23379056.1664   23379056.6464
 -15893492.17444 -12384506.94444  22284905.9284   22284907.1814
 -17219195.84544 -13417549.32544  21861772.8894   21861774.1554
 95  6  1  0 30  0.0000000  0  8G 6G 5G24G23G17G26G16G20
 -22339021.91644 -17407018.78144  20293718.4384   20293718.1104
  -5470686.54044  -4262879.98344  24297487.0794
    859234.78644                  25402469.3464
  -9376156.92944  -7306075.52744  23395985.5794   23395989.4384
 -20518584.83444 -15988482.91444  21612258.3404   21612258.7544
  -7031442.05044  -5479034.57044  23365427.5094   23365427.6484
 -15815678.94144 -12323873.27744  22299713.3024   22299714.2124
 -17134825.35344 -13351806.12544  21877827.9274   21877829.4544
 95  6  1  0 30 30.0000000  0  8G 6G 5G24G23G17G26G16G20
 -22359010.45944 -17422594.27644  20289914.7414   20289914.4124
  -5360847.04644                  24318389.0184
    934317.03944                  25416757.2694
  -9474070.20244  -7382371.52744  23377353.0404   23377356.2354
 -20565382.40344 -16024948.54044  21603353.0234   21603353.9404
  -7102905.71144  -5534720.45144  23351828.1054   23351829.8794
 -15737601.90644 -12263034.04944  22314570.9034   22314571.5684
 -17050212.58744 -13285874.14344  21893929.3284   21893930.5364
 95  6  1  0 31  0.0000000  0  8G 6G 5G24G23G17G26G16G20
 -22378612.90044 -17437868.90844  20286184.4614   20286184.2514
  -5251035.71244  -4091723.96244  24339286.0144
   1009337.97044    786508.07244  25431033.7464
  -9571798.88544  -7458523.65644  23358755.5064   23358758.6244
 -20611967.10244 -16061248.29144  21594488.1924   21594488.7954
  -7174155.64744  -5590239.80544  23338269.6384   23338273.0054
 -15659199.20644 -12201941.05644  22329490.5404   22329491.5044
 -16965284.80444 -13219696.69644  21910090.5804   21910092.5264
 95  6  1  0 31 30.0000000  0  8G 6G 5G24G23G17G26G16G20
 -22397765.16244 -17452792.74244  20282539.8754   20282539.8064
  -5141191.43744                  24360188.4634
   1084353.04544                  25445308.6394
  -9669294.16144  -7534493.92444  23340202.5444   23340205.6174
 -20658285.19744 -16097340.30644  21585674.2834   21585674.7244
  -7245140.27144  -5645552.43444  23324761.8714   23324766.3994
 -15580400.73244 -12140539.64944  22344485.3974   22344486.0304
 -16879977.68444 -13153223.66844  21926324.0424   21926326.2464
 95  6  1  0 32  0.0000000  0  8G 6G 5G24G23G17G26G16G20
 -22416511.83644 -17467400.53844  20278972.4644   20278972.4754
  -5031369.34644  -3920555.76644  24381086.8934
   1159025.01944                  25459570.2954
  -9766599.01544  -7610315.79944  23321685.9904   23321688.3904
 -20704381.62844 -16133259.58344  21576902.3484   21576902.8324
  -7315910.58544  -5700698.04944  23311294.6454   23311294.9724
 -15501253.75544 -12078866.69944  22359546.5354   22359547.3594
 -16794343.35944 -13086495.67344  21942619.8134   21942621.2654
 95  6  1  0 32 30.0000000  0  8G 6G 5G24G23G17G26G16G20
 -22434856.83744 -17481695.34744  20275481.5744   20275481.3954
  -4921572.04444  -3834999.70644  24401981.0504   24401985.8954
   1233181.28144                  25473822.6484
  -9863705.79244  -7685983.34644  23303207.5684   23303210.2994
 -20750253.72444 -16169004.05744  21568173.0424   21568173.7384
  -7386448.04544  -5755662.23044  23297871.6324   23297871.4774
 -15421754.03844 -12016918.89244  22374674.8814   22374675.9694
 -16708375.32044 -13019507.63844  21958979.1344   21958980.2604
 95  6  1  0 33  0.0000000  0  7G 6G 5G23G17G26G16G20
 -22452824.44844 -17495696.08544  20272062.6214   20272062.4054
  -4811802.96344  -3749465.56344  24422869.6084   24422874.8974
  -9960618.42344  -7761499.61144  23284765.8714   23284768.6254
 -20795920.43944 -16204588.50144  21559482.9994   21559483.8114
  -7456749.75044  -5810442.71044  23284493.2234   23284495.2774
 -15341913.41744 -11954705.43544  22389868.1034   22389869.3784
 -16622095.81444 -12952276.89744  21975397.6234   21975399.0104
 95  6  1  0 33 30.0000000  0  7G 6G 5G23G17G26G16G20
 -22470407.50344 -17509397.17244  20268716.6724   20268716.3684
  -4702036.35144  -3663933.33244  24443757.3574   24443761.5644
 -10057295.37144  -7836832.22544  23266368.7254   23266370.1064
 -20841358.64144 -16239994.88544  21550836.4784   21550837.3884
  -7526771.04244  -5865004.66744  23271168.7624   23271171.1434
 -15261720.26444 -11892217.28644  22405128.3724   22405129.4544
 -16535487.45044 -12884789.90044  21991878.6934   21991880.0004
 95  6  1  0 34  0.0000000  0  7G 6G 5G23G17G26G16G20
 -22487616.47644 -17522806.76444  20265441.9744   20265441.6234
  -4592272.92744  -3578403.69244  24464644.9404   24464649.5604
 -10153718.78644  -7911967.28644  23248019.9534   23248021.6744
 -20886573.75944 -16275227.43644  21542232.2584   21542232.8924
  -7596494.88744  -5919334.86944  23257900.9464   23257902.8934
 -15181196.80144 -11829471.74844  22420451.5194   22420453.1784
 -16448544.16244 -12817041.91944  22008423.3874   22008425.2104
 95  6  1  0 34 30.0000000  0  8G 6G 5G22G23G17G26G16G20
 -22504440.16244 -17535916.13344  20262240.4594   20262240.1524
  -4482506.37344  -3492871.52744  24485532.8194
        -0.09554        -0.16754  25021034.7334   25021032.5184
 -10249890.38044  -7986906.11144  23229719.1204   23229722.1114
 -20931576.94144 -16310294.84144  21533668.5794   21533669.1674
  -7665926.92444  -5973437.69744  23244688.3524   23244690.3964
 -15100346.03944 -11766471.16544  22435836.9664   22435837.7624
 -16361262.85144 -12749030.55144  22025032.4864   22025034.1154
 95  6  1  0 35  0.0000000  0  8G 6G 5G22G23G17G26G16G20
 -22520845.07944 -17548699.18844  20259118.6374   20259118.3174
  -4372714.96844  -3407320.03644  24506425.4614   24506432.6824
    -79212.82644    -61724.34344  25005961.0164   25005962.5014
 -10345779.82744  -8061625.09544  23211472.0794   23211474.5274
 -20976337.91244 -16345173.51144  21525150.9164   21525151.3194
  -7735052.65844  -6027301.82844  23231533.9464   23231535.6554
 -15019142.34244 -11703195.56544  22451289.4054   22451290.5424
 -16273623.17544 -12680739.93944  22041709.7884   22041711.2134
 95  6  1  0 35 30.0000000  0  8G 6G 5G22G23G17G26G16G20
 -22536881.02944 -17561194.73544  20256067.1154   20256066.7764
  -4262948.31444  -3321787.78444  24527313.6044   24527319.9284
   -158119.82544   -123210.29244  24990945.2314   24990950.2884
 -10441435.38644  -8136161.83444  23193269.5184   23193270.3584
 -21020897.81444 -16379895.50544  21516671.2124   21516671.8234
  -7803935.48644  -6080976.69044  23218426.1194   23218426.4764
 -14937650.30744 -11639695.29344  22466796.7794   22466797.9294
 -16185675.64344 -12612209.44744  22058445.7344   22058447.4434
 95  6  1  0 36  0.0000000  0  8G 6G 5G22G23G17G26G16G20
 -22552541.32744 -17573397.57044  20253087.1014   20253086.8534
  -4153209.82944  -3236277.52244  24548196.1844
   -236732.09544   -184466.54744  24975985.7344   24975987.3144
 -10536872.24144  -8210528.14044  23175108.4274   23175109.8274
 -21065264.90044 -16414467.25444  21508228.5374   21508229.2294
  -7872607.04944  -6134486.93844  23205358.4174   23205359.4924
 -14855866.60044 -11575967.74744  22482359.6744   22482361.1854
 -16097429.32844 -12543446.13044  22075238.4954   22075239.7924
 95  6  1  0 36 30.0000000  0  8G 6G 5G22G23G17G26G16G20
 -22567833.27144 -17585313.37144  20250177.0494   20250176.7264
  -4043520.10244  -3150805.25844  24569069.8144   24569076.4334
   -315048.99744   -245492.73644  24961082.3584   24961083.1444
 -10632115.95044  -8284743.95744  23156983.9884   23156985.5584
 -21109440.49844 -16448889.79044  21499822.2794   21499822.8044
  -7941093.99244  -6187853.31344  23192325.6184   23192327.8784
 -14773782.62044 -11512006.22544  22497979.7654   22497981.1104
 -16008897.42944 -12474460.27944  22092085.4154   22092086.9484
 95  6  1  0 37  0.0000000  0  8G 6G 5G22G23G17G26G16G20
 -22582750.34644 -17596937.06344  20247338.3854   20247338.1274
  -3933869.90144  -3065363.84144  24589935.6784
   -393054.40144   -306276.07644  24946238.6494   24946242.4434
 -10727151.01744  -8358797.19244  23138899.0444   23138901.6294
 -21153405.27144 -16483148.04144  21491455.8514   21491456.6974
  -8009366.17044  -6241052.34544  23179333.9204   23179334.8994
 -14691394.63044 -11447807.81544  22513657.7054   22513658.7554
 -15920072.69144 -12405246.24344  22108988.1154   22108989.8824
 95  6  1  0 37 30.0000000  0  8G 6G 5G22G23G17G26G16G20
 -22597271.54544 -17608252.28744  20244575.1334   20244574.9424
  -3824257.95844  -2979952.14044  24610794.4084
   -470746.37944   -366815.26744  24931454.5184   24931454.0114
 -10821969.58544  -8432681.72344  23120855.3124   23120857.9654
 -21197151.68244 -16517236.14644  21483131.0624   21483132.0404
  -8077405.80244  -6294070.18944  23166386.2814   23166387.8184
 -14608696.33244 -11383367.60944  22529394.7064   22529395.8364
 -15830952.82244 -12335802.22044  22125947.2694   22125949.3204
 95  6  1  0 38  0.0000000  0  8G 6G 5G22G23G17G26G16G20
 -22611375.22944 -17619242.17344  20241891.3094   20241890.9794
  -3714701.27744  -2894583.54444  24631642.3514
   -548115.15744   -427102.60644  24916731.5134   24916733.0714
 -10916563.92144  -8506391.52744  23102854.5464   23102856.5064
 -21240667.09244 -16551144.25144  21474850.4734   21474850.8584
  -8145187.29144  -6346886.86644  23153487.7184   23153488.5664
 -14525671.12644 -11318672.66444  22545193.8644   22545195.1704
 -15741536.06744 -12266126.86744  22142962.6664   22142964.5904
 95  6  1  0 38 30.0000000  0  8G 6G 5G22G23G17G26G16G20
 -22625072.29244 -17629915.21244  20239284.9454   20239284.5494
  -3605230.98444  -2809282.28444  24652474.0844
   -625167.38444   -487143.26844  24902069.3184
 -11010944.06744  -8579934.43744  23084894.5644   23084896.7094
 -21283961.94944 -16584880.48744  21466611.6764   21466612.1254
  -8212701.36044  -6399495.16744  23140640.0394   23140641.6574
 -14442346.80044 -11253744.62944  22561049.9974   22561050.4754
 -15651842.88444 -12196236.13144  22160030.7364   22160032.5094
 95  6  1  0 39  0.0000000  0  8G 6G 5G22G23G17G26G16G20
 -22638333.25944 -17640248.44044  20236761.3354   20236761.0184
  -3495822.49644  -2724029.20144  24673294.2574   24673300.7074
   -701874.70944   -546915.18044  24887472.4364   24887471.2714
 -11105082.10844  -8653288.69644  23066980.8494   23066983.7714
 -21327010.36844 -16618424.70944  21458419.7194   21458420.2404
  -8279902.46444  -6451859.61344  23127852.2134   23127852.9034
 -14358709.57344 -11188572.78044  22576965.6974   22576966.3874
 -15561860.18144 -12126119.79944  22177153.9504   22177155.6874
 95  6  1  0 39 30.0000000  0  8G 6G 5G22G23G17G26G16G20
 -22651163.54044 -17650246.06844  20234319.8554   20234319.5074
  -3386480.85244  -2638828.16744  24694101.5354
   -778228.62144   -606411.71144  24872942.2474   24872942.5894
 -11198984.74444  -8726459.52844  23049111.8344   23049114.3054
 -21369816.83844 -16651780.39144  21450274.1194   21450274.7314
  -8346798.79044  -6503986.54944  23115122.2444   23115123.5334
 -14274750.64844 -11123150.25344  22592942.5324   22592942.9484
 -15471589.97144 -12055779.43444  22194331.9074   22194333.6594
 95  6  1  0 40  0.0000000  0  8G 6G 5G22G23G17G26G16G20
 -22663580.24644 -17659921.42144  20231956.8504   20231956.5164
  -3277197.35144                  24714897.7384
   -854228.02944                  24858479.9074
 -11292660.89644  -8799453.86844  23031285.6584   23031287.4144
 -21412401.40344 -16684963.16144  21442170.5434   21442171.3444
  -8413394.88444  -6555879.56244  23102449.2974   23102449.7164
 -14190478.81444 -11057483.91344  22608978.8654   22608978.7604
 -15381043.78844 -11985224.00944  22211562.2364   22211563.7824
 95  6  1  0 40 30.0000000  0  8G 6G 5G22G23G17G26G16G20
 -22675607.16744 -17669293.05844  20229668.3994   20229668.1454
  -3167956.47944  -2468549.95744  24735685.8164   24735688.7334
   -929871.44444   -724574.87844  24844085.7504   24844086.7044
 -11386118.74044  -8872278.11344  23013501.2744   23013503.7964
 -21454779.69744 -16717985.20544  21434106.2574   21434106.8084
  -8479708.65644  -6607552.58344  23089830.3124   23089831.5144
 -14105899.10344 -10991577.66744  22625073.9244   22625074.8284
 -15290229.37144 -11914459.57844  22228843.8574   22228845.1564
 95  6  1  0 41  0.0000000  0  8G 6G 5G22G23G17G26G16G20
 -22687259.79444 -17678373.03644  20227450.8954   20227450.8394
  -3058771.11944  -2383470.75644  24756463.2844
  -1005166.12044   -783246.06944  24829757.7104   24829759.1304
 -11479371.48144  -8944942.51744  22995755.9294   22995757.7384
 -21496972.02644 -16750862.33844  21426077.3574   21426078.3034
  -8545764.64844  -6659024.71444  23077260.1614   23077262.0534
 -14021034.07044 -10925449.09544  22641223.1204   22641223.8214
 -15199165.65644 -11843500.89644  22246172.6454   22246174.1104
 95  6  1  0 41 30.0000000  0  8G 6G 5G22G23G17G26G16G20
 -22698512.46544 -17687141.35844  20225309.6164   20225309.2904
  -2949627.26744  -2298423.85244  24777232.7914   24777237.0184
  -1080107.32244   -841641.74544  24815496.8394   24815500.1964
 -11572387.18144  -9017422.22944  22978055.4304   22978057.5184
 -21538984.29644 -16783599.17144  21418082.6124   21418083.4454
  -8611556.07144  -6710290.71144  23064740.3734   23064740.7924
 -13935878.57844 -10859094.19644  22657427.7544   22657428.8304
 -15107851.28944 -11772346.89944  22263549.3484   22263550.7284
 95  6  1  0 42  0.0000000  0  8G 6G 5G22G23G17G26G16G20
 -22709314.55344 -17695558.57644  20223254.0664   20223253.7854
  -2840500.07144  -2213389.94944  24797999.4864   24798002.6774
  -1154663.47644   -899737.46444  24801309.1484   24801313.0864
 -11665113.91244  -9089676.75344  22960410.1654   22960411.1924
 -21580777.21644 -16816165.07944  21410129.5234   21410130.5434
  -8677042.49244  -6761319.02644  23052278.7724   23052280.5794
 -13850416.70244 -10792500.54644  22673690.7164   22673691.1574
 -15016255.82044 -11700973.87144  22280979.2894   22280980.5214
 95  6  1  0 42 30.0000000  0  8G 6G 5G22G23G17G26G16G20
 -22719687.08644 -17703641.07744  20221280.2704   20221279.9724
  -2731445.49844  -2128412.60544  24818751.9344   24818762.1114
  -1228865.10244   -957556.82044  24787188.8504   24787187.7094
 -11757571.82644  -9161721.82044  22942815.9944   22942817.8794
 -21622359.56344 -16848566.89944  21402216.7054   21402217.5024
  -8742233.21644  -6812116.94344  23039873.4604   23039874.4884
 -13764678.46944 -10725691.55244  22690006.2784   22690006.6874
 -14924402.69744 -11629400.06344  22298458.6674   22298460.4714
 95  6  1  0 43  0.0000000  0  8G 6G 5G22G23G17G26G16G20
 -22729604.93744 -17711369.28044  20219392.9704   20219392.6884
  -2622472.54244  -2043498.90444  24839489.2564   24839494.0464
  -1302713.09244  -1015100.71644  24773136.1024   24773136.2494
 -11849742.26444  -9233542.88444  22925276.5864   22925278.2484
 -21663725.84844 -16880800.36044  21394345.1374   21394345.6224
  -8807103.70644  -6862665.31644  23027529.0424   23027530.3264
 -13678658.57444 -10658663.08444  22706375.2984   22706375.8004
 -14832284.63044 -11557619.82044  22315988.0204   22315989.5524
 95  6  1  0 43 30.0000000  0  8G 6G 5G22G23G17G26G16G20
 -22739086.53944 -17718757.54844  20217588.7744   20217588.5264
  -2513592.01744  -1958657.23744  24860208.5674   24860217.7514
  -1376231.70744  -1072387.91744  24759145.8874   24759148.9804
 -11941646.63844  -9305156.61544  22907787.6364   22907790.0494
 -21704880.61244 -16912868.99744  21386513.5134   21386514.2494
  -8871660.70344  -6912969.42744  23015244.0484   23015244.5974
 -13592350.54444 -10591410.09044  22722799.2014   22722800.3224
 -14739915.66744 -11485644.07144  22333565.1514   22333566.7544
 95  6  1  0 44  0.0000000  0  8G 6G 5G22G23G17G26G16G20
 -22748171.21944 -17725836.52644  20215859.9174   20215859.7534
  -2404833.48144  -1873910.60544  24880904.6534
  -1449429.21744  -1129424.87344  24745216.9884   24745219.1844
 -12033332.60044  -9376600.17044  22890340.0914   22890342.4834
 -21745823.37344 -16944772.44244  21378722.3904   21378723.0574
  -8935926.66844  -6963046.75044  23003014.3024   23003015.8104
 -13505774.08244 -10523947.93244  22739274.1254   22739275.1234
 -14647296.75044 -11413473.56444  22351190.1124   22351191.8684
 95  6  1  0 44 30.0000000  0  8G 6G 5G22G23G17G26G16G20
 -22756841.94844 -17732592.94544  20214209.8614   20214209.6294
  -2296162.04444  -1789231.84244  24901584.5514   24901591.3064
  -1522264.68744  -1186179.78144  24731356.9064   24731357.8534
 -12124788.41244  -9447864.38844  22872936.6134   22872939.0424
 -21786530.03044 -16976491.90444  21370976.0774   21370976.7094
  -8999887.08044  -7012885.97844  22990842.8764   22990843.8044
 -13418900.27844 -10456254.07744  22755805.5464   22755806.7304
 -14554401.61944 -11341087.80644  22368867.4614   22368869.5214
 95  6  1  0 45  0.0000000  0  8G 6G 5G22G23G17G26G16G20
 -22765073.58644 -17739007.21244  20212643.4664   20212643.3794
  -2187537.53944  -1704589.62444  24922255.3874   24922265.0684
  -1594712.38544  -1242632.51344  24717570.4004   24717573.1184
 -12215990.90944  -9518931.21244  22855581.2764   22855584.2444
 -21826986.61144 -17008016.50644  21363277.2644   21363277.8984
  -9063545.45144  -7062489.84244  22978729.3694   22978730.7924
 -13331725.89644 -10388325.99944  22772394.3424   22772395.2164
 -14461220.09944 -11268478.86344  22386599.2444   22386601.5814
 95  6  1  0 45 30.0000000  0  8G17G 6G 5G22G23G26G16G20
 -21867200.39344 -17039351.91344  21355624.9374   21355625.6984
 -22772877.30244 -17745088.03444  20211158.4574   20211158.3824
  -2078963.58044  -1619986.85244  24942916.3884   24942922.7964
  -1666770.14744  -1298781.40344  24703858.3904   24703861.1184
 -12306940.68144  -9589801.11844  22838274.0974   22838276.2004
  -9126907.63444  -7111862.94344  22966672.0524   22966671.9734
 -13244275.86544 -10320183.14044  22789035.5234   22789036.1724
 -14367765.33344 -11195657.02244  22404383.1024   22404385.1884
 95  6  1  0 46  0.0000000  0  8G17G 6G 5G22G23G26G16G20
 -21907200.24344 -17070520.61744  21348013.4654   21348014.0044
 -22780269.58144 -17750848.24944  20209751.8704   20209751.7644
  -1970464.02544  -1535442.05144  24963563.2144   24963569.7714
  -1738451.18044  -1354636.68744  24690217.3984   24690220.8664
 -12397629.63244  -9660467.78144  22821016.5394   22821017.9264
  -9189987.51344  -7161016.03244  22954668.1764   22954669.2744
 -13156587.08544 -10251854.24744  22805722.1604   22805723.2854
 -14274055.44044 -11122636.37344  22422215.5554   22422217.6504
 95  6  1  0 46 30.0000000  0  8G17G 6G 5G22G23G26G16G20
 -21946999.07944 -17101532.68844  21340439.7594   21340440.5674
 -22787242.34044 -17756281.57344  20208425.0074   20208424.7894
  -1862040.48944  -1450956.48344  24984195.9824   24984203.3064
  -1809763.95144  -1410205.09044  24676647.2404   24676647.8414
 -12488029.91744  -9730909.50944  22803813.9084   22803815.4654
  -9252764.78344  -7209933.31844  22942722.0444   22942723.9364
 -13068658.47944 -10183338.46844  22822454.5234   22822455.8754
 -14180118.19944 -11049438.59044  22440091.3784   22440092.9964
 95  6  1  0 47  0.0000000  0  8G17G 6G 5G22G23G26G16G20
 -21986588.45344 -17132381.54044  21332906.2364   21332906.8654
 -22793790.45344 -17761384.00244  20207178.9394   20207178.7694
  -1753684.17244  -1366523.22044  25004815.8064
  -1880710.43644  -1465488.00644  24663146.3844   24663148.0574
 -12578128.94744  -9801116.49644  22786668.5234   22786670.4954
  -9315200.57444  -7258584.54144  22930841.1214   22930841.4734
 -12980478.87244 -10114627.10344  22839234.5544   22839235.7294
 -14085950.65044 -10976061.32644  22458010.9954   22458013.1324
 95  6  1  0 47 30.0000000  0  8G17G 6G 5G22G23G26G16G20
 -22025980.52544 -17163076.64544  21325410.3584   21325410.7734
 -22799931.13044 -17766168.94544  20206010.4094   20206010.1864
  -1645417.59844  -1282159.98144  25025418.0634   25025424.8914
  -1951284.33644  -1520480.66944  24649716.4664   24649717.1284
 -12667948.35344  -9871105.59744  22769576.6814   22769578.3554
  -9377289.37044  -7306965.36444  22919025.5964   22919026.3484
 -12892041.53644 -10045714.91944  22856063.5794   22856065.1784
 -13991563.97344 -10902513.33344  22475972.1334   22475973.9934
 95  6  1  0 48  0.0000000  0  8G17G 6G 5G22G23G26G16G20
 -22065151.57444 -17193599.53244  21317956.2154   21317956.7734
 -22805652.42244 -17770627.09644  20204921.5594   20204921.4124
  -1537230.29944  -1197858.49944  25046005.7734
  -2021468.08444  -1575169.25844  24636361.1014   24636360.2944
 -12757491.93344  -9940879.77144  22752537.1344   22752538.3034
  -9439019.53744  -7355066.74144  22907278.6334   22907280.6324
 -12803325.95944  -9976585.92344  22872945.5684   22872945.7964
 -13896955.48344 -10828792.50744  22493975.6444   22493977.4584
 95  6  1  0 48 30.0000000  0  8G17G 6G 5G22G23G26G16G20
 -22104099.39144 -17223948.47644  21310544.5594   21310545.0494
 -22810945.43044 -17774751.52344  20203914.3634   20203914.0864
  -1429132.55344  -1113626.76544  25066576.7074   25066585.1464
  -2091259.26444  -1629552.01044  24623080.4484   24623083.5614
 -12846787.39944 -10010460.59844  22735544.7804   22735546.4624
  -9500392.53044  -7402889.82044  22895599.7114   22895600.3994
 -12714343.91744  -9907249.29444  22889878.3954   22889879.5144
 -13802134.77544 -10754906.31044  22512019.5744   22512020.8534
 95  6  1  0 49  0.0000000  0  8G17G 6G 5G22G23G26G16G20
 -22142847.94644 -17254142.14844  21303171.0364   21303171.8284
 -22815820.12244 -17778549.99144  20202986.9044   20202986.6034
  -1321139.75344  -1029476.85644  25087127.6014
  -2160674.75944  -1683641.93644  24609871.2744   24609871.8694
 -12935861.67644 -10079869.08244  22718594.5634   22718596.4514
  -9561445.66244  -7450463.63944  22883981.6804   22883982.8234
 -12625119.85444  -9837724.07144  22906857.1294   22906857.9524
 -13707098.62744 -10680852.24344  22530104.4184   22530106.1564
 95  6  1  0 49 30.0000000  0  8G17G 6G 5G22G23G26G16G20
 -22181393.60044 -17284177.72044  21295836.0974   21295836.8594
 -22820244.80144 -17781997.80344  20202144.9244   20202144.6654
  -1213247.23944   -945405.05944  25107658.9044
  -2229700.37044  -1737428.12644  24596736.2114   24596738.2954
 -13024678.91144 -10149077.26644  22701693.0354   22701694.6154
  -9622175.45644  -7497785.50144  22872425.2194   22872426.0444
 -12535640.57044  -9767999.97844  22923884.6514   22923885.2914
 -13611831.97844 -10606618.56444  22548232.9754   22548234.6314
 95  6  1  0 50  0.0000000  0  8G17G 6G 5G22G23G26G16G20
 -22219765.29644 -17314077.73644  21288534.1084   21288534.6354
 -22824236.43444 -17785108.17344  20201385.3604   20201385.1424
  -1105480.00944   -861430.93544  25128166.7724
  -2298387.74944  -1790950.73744  24583665.3604   24583666.2674
 -13113243.53844 -10218088.61844  22684839.6324   22684841.4064
  -9682605.81944  -7544874.06344  22860925.6794   22860927.4904
 -12445943.44944  -9698106.13544  22940953.3354   22940953.7934
 -13516351.24044 -10532218.03344  22566402.4474   22566404.1214
 95  6  1  0 50 30.0000000  0  8G17G 6G 5G22G23G26G16G20
 -22257975.87844 -17343852.20544  21281262.9894   21281263.5054
 -22827789.25944 -17787876.61244  20200709.2324   20200708.8754
   -997840.20244   -777556.07044  25148650.1314
  -2366732.99544  -1844206.74944  24570659.7124   24570661.0604
 -13201544.21744 -10286894.28244  22668036.5754   22668038.4644
  -9742739.71244  -7591731.59244  22849482.6374   22849484.1624
 -12356032.73544  -9628045.87144  22958062.8004   22958063.7264
 -13420650.59944 -10457646.15244  22584613.4654   22584615.7804
 95  6  1  0 51  0.0000000  0  8G17G 6G 5G22G23G26G16G20
 -22295983.56344 -17373468.57744  21274030.2874   21274030.8254
 -22830867.31844 -17790275.10444  20200123.3584   20200122.9794
   -890264.72744   -693731.33044  25169121.2214
  -2434677.15744  -1897150.24644  24557729.9664   24557730.5864
 -13289512.32444 -10355440.81444  22651296.7714   22651297.9844
  -9802521.94744  -7638315.10344  22838106.3114   22838107.6014
 -12265850.93044  -9557774.35544  22975223.8814   22975224.9104
 -13324689.35744 -10382871.20844  22602874.3454   22602876.0404
 95  6  1  0 51 30.0000000  0  8G17G 6G 5G22G23G26G16G20
 -22333776.22844 -17402917.39944  21266838.4354   21266839.0044
 -22833484.00744 -17792314.09044  20199625.2994   20199624.9624
   -782761.56944                  25189578.3904
  -2502210.86644  -1949773.85244  24544878.8844   24544877.7434
 -13377147.84944 -10423728.18444  22634620.1954   22634621.4074
  -9861939.64244  -7684614.54244  22826799.6444   22826800.0394
 -12175409.63644  -9487300.64844  22992434.2234   22992436.1134
 -13228504.28244 -10307921.88144  22621177.6774   22621180.6524
 95  6  1  0 52  0.0000000  0  8G17G 6G 5G22G23G26G16G20
 -22371367.47644 -17432209.28444  21259685.0584   21259685.6134
 -22835677.35044 -17794023.19544  20199207.9704   20199207.8274
   -675364.16244                  25210015.9664
  -2569354.10444  -2002093.21644  24532102.3884   24532105.3574
 -13464500.35344 -10491795.02144  22617997.4314   22617998.5634
  -9921018.62944  -7730650.06244  22815557.0454   22815558.8474
 -12084745.27744  -9416653.13744  23009686.9544   23009687.9184
 -13132140.42744 -10232833.23844  22639515.4534   22639516.9214
 95  6  1  0 52 30.0000000  0  8G17G 6G 5G22G23G26G16G20
 -22408762.81744 -17461348.50344  21252569.1484   21252569.5754
 -22837462.36244 -17795414.11944  20198868.3734   20198868.3094
   -568084.77244                  25230430.8124
  -2636103.85344  -2054105.98544  24519400.1474   24519400.2454
 -13551591.37544 -10559658.10844  22601424.4124   22601426.7254
  -9979756.17644  -7776419.53644  22804379.7664   22804380.0584
 -11993865.38144  -9345837.64344  23026980.8404   23026982.1484
 -13035615.88944 -10157619.36644  22657883.3044   22657885.6594
 95  6  1  0 53  0.0000000  0  8G17G 6G 5G22G23G26G16G20
 -22445915.03744 -17490298.27544  21245499.1604   21245499.8564
 -22838806.18944 -17796461.26244  20198612.7364   20198612.6784
   -460896.21744                  25250828.1794
  -2702435.24144  -2105792.79344  24506777.5684   24506777.6904
 -13638387.08344 -10627291.07944  22584907.6794   22584910.0354
 -10038100.87344  -7821882.88744  22793277.0394   22793278.3474
 -11902734.74044  -9274826.78144  23044322.4464   23044324.2724
 -12938907.27244 -10082262.05344  22676286.5314   22676288.2224
 95  6  1  0 53 30.0000000  0  8G17G 6G 5G22G23G26G16G20
 -22482844.17544 -17519074.22644  21238471.6164   21238472.1284
 -22839717.38944 -17797171.29344  20198439.3324   20198439.0104
   -353850.22544                  25271198.7424
  -2768392.58944  -2157188.10444  24494225.8944   24494226.4584
 -13724929.68444 -10694726.83844  22568439.0814   22568440.7394
 -10096075.86444  -7867058.16344  22782244.6304   22782245.0774
 -11811383.60444  -9203644.10944  23061706.0004   23061706.7934
 -12842036.04044 -10006778.04844  22694720.5594   22694723.6144
 95  6  1  0 54  0.0000000  0  8G17G 6G 5G22G23G26G16G20
 -22519537.67644 -17547666.56244  21231489.1044   21231489.4314
 -22840164.47644 -17797519.68544  20198354.2744   20198354.0954
   -246934.01744                  25291544.3244
  -2833961.04944  -2208280.39944  24481748.4384   24481748.4884
 -13811201.75944 -10761951.78144  22552022.0524   22552023.8974
 -10153656.32144  -7911925.99644  22771287.4164   22771287.2224
 -11719773.94844  -9132259.97944  23079138.8164   23079140.0734
 -12744956.07644  -9931131.37944  22713194.4234   22713195.9674
 95  6  1  0 54 30.0000000  0  8G17G 6G 5G22G23G26G16G20
 -22555999.45644 -17576078.33244  21224550.7484   21224551.1424
 -22840140.53644 -17797501.04044  20198358.5614   20198358.1764
   -140151.76344                  25311864.0754
  -2899135.71944  -2259065.79444  24469346.5114   24469349.3604
 -13897190.09344 -10828955.62444  22535659.0984   22535661.2694
 -10210834.99444  -7956480.75244  22760406.5754   22760407.5564
 -11627903.38544  -9060672.54044  23096621.1264   23096623.0204
 -12647665.44644  -9855320.58044  22731708.1054   22731710.7604
 95  6  1  0 55  0.0000000  0  8G17G 6G 5G22G23G26G16G20
 -22592260.13444 -17604333.39944  21217650.4694   21217651.0054
 -22839658.63844 -17797125.54544  20198450.4154   20198450.5244
    -33532.07544                  25332153.3584
  -2963926.01144  -2309551.73844  24457017.1964   24457017.5534
 -13982900.12944 -10895742.61544  22519348.9104   22519351.5744
 -10267649.46844  -8000751.71244  22749595.2094   22749595.9434
 -11535800.44144  -8988904.02844  23114147.6914   23114149.0654
 -12550197.70344  -9779371.77944  22750255.6714   22750258.0654
 95  6  1  0 55 30.0000000  0  8G17G 6G 5G22G23G26G16G20
 -22628387.24744 -17632484.39144  21210775.7614   21210776.2804
 -22838772.58444 -17796435.12244  20198619.0464   20198618.9334
     72866.31044                  25352400.4534
  -3028372.40344  -2359769.69144  24444753.5984   24444755.3734
 -14068382.52444 -10962352.22344  22503082.1214   22503084.0124
 -10324173.26944  -8044796.18344  22738838.9134   22738840.7074
 -11443518.73244  -8916996.23044  23131708.3824   23131709.4944
 -12452599.82044  -9703321.54744  22768827.8634   22768830.4734
 95  6  1  0 56  0.0000000  0  8G17G 6G 5G22G23G26G16G20
 -22664301.91944 -17660469.84744  21203941.3954   21203941.9974
 -22837423.15644 -17795383.63144  20198875.8424   20198875.6944
    179132.47644                  25372622.6344
  -3092377.98544  -2409644.16544  24432573.6524   24432574.5104
 -14153544.03944 -11028711.78544  22486876.2534   22486878.1374
 -10380334.73644  -8088558.32444  22728151.6814   22728152.5534
 -11350986.01544  -8844892.83744  23149316.6794   23149319.3204
 -12354808.82144  -9627120.83244  22787436.7764   22787438.3544
 95  6  1  0 56 30.0000000  0  8G17G 6G 5G22G23G26G16G20
 -22699947.05244 -17688245.27044  21197158.3554   21197159.3334
 -22835555.72344 -17793928.50144  20199231.1694   20199230.8654
    285331.84644                  25392831.7084
  -3155874.61844  -2459122.03044  24420490.7054   24420491.9384
 -14238322.01444 -11094772.49744  22470743.6094   22470745.4894
 -10436088.45844  -8132002.74444  22717542.0874   22717542.6244
 -11258171.01044  -8772569.48544  23166978.8234   23166979.6334
 -12256784.76344  -9550738.50844  22806090.2964   22806092.5424
 95  6  1  0 57  0.0000000  0  8G17G 6G 5G22G23G26G16G20
 -22735401.73744 -17715872.30044  21190411.5154   21190412.2294
 -22833238.11444 -17792122.58244  20199672.2854   20199672.1834
    391400.25244                  25413015.8854
  -3218932.06344  -2508257.62744  24408491.0334   24408493.5914
 -14322795.88044 -11160596.23844  22454668.8224   22454670.4374
 -10491505.68744  -8175184.94744  22706996.4254   22706995.6634
 -11165152.63944  -8700087.66544  23184679.5244   23184680.9254
 -12158595.09944  -9474227.16844  22824775.2544   22824776.7934
 95  6  1  0 57 30.0000000  0  8G17G 6G 5G22G23G26G16G20
 -22770657.42344 -17743344.25944  21183702.6284   21183703.2584
 -22830489.49644 -17789980.81444  20200195.3614   20200195.0044
    497331.29444                  25433174.5784
  -3281566.80944  -2557063.96044  24396572.2504   24396572.3064
 -14406981.81344 -11226195.61944  22438648.7604   22438650.1414
 -10546565.29544  -8218088.50044  22696518.8414   22696518.7054
 -11071946.72544  -8627459.70744  23202416.1364   23202417.6254
 -12060248.96544  -9397593.91444  22843490.0704   22843492.4524
 95  6  1  0 58  0.0000000  0  8G17G 6G 5G22G23G26G16G20
 -22805723.33644 -17770668.34444  21177029.8324   21177030.4514
 -22827323.32044 -17787513.67544  20200797.9034   20200797.8344
    603113.08044                  25453303.9684
  -3343795.69944  -2605553.96044  24384730.3044   24384731.9614
 -14490884.07044 -11291573.96144  22422682.4694   22422684.1514
 -10601251.03344  -8260700.71544  22686112.4344   22686112.3954
 -10978589.57244  -8554713.90144  23220181.4384   23220183.0464
 -11961765.37544  -9320853.54644  22862231.1004   22862233.2824
 95  6  1  0 58 30.0000000  0  8G17G 6G 5G22G23G26G16G20
 -22840587.87744 -17797835.51744  21170395.3054   21170395.9794
 -22823708.35544 -17784696.82744  20201485.7504   20201485.6974
    708761.18444                  25473408.4644
  -3405599.05144  -2653712.38644  24372969.3634   24372970.8744
 -14574479.11844 -11356712.91644  22406774.7524   22406776.7794
 -10655531.32544  -8302997.00944  22675783.3464   22675783.4144
 -10885067.30344  -8481839.43144  23237978.1794   23237979.2084
 -11863115.04044  -9243983.22544  22881003.8764   22881005.7744
 95  6  1  0 59  0.0000000  0  8G17G 6G 5G22G23G26G16G20
 -22875230.81244 -17824830.00944  21163803.0734   21163803.7654
 -22819646.99744 -17781532.14044  20202258.7544   20202258.4404
    814276.56544                  25493487.4444
  -3466979.11444  -2701540.96744  24361289.4564   24361290.8104
 -14657755.14444 -11421603.28944  22390927.7474   22390929.6004
 -10709387.98044  -8344963.19144  22665534.9334   22665535.9744
 -10791363.04344  -8408823.14744  23255809.4784   23255811.1034
 -11764285.45244  -9166973.24044  22899810.6014   22899812.8624
 95  6  1  0 59 30.0000000  0  8G17G 6G 5G22G23G26G16G20
 -22909637.89444 -17851640.72044  21157255.6444   21157256.1124
 -22815144.61244 -17778023.79644  20203115.3364   20203115.1254
    919664.25244                  25513542.5064
  -3527939.89744  -2749042.86744  24349688.8744   24349689.7824
 -14740693.54244 -11486230.57644  22375145.1314   22375146.4194
 -10762809.86644  -8386590.58744  22655369.3494   22655369.6264
 -10697471.49544  -8335660.91944  23273676.6214   23273677.5494
 -11665276.45044  -9089823.45644  22918651.3044   22918654.0714
 95  6  1  1  0  0.0000000  0  8G17G 6G 5G22G23G26G16G20
 -22943833.94444 -17878286.98944  21150748.3764   21150748.9284
 -22810200.60444 -17774171.33544  20204056.1734   20204056.0704
   1024916.30244                  25533571.5904
  -3588487.71544  -2796222.95944  24338166.8514   24338167.1564
 -14823302.89244 -11550601.45544  22359425.1784   22359427.3714
 -10815828.77544  -8427903.98044  22645279.9294   22645280.3984
 -10603398.65144  -8262357.44044  23291577.9764   23291579.3184
 -11566100.64644  -9012543.68744  22937523.8334   22937526.0564
 95  6  1  1  0 30.0000000  0  7G17G 6G22G23G26G16G20
 -22977836.98644 -17904782.86044  21144277.7434   21144278.2854
 -22804827.73744 -17769984.69444  20205078.5904   20205078.4084
  -3648642.98744  -2843097.20444  24326719.7194   24326720.2974
 -14905612.03944 -11614738.41344  22343762.2424   22343763.7564
 -10868481.45244  -8468931.99444  22635260.3244   22635260.6434
 -10509144.78944  -8188912.88944  23309513.9534   23309514.8384
 -11466782.16944  -8935152.76244  22956423.4394   22956425.2744
 95  6  1  1  1  0.0000000  0  7G17G 6G22G23G26G16G20
 -23011639.76144 -17931122.67744  21137845.2644   21137845.7494
 -22799008.99344 -17765450.61444  20206185.9474   20206185.8304
  -3708410.48044  -2889669.27344  24315346.5214   24315348.1124
 -14987618.98944 -11678639.89144  22328156.9104   22328158.0714
 -10920757.94144  -8509666.86544  22625312.4194   22625313.0984
 -10414694.49544  -8115315.26844  23327487.3554   23327489.2884
 -11367328.64644  -8857656.60444  22975348.8174   22975350.1884
 95  6  1  1  1 30.0000000  0  7G17G 6G22G23G26G16G20
 -23045289.77044 -17957343.46444  21131441.9044   21131442.4934
 -22792748.02844 -17760571.95344  20207377.3054   20207377.2634
  -3767803.28144  -2935949.32244  24304044.5104   24304045.5994
 -15069355.58144 -11742330.71044  22312602.8894   22312604.1304
 -10972673.21344  -8550120.27744  22615433.4334   22615433.8614
 -10320075.99844  -8041586.60044  23345492.5644   23345493.6764
 -11267768.49844  -8780077.36044  22994294.5454   22994297.6154
 95  6  1  1  2  0.0000000  0  7G17G 6G22G23G26G16G20
 -23078749.60444 -17983416.05944  21125074.6874   21125075.2794
 -22785990.63344 -17755306.45644  20208663.1774   20208663.0744
  -3826757.96844  -2981888.00544  24292825.7034   24292829.2094
 -15150786.65444 -11805783.45544  22297106.9594   22297108.7064
 -11024189.97844  -8590263.17544  22605629.8374   22605630.6324
 -10225248.03844  -7967694.70144  23363537.7524   23363539.7974
 -11168056.53644  -8702379.83044  23013269.2114   23013272.3604
 95  6  1  1  2 30.0000000  0  7G17G 6G22G23G26G16G20
 -23112005.35444 -18009329.62444  21118746.3784   21118746.8914
 -22778727.96744 -17749647.24344  20210045.2424   20210045.0784
  -3885269.39144  -3027481.31844  24281691.1934   24281691.7634
 -15231902.98144 -11868990.95244  22281671.0264   22281672.5464
 -11075283.30344  -8630076.12244  22595906.9844   22595907.8824
 -10130198.43744  -7893630.09544  23381625.0514   23381626.1564
 -11068177.00944  -8624551.71244  23032275.5014   23032278.0884
 95  6  1  1  3  0.0000000  0  7G17G 6G22G23G26G16G20
 -23145086.96444 -18035107.49544  21112451.1454   21112451.6434
 -22771001.24344 -17743626.42844  20211515.5724   20211515.4724
  -3943372.66144  -3072756.59544  24270634.6074   24270635.9554
 -15312738.25144 -11931979.44344  22266288.5974   22266290.1954
 -11125974.54044  -8669575.74344  22586260.7924   22586261.3364
 -10034968.07544  -7819424.66544  23399746.8364   23399747.1534
 -10968164.60444  -8546620.06544  23051307.3174   23051310.1434
 95  6  1  1  3 30.0000000  0  7G17G 6G22G23G26G16G20
 -23177967.62544 -18060728.78644  21106194.1124   21106194.5774
 -22762812.86844 -17737245.88644  20213073.8664   20213073.6794
  -4001034.26244  -3117687.71044  24259661.7584   24259661.6494
 -15393278.42044 -11994737.97844  22250962.3344   22250963.7394
 -11176246.53444  -8708748.68344  22576694.4024   22576695.1254
  -9939553.74444  -7745075.84544  23417903.6574   23417904.9784
 -10867997.95444  -8468568.23044  23070368.5494   23070371.8904
 95  6  1  1  4  0.0000000  0  7G17G 6G22G23G26G16G20
 -23210616.49744 -18086169.46144  21099981.2494   21099981.7594
 -22754158.52244 -17730502.24644  20214720.6294   20214720.6874
  -4058249.07744  -3162270.69844  24248774.3924   24248773.3834
 -15473499.56044 -12057247.92144  22235696.6964   22235698.0724
 -11226100.53244  -8747595.91844  22567207.3244   22567208.5234
  -9843940.42144  -7670571.99544  23436098.2244   23436100.1374
 -10767676.85244  -8390396.02544  23089459.1094   23089461.1964
 95  6  1  1  4 30.0000000  0  7G17G 6G22G23G26G16G20
 -23243017.45644 -18111416.96244  21093815.4964   21093816.1584
 -22745015.55444 -17723377.86144  20216460.5154   20216460.4464
  -4115013.34044  -3206502.55244  24237972.4534   24237974.4124
 -15553382.60544 -12119494.41644  22220495.4314   22220497.0814
 -11275509.49044  -8786096.36644  22557805.2894   22557805.8154
  -9748112.82044  -7595901.15844  23454333.8484   23454335.1484
 -10667199.94544  -8312102.42544  23108579.3754   23108582.3454
 95  6  1  1  5  0.0000000  0  7G17G 6G22G23G26G16G20
 -23275185.74944 -18136483.16644  21087694.1144   21087694.6284
 -22735401.86444 -17715886.67944  20218290.0104   20218289.7744
  -4171325.34044  -3250382.02944  24227256.5344   24227257.4704
 -15632945.43644 -12181491.39344  22205354.9994   22205356.4194
 -11324498.50344  -8824269.59744  22548482.6864   22548483.0164
  -9652101.29344  -7521086.99844  23472604.1414   23472604.3544
 -10566596.64444  -8233710.34444  23127723.8544   23127726.2684
 95  6  1  1  5 30.0000000  0  8G17G 6G21G22G23G26G16G20
 -23307132.65844 -18161376.85644  21081614.7154   21081615.3564
 -22725306.87644 -17708020.46444  20220211.1084   20220210.9574
        -0.10054                  25586194.1844
  -4227180.11644  -3293905.20944  24216627.6044   24216627.0994
 -15712181.32344 -12243233.60544  22190276.9524   22190278.2734
 -11373072.91344  -8862119.74544  22539239.2384   22539240.0494
  -9555910.20244  -7446132.93644  23490908.8734   23490910.6874
 -10465876.20144  -8155226.97744  23146890.0444   23146891.6144
 95  6  1  1  6  0.0000000  0  8G17G 6G21G22G23G26G16G20
 -23338901.87944 -18186132.09144  21075569.2994   21075570.0314
 -22714746.64344 -17699791.72144  20222220.6494   20222220.3674
   -100531.71844    -78335.16444  25567063.4704
  -4282610.66444  -3337097.83144  24206079.5934   24206081.0154
 -15791110.62944 -12304736.92144  22175257.2504   22175258.5514
 -11421257.82844  -8899666.39844  22530070.0744   22530070.2574
  -9459569.29944  -7371062.13244  23509241.8094   23509242.8044
 -10365072.63244  -8076678.85144  23166072.3934   23166075.5464
 95  6  1  1  6 30.0000000  0  8G17G 6G21G22G23G26G16G20
 -23370497.17344 -18210751.79344  21069556.8704   21069557.2944
 -22703726.23344 -17691204.39844  20224317.6644   20224317.5664
   -201035.70444   -156649.73444  25547938.3004
  -4337607.68644  -3379952.63644  24195614.0224   24195616.2134
 -15869738.11644 -12366005.06344  22160294.9834   22160296.5604
 -11469029.06344  -8936890.69944  22520979.6594   22520980.2844
  -9363087.72544  -7295881.69644  23527601.6874   23527602.4224
 -10264178.27644  -7998059.97744  23185271.9364   23185275.1164
 95  6  1  1  7  0.0000000  0  8G17G 6G21G22G23G26G16G20
 -23401889.76744 -18235213.54544  21063583.1174   21063583.6374
 -22692233.76644 -17682249.23944  20226504.6264   20226504.6844
   -301486.49544                  25528822.8744
  -4392147.54844  -3422451.23544  24185235.4304   24185234.3994
 -15948035.03444 -12427015.61344  22145395.6384   22145396.9364
 -11516367.90844  -8973778.07744  22511971.1214   22511971.6754
  -9266456.16544  -7220584.42244  23545990.2144   23545991.5684
 -10163177.62944  -7919358.28044  23204492.1364   23204493.8314
 95  6  1  1  7 30.0000000  0  8G17G 6G21G22G23G26G16G20
 -23433080.13944 -18259517.72644  21057647.7484   21057648.1824
 -22680260.54644 -17672919.47044  20228783.0004   20228782.8784
   -401884.75144   -313155.03544  25509717.4964
  -4446234.40744  -3464596.81744  24174942.9814   24174943.1804
 -16025984.60144 -12487755.50344  22130562.4114   22130563.4404
 -11563256.11444  -9010314.30844  22503048.4224   22503048.7274
  -9169665.43344  -7145163.08944  23564408.7234   23564410.7914
 -10062071.44244  -7840574.36144  23223732.0784   23223733.7884
 95  6  1  1  8  0.0000000  0  8G 6G21G22G23G17G26G16G20
 -22667832.98844 -17663235.67144  20231147.9504   20231147.6894
   -502246.75444                  25490619.0974
  -4499884.86544  -3506402.32044  24164733.4984   24164735.9664
 -16103613.48244 -12548245.50444  22115789.8544   22115791.0364
 -23464077.44344 -18283671.46244  21051749.2214   21051749.6344
 -11609715.90044  -9046516.69944  22494207.6674   22494208.2584
  -9072751.63344  -7069645.87944  23582850.7184   23582852.1294
  -9960880.52144  -7761724.39244  23242988.1204   23242991.3184
 95  6  1  1  8 30.0000000  0  8G 6G21G22G23G17G26G16G20
 -22654915.06544 -17653169.76944  20233606.1694   20233606.1604
   -602524.29144                  25471536.8124
  -4553068.03444  -3547843.75944  24154612.9674   24154614.2214
 -16180881.47744 -12608454.29644  22101085.9234   22101087.2314
 -23494841.12444 -18307643.15844  21045895.0244   21045895.6064
 -11655723.09844  -9082366.43444  22485452.9534   22485452.6054
  -8975684.15644  -6994008.92544  23601322.1564   23601323.3654
  -9859578.37244  -7682787.76144  23262265.1924   23262268.5854
 95  6  1  1  9  0.0000000  0  8G 6G21G22G23G17G26G16G20
 -22641539.88944 -17642747.56944  20236151.3314   20236151.3304
   -702746.06944                  25452464.8084
  -4605813.61144  -3588944.16944  24144575.6334   24144580.4974
 -16257817.60444 -12668404.48844  22086445.5324   22086447.0984
 -23525412.31144 -18331464.85844  21040077.5484   21040078.2434
 -11701322.72844  -9117898.58044  22476775.1804   22476775.1624
  -8878492.96344  -6918275.55044  23619817.0004   23619820.1994
  -9758204.69644  -7603795.41544  23281555.8624   23281559.9314
 95  6  1  1  9 30.0000000  0  8G 6G21G22G23G17G26G16G20
 -22627679.70044 -17631947.43444  20238788.7824   20238788.7094
   -802887.27944   -625623.57144  25433408.6054
  -4658086.13444  -3629676.00244  24134628.6174   24134627.1354
 -16334408.48844 -12728085.65544  22071870.8904   22071872.3114
 -23555778.25844 -18355126.63544  21034299.1104   21034299.6434
 -11746491.66744  -9153095.13044  22468179.8414   22468180.2904
  -8781146.99644  -6842421.60044  23638341.3934   23638343.0654
  -9656725.45244  -7524720.79344  23300866.5684   23300869.5604
 95  6  1  1 10  0.0000000  0  8G 6G21G22G23G17G26G16G20
 -22613308.81344 -17620749.35144  20241523.5554   20241523.3994
   -902912.73644                  25414373.9224
  -4709855.36944  -3670015.63644  24124777.3784   24124777.0164
 -16410631.53744 -12787480.20444  22057366.1324   22057367.4664
 -23585911.03044 -18378606.70844  21028565.0174   21028565.5274
 -11791205.61844  -9187937.13644  22459671.2594   22459671.8584
  -8683619.85344  -6766426.46244  23656900.0784   23656903.1214
  -9555103.64644  -7445535.07944  23320204.6884   23320207.6164
 95  6  1  1 10 30.0000000  0  8G 6G21G22G23G17G26G16G20
 -22598451.88644 -17609172.53844  20244350.8484   20244350.5574
  -1002842.62344   -781432.49244  25395357.2334
  -4761156.70744  -3709990.67644  24115014.9824   24115013.4744
 -16486513.26844 -12846608.79144  22042926.2134   22042927.7824
 -23615847.05844 -18401933.48344  21022868.2524   21022868.7504
 -11835466.41844  -9222426.03744  22451248.5204   22451249.2124
  -8585919.93444  -6690296.70244  23675491.8894   23675493.4314
  -9453364.29744  -7366257.77644  23339565.3224   23339569.3594
 95  6  1  1 11  0.0000000  0  8G 6G21G22G23G17G26G16G20
 -22583106.56344 -17597215.16244  20247270.8494   20247270.7604
  -1102675.80144                  25376359.2694
  -4811981.98544  -3749594.77444  24105343.3344   24105342.1134
 -16562063.90144 -12905479.38944  22028549.2864   22028550.6214
 -23645583.47344 -18425104.71744  21017209.7234   21017210.1984
 -11879251.22544  -9256544.04644  22442916.4114   22442917.0844
  -8488044.91444  -6614030.49544  23694116.9974   23694119.3404
  -9351497.17244  -7286880.90944  23358950.1984   23358954.9824
 95  6  1  1 11 30.0000000  0  8G 6G21G22G23G17G26G16G20
 -22567293.80944 -17584893.55544  20250279.8964   20250279.7374
  -1202451.22344   -936971.12544  25357372.5324
  -4862383.34844  -3788868.57244  24095752.3974   24095753.8614
 -16637314.58444 -12964116.25544  22014229.7104   22014230.8474
 -23675148.30844 -18448142.25044  21011583.7434   21011584.2804
 -11922596.62944  -9290319.66844  22434668.1884   22434669.1774
  -8390043.92244  -6537666.13144  23712766.0794   23712767.1744
  -9249542.25244  -7207435.64044  23378351.9464   23378356.3144
 95  6  1  1 12  0.0000000  0  8G 6G21G22G23G17G26G16G20
 -22551002.92844 -17572199.37344  20253379.9924   20253379.9574
  -1302146.71944  -1014655.68944  25338400.8784
  -4912361.31344  -3827812.43744  24086241.8914   24086243.5684
 -16712235.56544 -13022496.20944  21999972.6634   21999974.1834
 -23704518.30644 -18471027.96244  21005994.7664   21005995.5744
 -11965476.34044  -9323732.39944  22426508.6234   22426508.1594
  -8291907.11744  -6461195.96544  23731440.9744   23731440.9414
  -9147494.17144  -7127917.78444  23397771.1364   23397774.1434
 95  6  1  1 12 30.0000000  0  8G 6G21G22G23G17G26G16G20
 -22534237.63444 -17559135.53144  20256570.4184   20256570.1154
  -1401769.96444  -1092283.95544  25319442.9144
  -4961919.42744  -3866429.14944  24076811.4644   24076812.5064
 -16786824.81644 -13080617.65944  21985778.6224   21985779.2594
 -23733695.30344 -18493763.28044  21000442.5174   21000443.0314
 -12007893.79744  -9356784.93244  22418436.6264   22418436.3784
  -8193641.84544  -6384625.68144  23750140.0764   23750140.7714
  -9045375.06544  -7048344.58944  23417203.9344   23417207.1474
 95  6  1  1 13  0.0000000  0  8G 6G21G22G23G17G26G16G20
 -22517004.21144 -17545706.91344  20259849.7854   20259849.6194
  -1501330.11344  -1169862.98644  25300497.1104
  -5011049.77844  -3904712.52644  24067462.2464   24067462.2814
 -16861076.05744 -13138475.73944  21971649.2004   21971650.0094
 -23762682.05544 -18516350.35744  20994926.6634   20994927.0114
 -12049876.26244  -9389498.51644  22410447.5294   22410447.9054
  -8095272.46344  -6307974.28044  23768859.2334   23768860.2924
  -8943202.90444  -6968730.05444  23436646.6994   23436649.3304
 95  6  1  1 13 30.0000000  0  8G 6G21G22G23G17G26G16G20
 -22499293.45844 -17531906.34144  20263219.9904   20263219.9954
  -1600814.94744  -1247383.37944  25281565.6334
  -5059742.46844  -3942654.90044  24058196.2684   24058197.7944
 -16934968.58644 -13196054.30144  21957587.9824   21957589.0094
 -23791461.78844 -18538776.11444  20989449.9744   20989450.4464
 -12091411.88044  -9421863.91344  22402543.5834   22402543.8594
  -7996781.58444  -6231228.21244  23787601.5104   23787602.5094
  -8840971.45144  -6889069.31044  23456100.9224   23456103.9074
 95  6  1  1 14  0.0000000  0  8G 6G21G22G23G17G26G16G20
 -22481096.20544 -17517726.68044  20266682.7914   20266682.6434
  -1700204.95444                  25262652.2774
  -5107962.71744  -3980229.11244  24049020.3154   24049019.9694
 -17008499.66044 -13253351.20544  21943595.3804   21943596.8624
 -23820036.20644 -18561041.89744  20984012.3574   20984013.0194
 -12132469.06044  -9453856.49044  22394730.5344   22394731.1504
  -7898147.94444  -6154370.90444  23806370.8374   23806371.5714
  -8738668.09144  -6809352.54744  23475568.7244   23475571.6494
 95  6  1  1 14 30.0000000  0  8G 6G21G22G23G17G26G16G20
 -22462422.34644 -17503175.63644  20270236.3724   20270236.2164
  -1799517.69644                  25243753.7604
  -5155708.03644  -4017433.24744  24039934.4964   24039936.3814
 -17081691.91244 -13310384.09844  21929667.3884   21929668.8224
 -23848423.75644 -18583162.07044  20978610.5004   20978610.9364
 -12173069.65244  -9485493.29044  22387004.6284   22387004.9624
  -7799402.74944  -6077426.67344  23825161.4034   23825161.5584
  -8636304.21044  -6729588.62344  23495047.9464   23495051.0564
 95  6  1  1 15  0.0000000  0  8G 6G21G22G23G17G26G16G20
 -22443262.81444 -17488246.15344  20273882.3034   20273882.1544
  -1898755.04544  -1479543.81744  25224869.0644
  -5202974.02544  -4054263.90544  24030939.9994   24030942.4874
 -17154547.31444 -13367154.51544  21915803.3634   21915804.7404
 -23876621.77544 -18605134.54744  20973244.6074   20973245.0664
 -12213212.08044  -9516773.07644  22379365.6704   22379366.1164
  -7700553.41644  -6000401.27344  23843971.9804   23843972.5374
  -8533875.21444  -6649773.95144  23514539.5154   23514541.7024
 95  6  1  1 15 30.0000000  0  8G 6G21G22G23G17G26G16G20
 -22423587.58744 -17472914.83144  20277626.3564   20277626.1014
  -1997891.27544  -1556792.57544  25206004.1244
  -5249738.95644  -4090704.10244  24022040.8864   24022039.7464
 -17227040.83844 -13423642.95044  21902008.1704   21902009.5524
 -23904606.32544 -18626940.69544  20967919.3014   20967919.8084
 -12252859.90444  -9547667.46044  22371820.8624   22371821.2784
  -7601576.10744  -5923276.18744  23862806.8354   23862808.8314
  -8431358.10844  -6569890.64344  23534048.1244   23534050.5684
 95  6  1  1 16  0.0000000  0  8G 6G21G22G23G17G26G16G20
 -22403406.07844 -17457189.00244  20281466.8804   20281466.8224
  -2096931.88144  -1633966.81844  25187157.4034   25187161.8564
  -5295991.95244  -4126745.39844  24013239.3544   24013239.0814
 -17299173.11644 -13479849.89944  21888281.6574   21888283.3514
 -23932392.09744 -18648591.95344  20962631.7174   20962632.3484
 -12292029.38644  -9578189.10844  22364367.2704   22364367.8714
  -7502491.39944  -5846067.39844  23881662.1824   23881664.3524
  -8328776.39344  -6489956.99144  23553568.8534   23553571.9594
 95  6  1  1 16 30.0000000  0  8G 6G21G22G23G17G26G16G20
 -22382723.21744 -17441072.49444  20285402.6934   20285402.5514
  -2195882.69044  -1711071.16544  25168327.5984
  -5341744.28244  -4162396.56144  24004533.0284   24004533.6144
 -17370930.56744 -13535764.76944  21874626.8734   21874627.9094
 -23959968.36744 -18670079.95444  20957384.0744   20957384.5924
 -12330729.77144  -9608345.22844  22357002.6814   22357002.6954
  -7403304.65644  -5768779.11144  23900536.7944   23900538.3874
  -8226146.42244  -6409985.72544  23573098.5184   23573102.2114
 95  6  1  1 17  0.0000000  0  8G 6G21G22G23G17G26G16G20
 -22361550.22044 -17424574.06844  20289431.6594   20289431.4084
  -2294754.98944                  25149512.4704
  -5387008.40544  -4197667.28344  23995918.8874   23995918.9874
 -17442315.92644 -13591389.68144  21861042.6964   21861043.8974
 -23987344.29344 -18691411.83944  20952174.7444   20952175.2164
 -12368957.51344  -9638133.05244  22349728.1914   22349728.2444
  -7303995.87644  -5691395.72644  23919434.6654   23919436.7314
  -8123482.96744  -6329988.36844  23592634.8514   23592637.9894
 95  6  1  1 17 30.0000000  0  8G 6G21G22G23G17G26G16G20
 -22339890.38444 -17407696.29444  20293553.4024   20293553.2124
  -2393524.75344  -1865077.46744  25130716.5804
  -5431779.96144  -4232554.20944  23987399.5154   23987399.0824
 -17513327.22044 -13646723.11344  21847529.6194   21847531.1304
 -24014524.20744 -18712590.98844  20947002.5854   20947002.9334
 -12406703.25944  -9667545.30844  22342545.4144   22342545.3434
  -7204550.25044  -5613905.68744  23938358.3704   23938359.6134
  -8020777.98044  -6249958.66944  23612178.8604   23612182.0634
 95  6  1  1 18  0.0000000  0  7G 6G22G23G17G26G16G20
 -22317751.05944 -17390444.88144  20297766.4354   20297766.1184
  -5476072.54244  -4267067.89044  23978971.3254   23978972.9624
 -17583972.54544 -13701771.37844  21834086.1444   21834087.4184
 -24041512.76644 -18733621.03844  20941866.7664   20941867.2064
 -12443971.85544  -9696585.75044  22335453.3404   22335452.7924
  -7104964.47544  -5536306.50444  23957309.0224   23957310.5414
  -7918033.28544  -6169898.01544  23631730.7464   23631733.8034
 95  6  1  1 18 30.0000000  0  8G 6G21G22G23G17G26G16G20
 -22295114.76944 -17372806.23244  20302073.9214   20302073.5344
        -0.60854                  25093186.0924
  -5519889.72444  -4301211.15044  23970633.0644   23970634.9424
 -17654255.82044 -13756537.53244  21820711.7144   21820713.1914
 -24068286.76044 -18754483.89944  20936771.7134   20936772.3854
 -12480748.75944  -9725243.05244  22328455.0444   22328454.5204
  -7005222.65044  -5458585.63044  23976289.4124   23976288.5084
  -7815223.74244  -6089786.85444  23651295.0714   23651297.9734
 95  6  1  1 19  0.0000000  0  8G 6G21G22G23G17G26G16G20
 -22272000.85044 -17354795.40744  20306472.3914   20306472.1944
    -98442.77544                  25074453.5504
  -5563233.76344  -4334985.71144  23962384.8564   23962387.3984
 -17724205.89144 -13811044.05144  21807400.6084   21807401.5304
 -24094865.08044 -18775194.28144  20931714.1484   20931714.6464
 -12517051.27444  -9753530.70344  22321547.0084   22321547.5184
  -6905347.30344  -5380760.77144  23995295.0344   23995296.6674
  -7712357.72944  -6009631.66644  23670870.0154   23670872.8714
 95  6  1  1 19 30.0000000  0  8G 6G21G22G23G17G26G16G20
 -22248441.53044 -17336437.50944  20310955.6504   20310955.6574
   -196793.63544                  25055738.3704
  -5606133.56144  -4368414.12344  23954221.2644   23954221.9034
 -17793841.16944 -13865305.27144  21794149.4454   21794150.2204
 -24121274.60744 -18795773.12944  20926688.6024   20926689.1504
 -12552902.11544  -9781466.40344  22314724.6764   22314724.0764
  -6805396.88244  -5302877.37644  24014314.9254   24014315.3984
  -7609471.70044  -5929460.89844  23690448.6224   23690451.1304
 95  6  1  1 20  0.0000000  0  8G 6G21G22G23G17G26G16G20
 -22224404.21244 -17317707.14744  20315529.7924   20315529.7854
   -295039.52844                  25037042.4354
  -5648559.73844  -4401473.49144  23946147.6064   23946148.4644
 -17863129.89744 -13919296.45544  21780964.2474   21780965.1254
 -24147476.48044 -18816190.17644  20921702.5134   20921702.9564
 -12588264.34944  -9809021.35744  22307995.4824   22307995.7044
  -6705353.30944  -5224921.42144  24033352.6344   24033354.7564
  -7506547.81344  -5849260.59844  23710034.3794   23710036.5934
 95  6  1  1 20 30.0000000  0  8G 6G21G22G23G17G26G16G20
 -22199922.47244 -17298630.47844  20320188.5904   20320188.6224
   -393216.16844                  25018359.9954
  -5690529.14444  -4434176.92344  23938161.7034   23938162.8414
 -17932098.86644 -13973038.48544  21767839.9124   21767840.8924
 -24173504.85644 -18836472.03444  20916749.4354   20916749.9874
 -12623166.26044  -9836217.63644  22301353.7304   22301354.0894
  -6605257.19544  -5146924.47844  24052400.3984   24052407.1274
  -7403623.75844  -5769060.18944  23729620.5174   23729623.7684
 95  6  1  1 21  0.0000000  0  8G 6G21G22G23G17G26G16G20
 -22174967.67544 -17279185.19544  20324937.2364   20324937.2124
   -491300.99944   -382830.96744  24999694.9664
  -5732017.94144  -4466505.83244  23930266.4864   23930266.1254
 -18000689.86144 -14026485.98544  21754787.5114   21754788.4784
 -24199352.76344 -18856613.25944  20911830.7694   20911831.3194
 -12657564.76344  -9863021.63644  22294807.8764   22294808.5724
  -6505083.20844  -5068866.86844  24071463.0354   24071464.8064
  -7300680.07244  -5688844.50644  23749210.1724   23749213.5874
 95  6  1  1 21 30.0000000  0  8G23G 6G21G22G17G26G16G20
 -18068892.72444 -14079631.03544  21741808.7544   21741809.7984
 -22149536.48244 -17259368.68944  20329776.6244   20329776.5564
   -589296.85844   -459191.18244  24981046.1784   24981049.4184
  -5773049.80344  -4498478.65844  23922458.1544
 -24225008.65244 -18876604.86544  20906948.6884   20906949.0494
 -12691453.02944  -9889428.06444  22288359.0204   22288359.9244
  -6404828.86544  -4990746.62744  24090540.7084   24090543.2504
  -7197719.73544  -5608615.81744  23768802.9704   23768805.6734
 95  6  1  1 22  0.0000000  0  8G23G 6G21G22G17G26G16G20
 -18136700.06044 -14132467.89344  21728905.4684   21728906.6124
 -22123593.39744 -17239153.31044  20334713.4914   20334713.3444
   -687178.84644   -535462.62544  24962419.8284
  -5813593.39844  -4530071.10044  23914742.3704   23914744.8834
 -24250436.43444 -18896418.72244  20902109.8694   20902110.3734
 -12724826.13044  -9915433.06244  22282008.4114   22282009.3164
  -6304452.81244  -4912531.56044  24109641.6884   24109643.3134
  -7094714.12044  -5528351.87544  23788404.3374   23788409.6314
 95  6  1  1 22 30.0000000  0  8G23G 6G21G22G17G26G16G20
 -18204102.61844 -14184989.33244  21716079.0784   21716080.3044
 -22097137.94544 -17218538.68744  20339747.6774   20339747.5584
   -784918.53044                  24943820.2384
  -5853631.78744  -4561269.84244  23907123.3444   23907126.4704
 -24275628.00044 -18916048.52244  20897316.0434   20897316.6204
 -12757685.78544  -9941037.96144  22275755.4174   22275755.8134
  -6203948.79844  -4834216.77044  24128766.9604   24128765.7894
  -6991654.40644  -5448045.75844  23808016.0934   23808018.9344
 95  6  1  1 23  0.0000000  0  8G23G 6G21G22G17G26G16G20
 -18271171.63744 -14237250.87644  21703316.2274   21703317.5134
 -22070231.64544 -17197572.75244  20344867.8654   20344867.8114
   -882565.29144                  24925238.7724
  -5893238.37444  -4592132.10744  23899586.9874   23899587.0784
 -24300632.11144 -18935532.24244  20892557.8614   20892558.5224
 -12790090.39944  -9966288.29244  22269589.0484   22269589.5094
  -6103386.10844  -4755856.29044  24147903.6154   24147905.6544
  -6888606.14044  -5367748.59044  23827625.6424   23827629.1844
 95  6  1  1 23 30.0000000  0  8G23G 6G21G22G17G26G16G20
 -18337913.60544 -14289257.57644  21690615.6384   21690617.2054
 -22042846.59544 -17176233.76844  20350079.1724   20350079.1074
   -980079.00244                  24906682.7604
  -5932371.58144  -4622625.52344  23892140.5014   23892142.7194
 -24325401.84844 -18954833.33044  20887844.4414   20887845.0994
 -12822018.71744  -9991167.47344  22263513.2414   22263513.7434
  -6002735.99744  -4677427.65944  24167056.7364   24167059.0824
  -6785535.51744  -5287433.97944  23847239.5744   23847245.4784
 95  6  1  1 24  0.0000000  0  8G23G26G 6G21G22G17G16G20
 -18404315.82244 -14340999.54244  21677979.7344   21677980.9394
 -12853451.87544 -10015660.81844  22257531.7544   22257531.7024
 -22014953.32144 -17154498.76644  20355387.0764   20355386.7784
  -1077430.08744                  24888157.2384
  -5970997.90044  -4652723.94344  23884789.8764   23884790.1744
 -24349946.04144 -18973958.67044  20883173.8534   20883174.3674
  -5901992.38944  -4598926.17944  24186227.5104   24186228.0654
  -6682431.06044  -5207092.98444  23866859.9634   23866864.9294
 95  6  1  1 24 30.0000000  0  8G23G26G 6G21G22G17G16G20
 -18470364.47444 -14392465.99244  21665411.0364   21665411.8984
 -12884367.16844 -10039750.63244  22251648.7124   22251649.1604
 -21986560.10444 -17132374.19544  20360790.0214   20360789.9594
  -1174638.48644   -915300.24444  24869659.2544
  -6009126.01844  -4682434.11844  23877533.9214   23877535.9464
 -24374287.62544 -18992926.13544  20878541.7544   20878542.1084
  -5801183.35544  -4520373.73444  24205410.9404   24205414.1204
  -6579308.39444  -5126737.83644  23886483.6614   23886487.0934
 95  6  1  1 25  0.0000000  0  8G23G26G 6G21G22G17G16G20
 -18536068.07544 -14443663.57644  21652908.1314   21652908.7524
 -12914764.84044 -10063437.10644  22245864.3384   22245864.8704
 -21957657.78944 -17109852.93144  20366290.0694   20366289.8674
  -1271737.28344   -990961.40644  24851181.7114
  -6046777.94144  -4711773.27244  23870369.4674   23870369.7134
 -24398445.63444 -19011750.55044  20873944.5804   20873944.8974
  -5700325.97644  -4441783.62644  24224603.3704   24224604.5534
  -6476182.58744  -5046380.22744  23906107.8664   23906110.5084
 95  6  1  1 25 30.0000000  0  8G23G26G 6G21G22G17G16G20
 -18601386.36644 -14494560.91244  21640478.5164   21640479.4474
 -12944623.62544 -10086703.67244  22240182.3234   22240182.7344
 -21928207.44244 -17086904.62644  20371894.2694   20371894.0584
  -1368712.77644                  24832727.5124
  -6083907.58244  -4740705.47644  23863304.0214   23863303.6624
 -24422414.18244 -19030427.34144  20869383.5694   20869384.0484
  -5599383.91044  -4363127.51944  24243812.1534   24243811.7084
  -6373035.48744  -4966006.05544  23925736.1984   23925740.7594
 95  6  1  1 26  0.0000000  0  8G23G26G 6G21G22G17G16G20
 -18666312.47344 -14545152.65244  21628123.2604   21628124.8564
 -12973969.95544 -10109570.92444  22234597.8204   22234598.5644
 -21898234.88144 -17063549.40144  20377597.8564   20377597.6634
  -1465605.57044                  24814289.0514
  -6120544.47544  -4769253.66744  23856331.9104   23856334.6904
 -24446230.36544 -19048985.39744  20864851.4104   20864851.9634
  -5498390.44244  -4284431.35744  24263030.4464   24263031.9404
  -6269902.49044  -4885642.83544  23945361.6724   23945364.9244
 95  6  1  1 26 30.0000000  0  8G23G26G 6G21G22G17G16G20
 -18730843.74844 -14595436.72944  21615843.3864   21615844.2924
 -13002804.54544 -10132039.41444  22229110.9814   22229110.6794
 -21867756.82244 -17039800.27844  20383397.6474   20383397.7154
  -1562432.47344  -1217476.54844  24795863.5004
  -6156692.72944  -4797421.15344  23849452.9454   23849452.6984
 -24469882.86644 -19067415.91644  20860350.5244   20860351.0804
  -5397333.53944  -4205685.74244  24282261.2944   24282262.6204
  -6166792.16044  -4805297.31044  23964982.8914   23964986.5584
 95  6  1  1 27  0.0000000  0  8G23G 6G21G22G17G26G16G20
 -18794972.49444 -14645407.14544  21603640.2184   21603641.2944
 -21836759.85544 -17015646.80844  20389296.1064   20389296.1024
  -1659147.71444  -1292838.85344  24777458.8364
  -6192331.31844  -4825191.50044  23842671.8004   23842670.1824
 -24493350.26344 -19085702.19344  20855884.9044   20855885.6154
 -13031124.14644 -10154106.60244  22223721.8044   22223721.6184
  -5296165.39544  -4126853.45544  24301512.7504   24301515.9264
  -6063679.80644  -4724950.22344  23984604.7244   23984607.4214
 95  6  1  1 27 30.0000000  0  8G23G26G 6G21G22G17G16G20
 -18858704.04344 -14695068.06344  21591512.4274   21591513.0644
 -13058937.37044 -10175779.22544  22218428.8954   22218429.4684
 -21805269.96944 -16991109.25344  20395288.5924   20395288.7524
  -1755730.88644                  24759079.7244
  -6227458.72444  -4852563.48144  23835987.4984   23835987.4504
 -24516625.02944 -19103838.36644  20851455.8994   20851456.3354
  -5194882.89444  -4047932.10644  24320786.3104   24320790.4774
  -5960567.39444  -4644603.04044  24004226.4784   24004232.7494
 95  6  1  1 28  0.0000000  0  8G23G26G 6G21G22G17G16G20
 -18922055.49644 -14744432.80244  21579456.8424   21579457.8854
 -13086240.48144 -10197054.35644  22213233.4714   22213233.5884
 -21773309.42344 -16966204.94444  20401370.4694   20401370.5364
  -1852165.18244                  24740728.6814
  -6262093.67844  -4879551.75744  23829396.2694   23829398.2754
 -24539691.84044 -19121812.49344  20847066.3574   20847066.9534
  -5093500.69144  -3968933.02344  24340078.7464   24340080.0854
  -5857456.08044  -4564256.77144  24023848.3114   24023853.9744
 95  6  1  1 28 30.0000000  0  8G23G26G 6G21G22G17G16G20
 -18985074.25444 -14793538.29444  21567464.7934   21567465.5924
 -13113058.74644 -10217951.67144  22208130.1094   22208130.0804
 -21740905.69544 -16940955.30144  20407536.6144   20407536.7704
  -1948462.83944  -1518278.62944  24722403.9544
  -6296255.56544  -4906171.41344  23822895.2374   23822897.5254
 -24562571.35944 -19139640.68844  20842712.4584   20842712.8784
  -4992053.84844  -3889883.57244  24359383.2144   24359387.4934
  -5754380.68244  -4483938.45244  24043462.8084   24043465.7984
 95  6  1  1 29  0.0000000  0  8G23G26G 6G21G22G17G16G20
 -19047741.29544 -14842369.72744  21555539.7014   21555540.3904
 -13139377.90444 -10238460.08144  22203121.5804   22203121.8464
 -21708034.85544 -16915341.68244  20413791.7614   20413791.9794
  -2044597.49244  -1593188.56144  24704110.0914   24704113.5724
  -6329922.61844  -4932405.43844  23816488.8244   23816490.1184
 -24585239.87044 -19157304.46444  20838398.9004   20838399.2524
  -4890535.85044  -3810778.67544  24378701.6594   24378705.8214
  -5651325.72244  -4403636.08844  24063073.8924   24063076.0154
 95  6  1  1 29 30.0000000  0  8G23G26G 6G21G22G17G16G20
 -19110034.78444 -14890910.07944  21543685.5424   21543686.6804
 -13165158.88944 -10258549.13744  22198215.5654   22198215.9124
 -21674663.58144 -16889338.10644  20420142.2174   20420142.1614
  -2140559.53244  -1667963.98244  24685848.9154
  -6363064.03944  -4958229.92744  23810182.1664   23810182.5574
 -24607672.46144 -19174784.40244  20834130.2164   20834130.6254
  -4788951.84444  -3731622.38544  24398032.3534   24398031.8114
  -5548279.77544  -4323340.76844  24082683.1704   24082686.9034
 95  6  1  1 30  0.0000000  0  8G23G26G 6G21G22G17G16G20
 -19171960.54944 -14939163.89044  21531901.5634   21531902.6084
 -13190399.31244 -10278216.96844  22193412.7104   22193412.6574
 -21640790.63744 -16862943.62144  20426588.0294   20426588.0364
  -2236383.45444  -1742631.81244  24667613.9304   24667615.9394
  -6395680.46044  -4983645.30644  23803974.8904   23803975.2694
 -24629895.55544 -19192101.09244  20829901.2254   20829901.6774
  -4687326.45344  -3652433.82244  24417371.0784   24417375.5084
  -5445263.86244  -4243068.78744  24102286.4654   24102289.2004
 95  6  1  1 30 30.0000000  0  8G23G26G 6G21G22G17G16G20
 -19233520.62044 -14987132.75044  21520187.1024   21520188.3104
 -13215106.58844 -10297469.36544  22188711.0904   22188711.2794
 -21606418.14244 -16836159.87544  20433128.6724   20433128.8094
  -2332103.07544                  24649398.8174
  -6427776.14444  -5008654.92544  23797866.9884   23797870.1424
 -24651930.50844 -19209271.18344  20825707.9914   20825708.5184
  -4585670.13944  -3573221.17044  24436715.4374   24436716.5324
  -5342289.69544  -4162829.38544  24121881.7784   24121884.1154
 95  6  1  1 31  0.0000000  0  8G23G26G 6G21G22G17G16G20
 -19294694.13444 -15034800.39844  21508546.0564   21508547.1584
 -13239256.96444 -10316287.80844  22184115.2654   22184115.1534
 -21571528.49144 -16808973.15044  20439768.1384   20439768.0304
  -2427713.01044  -1891719.39844  24631204.3444
  -6459344.14344  -5033253.33644  23791860.3894   23791862.3434
 -24673753.90544 -19226276.42344  20821555.1584   20821555.7304
  -4483963.11244  -3493968.97544  24456070.0014   24456068.1964
  -5239333.32044  -4082603.86144  24141473.9294
 95  6  1  1 31 30.0000000  0  8G23G26G 6G21G22G17G16G20
 -19355548.61844 -15082219.44744  21496965.7884   21496967.0214
 -13262910.43944 -10334719.06944  22179614.1294   22179614.4444
 -21536187.52444 -16781434.75144  20446493.3014   20446493.2624
  -2523272.53544                  24613020.0074
  -6490447.82844  -5057489.97644  23785941.7954   23785944.4174
 -24695435.65044 -19243171.28144  20817429.2664   20817429.8104
  -4382280.24244  -3414735.63844  24475419.7634   24475422.0844
  -5136442.04544  -4002429.00444  24161053.2954
 95  6  1  1 32  0.0000000  0  8G23G26G 6G21G22G17G16G20
 -19416071.85344 -15129380.37044  21485448.6094   21485449.7644
 -13286080.25644 -10352773.44344  22175205.2834   22175205.7224
 -21500403.27744 -16753550.94144  20453302.8204   20453302.9214
  -2618769.39144  -2040594.10344  24594847.4214
  -6521107.18944  -5081380.39444  23780107.4514   23780108.9504
 -24716962.05844 -19259945.10244  20813332.9434   20813333.3274
  -4280619.88344  -3335519.78844  24494764.8574   24494767.6544
  -5033605.87444  -3922297.12544  24180622.5064   24180624.4904
 95  6  1  1 32 30.0000000  0  8G23G26G 6G21G22G17G16G20
 -19476158.45444 -15176201.06844  21474014.5174   21474015.3074
 -13308678.80144 -10370382.67944  22170904.6904   22170904.8554
 -21464080.64644 -16725247.61144  20460214.7784   20460214.8264
  -2714082.86144  -2114864.13344  24576709.8644   24576713.9564
  -6551250.42144  -5104868.62744  23774371.5334   23774371.6374
 -24738213.90444 -19276504.97044  20809288.8274   20809289.2684
  -4178877.25244  -3256239.88344  24514126.2414   24514128.2744
  -4930726.64544  -3842131.67644  24200199.9214   24200204.3364
 95  6  1  1 33  0.0000000  0  8G23G26G 6G21G22G17G16G20
 -19535831.57444 -15222699.57744  21462659.0114   21462660.1324
 -13330733.43344 -10387568.08444  22166707.6504   22166708.0794
 -21427245.64444 -16696545.02844  20467224.2854   20467224.3924
  -2809214.04144  -2188992.17744  24558607.1384   24558610.7264
  -6580905.83544  -5127976.73544  23768728.4124   23768730.5534
 -24759220.46144 -19292873.70844  20805291.4144   20805291.9004
  -4077077.25144  -3176915.24944  24533498.0824   24533499.3164
  -4827844.38844  -3761963.92644  24219777.8964   24219782.8654
 95  6  1  1 33 30.0000000  0  8G23G26G 6G21G22G17G16G20
 -19595112.44544 -15268892.44344  21451378.2604   21451379.3184
 -13352274.08044 -10404352.98544  22162608.6004   22162609.0264
 -21389932.86444 -16667470.14844  20474324.6964   20474324.7094
  -2904174.06144  -2262986.81644  24540536.6804   24540543.7214
  -6610099.51944  -5150725.09144  23763173.0714   23763173.4494
 -24780026.04644 -19309085.84344  20801332.2524   20801332.7304
  -3975245.54644  -3097565.90344  24552876.0684   24552878.1214
  -4725016.93144  -3681838.82844  24239345.2324   24239350.8264
 95  6  1  1 34  0.0000000  0  8G23G26G 6G21G22G17G16G20
 -19653983.33444 -15314765.82844  21440175.5164   21440176.2074
 -13373290.95444 -10420729.77544  22158609.3854   22158609.7954
 -21352137.91144 -16638019.55144  20481516.9474   20481516.8414
  -2998966.44644  -2336850.81644  24522498.2654   24522501.2624
  -6638821.60844  -5173105.92544  23757707.3894   23757707.3864
 -24800625.96744 -19325137.72444  20797412.2214   20797412.9004
  -3873355.72344  -3018171.26844  24572264.8944   24572266.4774
  -4622266.39744  -3601773.69844  24258898.4334   24258905.5044
 95  6  1  1 34 30.0000000  0  8G23G26G 6G21G22G17G16G20
 -19712432.53344 -15360310.62144  21429052.9254   21429053.6664
 -13393759.21044 -10436679.02444  22154714.3404   22154714.7864
 -21313846.48744 -16608182.09044  20488803.5174   20488803.3464
  -3093587.88844  -2410581.60144  24504491.7304   24504498.0804
  -6667030.49444  -5195086.89244  23752339.0824   23752339.6704
 -24821029.06044 -19341036.23244  20793529.6014   20793530.0224
  -3771386.42844  -2938714.70644  24591668.8774   24591668.8554
  -4519591.16344  -3521767.21544  24278436.8844   24278442.0524
 95  6  1  1 35  0.0000000  0  8G23G26G 6G21G22G17G16G20
 -19770463.17044 -15405529.27344  21418010.0164   21418010.7854
 -13413674.29844 -10452197.21044  22150924.5104   22150924.8434
 -21275037.27544 -16577941.16544  20496188.6094   20496188.8284
  -3188032.61444  -2484174.72644  24486519.6184   24486522.6614
  -6694679.19444  -5216631.33044  23747077.8034   23747078.3184
 -24841247.22244 -19356790.64444  20789682.2444   20789682.6644
  -3669340.35444  -2859198.33544  24611087.6194   24611090.0384
  -4416975.86044  -3441807.45444  24297964.1514   24297967.9624
 95  6  1  1 35 30.0000000  0  8G23G26G 6G21G22G17G16G20
 -19828084.42144 -15450428.92144  21407045.0684   21407046.1194
 -13433043.14144 -10467289.79844  22147238.8494   22147238.3894
 -21235719.48044 -16547303.93844  20503670.5764   20503670.6544
  -3282321.57344  -2557646.47344  24468576.7424   24468580.1824
  -6721769.81344  -5237740.89844  23741922.6044   23741922.9104
 -24861279.93944 -19372400.54844  20785870.1014   20785870.5714
  -3567226.96544  -2779629.49944  24630519.6304   24630521.2784
  -4314399.08044  -3361877.70244  24317483.9634   24317489.2034
 95  6  1  1 36  0.0000000  0  8G23G26G 6G21G22G17G16G20
 -19885325.53344 -15495032.34944  21396152.5404   21396153.5324
 -13451887.35544 -10481973.58344  22143652.9774   22143652.4074
 -21195910.64344 -16516284.08444  20511245.9014   20511246.0894
  -3376490.68444  -2631024.85344  24450656.9494   24450657.9764
  -6748325.47744  -5258433.61544  23736868.9264   23736872.6334
 -24881139.53444 -19387875.55144  20782090.9924   20782091.3924
  -3465080.78944  -2700035.09444  24649957.3524   24649960.2874
  -4211852.05844  -3281971.15244  24336998.6594   24337004.8984
 95  6  1  1 36 30.0000000  0  8G23G26G 6G21G22G17G16G20
 -19942193.63344 -15539345.12244  21385330.7994   21385331.6154
 -13470197.22444 -10496240.98544  22140168.6654   22140169.0934
 -21155602.78744 -16484875.38444  20518916.2594   20518916.3734
  -3470526.56244  -2704299.37844  24432762.5074   24432765.3084
  -6774353.96244  -5278715.54944  23731915.9404   23731915.9034
 -24900818.08244 -19403209.48244  20778346.2614   20778346.5944
  -3362919.31044  -2620428.80744  24669398.0144   24669400.8384
  -4109315.38844  -3202072.67344  24356510.6004   24356519.0394
 95  6  1  1 37  0.0000000  0  8G23G26G 6G21G22G17G16G20
 -19998704.30044 -15583379.38444  21374577.1094   21374577.7024
 -13487979.07244 -10510096.94644  22136784.7124   22136785.0934
 -21114803.31244 -16453083.59944  20526680.0924   20526680.1384
  -3564437.54344  -2777476.59444  24414891.8424   24414894.0884
  -6799876.16544  -5298602.98144  23727059.1594   23727061.0534
 -24920307.44844 -19418395.99544  20774637.5634   20774638.0414
  -3260751.06544  -2540817.24944  24688839.9944   24688839.9664
  -4006801.04644  -3122191.56744  24376018.3864   24376024.2394
 95  6  1  1 37 30.0000000  0  8G23G26G 6G21G22G17G16G20
 -20054869.35144 -15627144.32444  21363889.2344   21363890.1354
 -13505236.57144 -10523544.32444  22133500.8124   22133501.2654
 -21073545.64944 -16420934.78244  20534531.3194   20534531.0154
  -3658243.50444  -2850571.96344  24397041.2324   24397047.0194
  -6824935.25044  -5318129.53744  23722290.7654   23722291.9594
 -24939613.50644 -19433439.66844  20770963.6694   20770964.1984
  -3158582.58944  -2461205.49144  24708281.8104   24708286.1604
  -3904339.46544  -3042351.61244  24395516.6704   24395521.1054
 95  6  1  1 38  0.0000000  0  8G23G26G 6G21G22G17G16G20
 -20110638.77044 -15670600.98844  21353276.5784   21353277.1474
 -13521927.13944 -10536549.92844  22130324.7774   22130324.8874
 -21031775.79144 -16388386.85644  20542479.9494   20542479.8884
  -3751889.93444  -2923543.05944  24379220.5074   24379223.9054
  -6849493.06644  -5337265.50244  23717617.7504   23717617.8674
 -24958699.62344 -19448311.96444  20767331.6544   20767332.1484
  -3056380.22844  -2381567.32244  24727730.2854   24727731.3464
  -3801924.66344  -2962548.09844  24415005.8374   24415011.8264
 95  6  1  1 38 30.0000000  0  8G23G26G 6G21G22G17G16G20
 -20166034.25044 -15713766.25444  21342735.2464   21342735.8804
 -13538074.82244 -10549132.51244  22127251.8054   22127252.1544
 -20989516.00144 -16355457.16944  20550521.6334   20550521.7914
  -3845395.96744  -2996404.75944  24361426.4614   24361429.5294
  -6873565.18944  -5356023.01244  23713037.0254   23713038.1394
 -24977601.57444 -19463040.74944  20763734.7944   20763735.3134
  -2954162.77144  -2301917.38244  24747181.7314   24747185.0074
  -3699609.80744  -2882822.47444  24434475.8134   24434480.2684
 95  6  1  1 39  0.0000000  0  8G23G26G 6G21G22G17G16G20
 -20221071.53544 -15756652.41144  21332262.0354   21332262.7214
 -13553707.96944 -10561314.16644  22124276.6964   22124276.3664
 -20946782.84844 -16322158.62344  20558653.4824   20558653.7964
  -3938767.50544  -3069161.65544  24343658.5054   24343662.3954
  -6897161.56844  -5374409.79144  23708546.6884   23708546.7354
 -24996345.24444 -19477646.20144  20760167.9894   20760168.5334
  -2851940.64444  -2222263.81444  24766634.0094   24766633.8024
  -3597428.48244                  24453908.4444
 95  6  1  1 39 30.0000000  0  8G23G26G 6G21G22G17G16G20
 -20275676.97844 -15799202.08944  21321870.8814   21321871.8394
 -13568754.82744 -10573038.96744  22121413.3154   22121413.6574
 -20903510.19644 -16288439.68744  20566888.0304   20566888.1324
  -4031922.04644  -3141749.45644  24325931.9184   24325933.7884
  -6920218.61644  -5392376.33244  23704159.0734   23704160.5324
 -25014866.93744 -19492078.68344  20756643.4964   20756644.0024
  -2749658.66044  -2142563.62344  24786097.8924   24786100.9624
  -3494608.53344                  24473357.1844
 95  6  1  1 40  0.0000000  0  7G23G26G21G22G 6G17G16
 -20329905.02144 -15841457.68544  21311551.4274   21311552.2904
 -13583248.31944 -10584332.56144  22118655.2044   22118655.1154
  -4124908.49344  -3214206.29244  24308237.0084   24308240.1634
  -6942771.86944  -5409950.32844  23699867.5144   23699866.9674
 -20859746.04044 -16254337.76244  20575216.0884   20575216.2734
 -25033215.10244 -19506375.94444  20753151.8684   20753152.4554
  -2647369.55344  -2062857.85044  24805562.6554
 95  6  1  1 40 30.0000000  0  7G23G26G 6G21G22G17G16
 -20383784.62844 -15883441.78744  21301298.5524   21301299.4044
 -13597203.44444 -10595206.66744  22115999.7254   22115999.8784
 -20815539.63244 -16219891.23644  20583628.1684   20583628.5294
  -4217755.26144  -3286554.27944  24290568.8544   24290571.7684
  -6964845.08044  -5427150.24344  23695667.1844   23695667.6264
 -25051406.34344 -19520550.93444  20749690.2734   20749690.5744
  -2545089.25644  -1983158.93744  24825025.9934
 95  6  1  1 41  0.0000000  0  8G23G26G 6G21G22G17G16G20
 -20437231.63044 -15925088.78844  21291127.9374   21291128.5744
 -13610544.88844 -10605602.57444  22113461.0124   22113461.3494
 -20770825.86244 -16185049.35244  20592136.8924   20592137.2104
  -4310394.64944  -3358740.67844  24272939.7454   24272942.7794
  -6986367.99844  -5443921.32544  23691571.2494   23691571.6774
 -25069351.13744 -19534533.88344  20746275.4614   20746275.8554
  -2442752.30544  -1903415.89644  24844500.1924
         0.05254         0.42454  24531545.0284   24531550.9324
 95  6  1  1 41 30.0000000  0  8G23G26G 6G21G22G17G16G20
 -20490286.89444 -15966430.52844  21281031.8904   21281032.4514
 -13623310.54944 -10615549.81844  22111031.7674   22111031.6194
 -20725655.18844 -16149851.44444  20600732.6474   20600732.7394
  -4402892.49344  -3430816.77844  24255337.8964   24255340.9584
  -7007379.16544  -5460293.66944  23687573.0874   23687574.3334
 -25087072.79144 -19548342.95744  20742903.0474   20742903.5084
  -2340413.53344  -1823671.44444  24863974.4974
    101796.84444     79322.33544  24550916.6214   24550917.8164
 95  6  1  1 42  0.0000000  0  8G23G26G 6G21G22G17G16G20
 -20542958.16044 -16007473.03644  21271008.8844   21271009.5854
 -13635527.37544 -10625069.39544  22108706.9494   22108707.4624
 -20680041.44144 -16114308.28944  20609412.7644   20609412.8964
  -4495279.02344  -3502806.16044  24237757.2244   24237760.9284
  -7027886.86644  -5476273.69144  23683670.6214   23683672.2004
 -25104588.97744 -19561991.92944  20739569.8534   20739570.4514
  -2238090.24144  -1743939.03044  24883445.8594   24883446.4134
    203490.25644    158563.74744  24570268.5154   24570274.3954
 95  6  1  1 42 30.0000000  0  8G23G26G 6G21G22G17G16G20
 -20595237.04044 -16048209.80544  21261060.4754   21261061.1524
 -13647229.65944 -10634188.03944  22106480.0094   22106479.9744
 -20633979.00744 -16078415.49944  20618178.1054   20618178.2814
  -4587556.90844  -3574710.86844  24220197.3624   24220201.4654
  -7047900.13944  -5491868.40944  23679861.8114   23679863.1184
 -25121899.52844 -19575480.66044  20736275.7584   20736276.2834
  -2135793.71944  -1664227.50544  24902912.6624   24902914.9144
    305074.57144    237720.11544  24589599.2124   24589604.7494
 95  6  1  1 43  0.0000000  0  8G23G26G 6G21G22G17G16G20
 -20647117.72144 -16088636.30244  21251187.9604   21251188.5244
 -13658407.87044 -10642898.31044  22104352.9254   22104352.6944
 -20587433.25944 -16042146.10744  20627035.6394   20627035.5444
  -4679708.18444  -3646516.93444  24202661.2934   24202663.3474
  -7067399.17044  -5507062.44844  23676151.3354   23676152.3674
 -25138992.71044 -19588800.01444  20733023.0714   20733023.5234
  -2033507.57044  -1584524.04044  24922376.9734
    406544.93244    316787.63244  24608907.9594   24608914.6344
 95  6  1  1 43 30.0000000  0  8G23G26G 6G21G22G17G16G20
 -20698598.00144 -16128750.78144  21241391.4604   21241392.3264
 -13669043.02844 -10651185.42444  22102329.2134   22102328.9654
 -20540377.86044 -16005479.58444  20635989.8214   20635989.8194
  -4771694.20344  -3718194.20444  24185156.7054   24185158.6194
  -7086381.94044  -5521854.21344  23672539.2424   23672540.0024
 -25155870.95544 -19601951.88844  20729811.1744   20729811.6464
  -1931207.64544  -1504809.86744  24941843.6894
    507909.86244    395773.08644  24628197.8624   24628202.8774
 95  6  1  1 44  0.0000000  0  8G23G26G 6G21G22G17G16G20
 -20749684.27744 -16168558.23744  21231670.0654   21231670.7434
 -13679141.52244 -10659054.36844  22100407.4464   22100407.8084
 -20492812.43044 -15968415.63344  20645041.2304   20645041.5014
  -4863510.59344  -3789739.34644  24167684.4414   24167688.4314
  -7104865.13444  -5536256.70044  23669021.9264   23669022.4794
 -25172569.55344 -19614963.77944  20726633.5604   20726634.0354
  -1828895.40844  -1425086.11044  24961313.5384
    609164.05344    474672.19744  24647466.0224
 95  6  1  1 44 30.0000000  0  8G23G26G 6G21G22G17G16G20
 -20800363.92544 -16208048.85244  21222026.1834   21222026.9374
 -13688669.02744 -10666478.37544  22098594.2844   22098593.9464
 -20444708.93444 -15930932.40844  20654195.0354   20654195.3794
  -4955121.95744  -3861124.69444  24150251.4924   24150252.7824
  -7122832.60344  -5550257.36244  23665603.2504   23665603.2324
 -25189064.47144 -19627816.96444  20723494.5724   20723495.2134
  -1726538.71544  -1345327.64544  24980790.9644
    710339.66144    553510.09044  24666719.5324   24666727.2924
 95  6  1  1 45  0.0000000  0  8G23G26G 6G21G22G17G16G20
 -20850649.69144 -16247232.54144  21212457.0384   21212457.6114
 -13697629.11244 -10673460.23644  22096889.3714   22096889.0294
 -20396090.67944 -15893048.07044  20663446.7734   20663447.1004
  -5046531.14644  -3932352.52144  24132856.9294   24132858.4744
  -7140300.82044  -5563868.99944  23662278.8374   23662278.3784
 -25205377.53244 -19640528.44144  20720390.3264   20720390.9044
  -1624152.65344  -1265546.30244  25000274.5304
    811423.25944    632276.27244  24685955.3094   24685962.5474
 95  6  1  1 45 30.0000000  0  8G23G26G 6G21G22G17G16G20
 -20900545.22844 -16286112.15644  21202962.1034   21202962.7114
 -13706037.01944 -10680011.83144  22095289.4244   22095289.5244
 -20346979.89044 -15854779.94044  20672792.3464   20672792.4594
  -5137757.49944  -4003437.89844  24115497.1904   24115497.4774
  -7157291.50344                  23659045.5154
 -25221521.93044 -19653108.48844  20717318.1584   20717318.6254
  -1521764.57744                  25019758.5094
    912404.77644    710962.91744  24705171.3614   24705178.0724
 95  6  1  1 46  0.0000000  0  8G23G26G 6G21G22G17G16G20
 -20950022.97244 -16324666.22844  21193546.5984   21193547.4594
 -13713868.12844 -10686113.97844  22093799.2864   22093799.2864
 -20297376.88044 -15816128.26444  20682231.3784   20682231.6634
  -5228803.67344  -4074382.81344  24098171.6594   24098173.9714
  -7173771.91144  -5589951.18044  23655909.6284   23655909.4564
 -25237463.84744 -19665530.75844  20714284.6144   20714284.9954
  -1419369.57944                  25039243.5844
   1013299.48344    789581.95944  24724370.9874
 95  6  1  1 46 30.0000000  0  8G23G26G 6G21G22G17G16G20
 -20999078.12744 -16362891.01644  21184211.8104   21184212.7064
 -13721116.95244 -10691762.39944  22092420.0334   22092419.8714
 -20247283.59544 -15777094.55744  20691763.9274   20691764.1704
  -5319646.39844  -4145169.25844  24080884.5364   24080886.9384
  -7189725.67644  -5602388.12644  23652873.8654   23652874.4894
 -25253175.03744 -19677773.24444  20711294.7324   20711295.2594
  -1316962.79144                  25058731.1384
   1114118.71344    868142.16744  24743556.4454
 95  6  1  1 47  0.0000000  0  8G23G26G 6G21G22G17G16G20
 -21047709.67544 -16400785.71744  21174957.6564   21174958.4204
 -13727776.14944 -10696951.36644  22091152.6504   22091152.2814
 -20196708.11244 -15737685.10544  20701388.1334   20701388.4354
  -5410290.14244  -4215800.61644  24063635.5544   24063639.0324
  -7205135.25844  -5614389.95544  23649941.3054   23649941.6534
 -25268651.61944 -19689832.91644  20708349.6324   20708350.0924
  -1214564.89344                  25078216.9464
   1214858.24044                  24762726.8224
 95  6  1  1 47 30.0000000  0  7G23G26G21G22G 6G17G16
 -21095943.06944 -16438370.16444  21165779.0914   21165779.5704
 -13733840.84044 -10701677.08544  22089998.4264   22089998.6754
  -5500760.21244  -4286296.69144  24046419.5844   24046422.8704
  -7220000.55444                  23647112.3054
 -20145652.00344 -15697901.14244  20711103.7944   20711103.8314
 -25283901.11144 -19701715.63844  20705447.7774   20705448.1914
  -1112188.60844                  25097698.3854
 95  6  1  1 48  0.0000000  0  6G23G26G21G22G 6G17
 -21143852.24144 -16475701.96344  21156662.3194   21156662.9264
 -13739387.55644 -10705999.17844  22088942.7324   22088942.5424
  -5591123.91644  -4356709.84644  24029223.7014   24029226.0774
  -7234386.01444                  23644374.8394
 -20094193.31444 -15657803.48444  20720896.1254   20720896.4094
 -25299004.36444 -19713484.40344  20702573.6814   20702574.2884
 95  6  1  1 48 30.0000000  0  6G23G26G21G 6G22G17
 -21191432.26044 -16512777.28044  21147608.0784   21147608.6564
 -13744415.96444 -10709917.40444  22087986.0324   22087986.3574
  -5681358.71244  -4427022.56244  24012052.5424   24012056.2384
 -20042312.99144 -15617377.28544  20730768.6064   20730768.6244
  -7248293.02044                  23641728.5254
 -25313955.17944 -19725134.38844  20699728.5814   20699728.9004
 95  6  1  1 49  0.0000000  0  7G23G26G21G22G20G 6G17
 -21238556.61044 -16549497.52044  21138640.6054   21138641.1904
 -13748803.94844 -10713336.60544  22087151.0494   22087151.2624
  -5771359.96244  -4497153.32244  23994925.7304   23994928.5934
  -7261612.50944                  23639194.0354
        -0.92454                  24839162.4484
 -19989889.87344 -15576528.12844  20740744.3004   20740744.6634
 -25328643.14644 -19736579.55544  20696933.7354   20696933.9954
 95  6  1  1 49 30.0000000  0  7G23G26G21G 6G22G17G20
 -21285259.91844 -16585889.67244  21129753.0604   21129754.0234
 -13752610.74544 -10716302.92644  22086426.4774   22086425.7774
  -5861164.79844  -4567131.02844  23977836.0844   23977839.5464
 -19936970.18144 -15535292.02244  20750814.5554   20750814.9404
  -7274411.08344  -5668367.55944  23636758.5844   23636761.7654
 -25343121.30344 -19747861.23144  20694178.6914   20694179.0364
    100131.14544                  24858217.3444
 95  6  1  1 50  0.0000000  0  7G23G26G21G 6G22G17G20
 -21331559.95044 -16621967.59444  21120942.4564   21120943.1054
 -13755880.66344 -10718850.90644  22085804.2744   22085804.4334
  -5950792.33244  -4636970.54844  23960780.2314   23960784.0754
 -19883593.90844 -15493700.14844  20760971.9684   20760972.1954
  -7286738.68144  -5677973.46244  23634413.0654   23634414.0644
 -25357424.62844 -19759006.68344  20691456.8154   20691457.1794
    200110.59544    155929.73644  24877243.1044
 95  6  1  1 50 30.0000000  0  7G23G26G 6G21G22G17G20
 -21377439.09144 -16657717.56044  21112212.1254   21112212.6404
 -13758585.82844 -10720958.80644  22085289.6564   22085289.3544
 -19829727.08544 -15451726.02444  20771222.4114   20771222.7884
  -6040217.98144  -4706652.77444  23943762.9164   23943765.5614
  -7298585.30944  -5687204.58844  23632158.6214   23632158.7264
 -25371532.17944 -19769999.57544  20688772.2734   20688772.7554
    299946.44844    233723.66744  24896241.4404   24896248.7644
 95  6  1  1 51  0.0000000  0  8G23G26G 6G21G22G17G16G20
 -21422915.49844 -16693153.71544  21103558.2744   21103558.8404
 -13760739.15144 -10722636.70944  22084879.9254   22084880.0804
 -19775375.39044 -15409374.08244  20781565.1614   20781565.2234
  -6129464.67944  -4776195.57544  23926780.1634   23926783.5104
  -7309957.84044  -5696066.31744  23629994.3494   23629994.4134
 -25385463.61444 -19780855.23944  20686121.1554   20686121.6054
        -0.59054                  25233863.3494
    399628.00844    311397.28544  24915210.0524   24915216.1294
 95  6  1  1 51 30.0000000  0  8G23G26G 6G21G22G17G16G20
 -21468009.69644 -16728292.02244  21094977.0474   21094977.7124
 -13762356.92944 -10723897.29144  22084571.9854   22084572.2624
 -19720550.29344 -15366653.25144  20791998.1294   20791998.2994
  -6218549.92144  -4845612.53944  23909828.1334   23909830.6054
  -7320859.74944  -5704561.29544  23627919.4504   23627920.5634
 -25399235.83744 -19791586.84044  20683500.2824   20683500.8314
    102099.89244                  25253291.9944
    499141.41244    388939.99344  24934147.1294   24934153.6794
 95  6  1  1 52  0.0000000  0  7G23G26G21G22G 6G17G20
 -21512707.71444 -16763121.60744  21086471.2224   21086471.7714
 -13763411.10544 -10724718.72044  22084371.2234   22084371.3234
  -6307450.36244  -4914885.50944  23892910.9864   23892915.0934
  -7331254.25144  -5712660.90744  23625941.1654   23625942.8554
 -19665225.48844 -15323543.03144  20802526.1704   20802526.4864
 -25412815.05344 -19802168.04044  20680916.2044   20680916.6334
    598511.32544                  24953056.9884
 95  6  1  1 52 30.0000000  0  7G23G26G 6G21G22G17G20
 -21557001.03644 -16797635.85144  21078042.5204   21078043.0814
 -13763884.88044 -10725087.88044  22084281.0234   22084281.2154
 -19609388.98144 -15280034.09344  20813151.4624   20813151.8454
  -6396147.65944  -4984000.16344  23876032.4314   23876034.2914
  -7341104.55044  -5720336.44844  23624067.1824   23624067.6484
 -25426182.28644 -19812584.06144  20678372.5144   20678373.0204
    697775.26344                  24971946.5094
 95  6  1  1 53  0.0000000  0  8G23G26G 6G21G22G17G28G20
 -21600841.31344 -16831797.07244  21069699.9954   21069700.5564
 -13763738.87544 -10724974.09244  22084308.9884   22084308.8064
 -19553018.25744 -15236108.87944  20823878.3724   20823878.7624
  -6484609.81244  -5052931.64644  23859198.1944   23859199.4804
  -7350348.94044  -5727539.89344  23622307.9894   23622308.1474
 -25439291.19844 -19822798.79044  20675878.0224   20675878.4904
        -0.55314        -0.40014  25349077.351    25349076.619
    796982.34044    621023.08444  24990824.9424
 95  6  1  1 53 30.0000000  0  8G23G26G 6G21G22G17G28G20
 -21644288.04044 -16865651.63744  21061432.3124   21061433.1254
 -13763028.04744 -10724420.18344  22084443.9904   22084443.5664
 -19496192.34744 -15191828.97544  20834692.0424   20834692.2034
  -6572888.57444  -5121720.19944  23842399.3144   23842402.5134
  -7359050.21444  -5734320.13544  23620651.9664   23620654.3114
 -25452210.99844 -19832866.16044  20673419.4664   20673419.7584
   -107647.368 4    -83880.996 4  25328593.013    25328592.020
    896060.22844    698226.35744  25009679.1584   25009687.5974
 95  6  1  1 54  0.0000000  0  8G23G26G 6G21G22G17G28G20
 -21687371.27044 -16899222.95644  21053233.8884   21053234.5174
 -13761774.33244 -10723443.24444  22084682.6254   22084683.1484
 -19438946.86444 -15147222.12744  20845585.4064   20845585.7764
  -6661000.80944  -5190378.97844  23825632.3704   23825636.7534
  -7367248.98944  -5740708.79344  23619091.9794   23619093.7734
 -25464963.94044 -19842803.50944  20670992.7374   20670993.0874
   -215321.432 4   -167782.826 4  25308102.903    25308102.275
    994979.18944                  25028503.1884
 95  6  1  1 54 30.0000000  0  8G23G26G 6G21G22G17G28G20
 -21730084.27044 -16932505.80044  21045105.9014   21045106.4794
 -13759962.15244 -10722031.14244  22085027.6284   22085027.3814
 -19381273.07644 -15102281.53644  20856560.3474   20856560.6704
  -6748945.10744  -5258906.94144  23808897.1374   23808900.4744
  -7374944.95344  -5746705.64844  23617627.5604   23617630.3194
 -25477550.86044 -19852611.49444  20668597.4934   20668597.8324
   -323014.052 4   -251699.122 4  25287610.027    25287608.947
   1093726.31844                  25047293.8624
 95  6  1  1 55  0.0000000  0  8G23G26G 6G21G22G17G28G20
 -21772390.73844 -16965471.86144  21037055.0564   21037055.9224
 -13757558.29644 -10720157.99144  22085484.9424   22085484.5904
 -19323121.33344 -15056968.51844  20867626.4494   20867626.4714
  -6836697.36844  -5327285.25844  23792198.2484   23792198.6544
  -7382119.71444  -5752296.41744  23616262.5024   23616263.8994
 -25489937.67244 -19862263.54744  20666240.2904   20666240.5424
   -430690.700 4   -335602.965 4  25267119.637    25267118.823
   1192300.79444                  25066051.9914
 95  6  1  1 55 30.0000000  0  8G23G26G 6G21G22G17G28G20
 -21814334.75344 -16998155.49444  21029073.2844   21029073.7844
 -13754588.94244 -10717844.19244  22086049.9664   22086049.6914
 -19264513.12844 -15011299.81744  20878779.2924   20878779.3394
  -6924275.62444  -5395527.95744  23775532.5184   23775534.8284
  -7388832.75044  -5757527.33144  23614984.6794   23614986.7524
 -25502146.34244 -19871776.78844  20663917.0564   20663917.5024
   -538382.875 4   -419518.898 4  25246626.421    25246625.596
   1290659.63144                  25084769.7734
 95  6  1  1 56  0.0000000  0  8G23G26G 6G21G22G17G28G20
 -21855909.45844 -17030551.35744  21021161.9414   21021162.3344
 -13751066.16544 -10715099.14844  22086720.4574   22086719.4634
 -19205435.29044 -14965265.16744  20890021.3934   20890021.7484
  -7011686.90844  -5463640.58744  23758898.5454   23758900.9644
  -7395091.73544  -5762404.49844  23613793.6404   23613793.1664
 -25514154.99244 -19881134.17344  20661631.9294   20661632.5044
   -646086.959 4   -503444.125 4  25226131.013    25226130.212
   1388815.45344                  25103448.1754
 95  6  1  1 56 30.0000000  0  8G23G26G 6G21G22G17G28G20
 -21897096.26744 -17062644.97044  21013324.5014   21013324.9194
 -13746989.45044 -10711922.46744  22087496.0844   22087495.8954
 -19145876.14844 -14918855.47744  20901354.9164   20901355.1804
  -7098933.56444  -5531624.89444  23742296.0704   23742298.2374
  -7400872.29344  -5766908.84644  23612693.6464   23612694.2934
 -25525954.58444 -19890328.65344  20659386.4824   20659386.7474
   -753794.187 4   -587371.807 4  25205634.829    25205634.119
   1486780.75344                  25122090.4494
 95  6  1  1 57  0.0000000  0  8G23G26G 6G21G22G17G28G20
 -21937889.80744 -17094432.14544  21005561.7544   21005562.2264
 -13742359.33844 -10708314.57944  22088376.8614   22088377.0244
 -19085842.92744 -14872076.36944  20912779.1474   20912779.4694
  -7186000.61944  -5599469.27344  23725727.8174   23725729.0544
  -7406164.54344  -5771032.69544  23611687.0204   23611687.3864
 -25537530.67144 -19899348.97844  20657183.6334   20657184.2264
   -861495.076 4   -671294.538 4  25185139.963    25185139.521
   1584587.64344   1234739.39144  25140702.6194
 95  6  1  1 57 30.0000000  0  8G23G26G 6G21G22G17G28G20
 -21978259.35544 -17125888.91944  20997879.7074   20997880.1634
 -13737142.16044 -10704249.23744  22089369.9624   22089369.6764
 -19025328.61344 -14824922.38744  20924294.6024   20924295.0984
  -7272848.67444  -5667143.00444  23709200.9924   23709201.5114
  -7410940.83644  -5774754.47244  23610778.0874   23610777.4944
 -25548858.99944 -19908176.24244  20655027.9094   20655028.3734
   -969162.056 4   -755190.861 4  25164651.649    25164651.076
   1682294.84544   1310874.62144  25159295.6334   25159305.3134
 95  6  1  1 58  0.0000000  0  8G23G26G 6G21G22G17G28G20
 -22018210.65844 -17157019.77844  20990277.1324   20990277.6754
 -13731358.47244 -10699742.44644  22090470.7834   22090470.7064
 -18964363.64944 -14777417.24544  20935895.6704   20935896.2574
  -7359507.95144  -5734669.63644  23692710.0124   23692711.4194
  -7415198.63544  -5778072.25644  23609967.5174   23609967.8754
 -25559971.39744 -19916835.24944  20652913.3604   20652913.7684
  -1076814.662 4   -839075.979 4  25144165.867    25144165.461
   1779885.66544   1386919.10244  25177866.8724   25177874.6454
 95  6  1  1 58 30.0000000  0  8G26G 6G21G22G23G17G28G20
 -13724988.12944 -10694778.51644  22091682.7834   22091682.4634
 -18902952.96744 -14729564.78744  20947581.8434   20947582.1934
  -7445958.18644  -5802033.37744  23676259.1514   23676261.9894
  -7418929.95044  -5780979.78944  23609257.5864   23609258.9954
 -22057750.06844 -17187829.67544  20982752.7154   20982753.4694
 -25570879.81244 -19925335.30444  20650837.5694   20650837.8674
  -1184445.216 4   -922943.902 4  25123684.205    25123683.899
   1877346.34244   1462862.25844  25196413.3324
 95  6  1  1 59  0.0000000  0  8G26G 6G21G22G23G17G28G20
 -13718002.75544 -10689335.35044  22093011.8564   22093011.9594
 -18841079.66844 -14681351.84944  20959356.0274   20959356.4674
  -7532162.13244  -5869205.19744  23659855.1414   23659856.5054
  -7422140.10744  -5783481.21844  23608646.9214   23608647.4944
 -22096858.59244 -17218303.82744  20975310.6734   20975311.2444
 -25581570.94544 -19933666.05444  20648803.1314   20648803.3394
  -1292033.739 4  -1006779.091 4  25103210.897    25103210.411
   1974684.99544   1538710.31644  25214936.2864
 95  6  1  1 59 30.0000000  0  8G26G 6G21G22G23G17G28G20
 -13710433.73444 -10683437.39444  22094452.3774   22094452.6784
 -18778761.46744 -14632792.23944  20971214.7754   20971215.3684
  -7618158.49244  -5936215.25644  23643490.4264   23643492.1804
  -7424870.25644  -5785608.60144  23608127.0554   23608129.0134
 -22135560.15344 -17248460.86944  20967946.0574   20967946.7614
 -25592083.21644 -19941857.42844  20646802.7054   20646803.1034
  -1399616.278 4  -1090609.590 4  25082738.469    25082738.000
   2071843.59344                  25233425.1284
 95  6  1  2  0  0.0000000  0  8G 6G26G21G22G23G17G28G20
 -18715973.87744 -14583866.86944  20983162.8884   20983163.3454
 -13702272.29644 -10677077.82144  22096005.5754   22096005.7844
  -7703948.99344  -6003064.91944  23627164.8174   23627168.1414
  -7427108.38244  -5787352.62044  23607701.0404   23607702.3684
 -22173847.88444 -17278295.45144  20960660.2114   20960660.9694
 -25602397.80044 -19949894.76244  20644839.9244   20644840.2864
  -1507179.635 4  -1174425.162 4  25062269.867    25062269.383
   2168801.67944                  25251875.8594
 95  6  1  2  0 30.0000000  0  8G 6G26G21G22G23G17G28G20
 -18652715.26644 -14534574.47144  20995200.6064   20995201.0014
 -13693526.10444 -10670262.59644  22097669.7764   22097669.3974
  -7789539.45444  -6069758.71244  23610877.0724   23610880.6264
  -7428879.96144  -5788733.07844  23607364.1324   23607364.7564
 -22211736.84044 -17307819.29844  20953450.2924   20953450.6344
 -25612520.37844 -19957782.48044  20642913.6144   20642914.0334
  -1614729.244 4  -1258230.029 4  25041803.865    25041803.320
   2265551.86244   1765359.05444  25270286.5274
 95  6  1  2  1  0.0000000  0  8G 6G26G21G22G23G17G28G20
 -18588953.40444 -14484889.93144  21007334.1654   21007334.5464
 -13684175.83744 -10662976.64944  22099448.9504   22099448.6394
  -7874913.27944  -6136283.72544  23594630.6914   23594633.5264
  -7430148.78644  -5789721.79344  23607122.7824   23607123.0244
 -22249198.43244 -17337010.13144  20946321.5554   20946322.1574
 -25622409.90644 -19965488.60444  20641031.6284   20641032.1034
  -1722234.003 4  -1341999.937 4  25021346.282    25021345.860
   2362128.01044   1840612.92244  25288664.9774
 95  6  1  2  1 30.0000000  0  8G 6G26G21G22G23G17G28G20
 -18524722.94944 -14434840.25044  21019556.8524   21019556.9824
 -13674264.69544 -10655253.67244  22101334.9354   22101334.5684
  -7960124.88044  -6202682.31544  23578415.8134   23578418.2804
  -7430933.12144  -5790332.96844  23606973.0304   23606975.8014
 -22286283.22444 -17365907.36444  20939264.4594   20939264.9444
 -25632092.82444 -19973033.73244  20639189.0344   20639189.5274
  -1829727.614 4  -1425761.168 4  25000890.997    25000890.594
   2458498.36344   1915706.40344  25307004.1844
 95  6  1  2  2  0.0000000  0  8G 6G26G21G22G23G17G28G20
 -18460070.91844 -14384462.06844  21031859.7354   21031860.1574
 -13663831.52744 -10647123.91544  22103320.5294   22103320.3994
  -8045203.91044  -6268977.58344  23562226.0804   23562228.2404
  -7431249.78444  -5790579.74244  23606912.9694   23606913.1794
 -22323030.48344 -17394541.57244  20932271.7514   20932272.1754
 -25641594.96444 -19980437.99144  20637380.8274   20637381.3094
  -1937232.495 4  -1509531.163 4  24980433.472    24980433.102
   2554628.53544   1990612.82544  25325297.0864
 95  6  1  2  2 30.0000000  0  8G 6G26G21G22G23G17G28G20
 -18394935.46644 -14333707.19844  21044254.6784   21044254.9984
 -13652812.57544 -10638537.70244  22105417.3674   22105416.8134
  -8130058.98044  -6335098.34944  23546078.7004   23546080.7814
  -7431025.78944  -5790405.21344  23606955.9794   23606955.8034
 -22359366.45944 -17422855.29244  20925357.2694   20925357.6154
 -25650845.94344 -19987646.54344  20635620.4654   20635620.9294
  -2044674.041 4  -1593251.822 4  24959988.147    24959987.621
   2650595.84944                  25343559.5044
 95  6  1  2  3  0.0000000  0  8G 6G26G21G22G23G17G28G20
 -18329353.34344 -14282604.26944  21056734.5114   21056734.9594
 -13641238.57444 -10629518.98544  22107619.4734   22107619.0424
  -8214702.52444  -6401054.29944  23529971.3104   23529973.5234
  -7430274.31844  -5789819.66144  23607098.7794   23607100.3284
 -22395313.59444 -17450866.02344  20918516.6054   20918517.1164
 -25659872.55344 -19994680.26344  20633902.8074   20633903.2784
  -2152074.693 4  -1676940.603 4  24939550.495    24939549.996
   2746359.25544                  25361782.8614
 95  6  1  2  3 30.0000000  0  8G 6G26G21G22G23G17G28G20
 -18263342.35444 -14231167.16244  21069295.9864   21069296.2884
 -13629123.91244 -10620078.98044  22109924.7924   22109924.5774
  -8299143.48744  -6466852.40044  23513902.6144   23513904.9964
  -7429012.22044  -5788836.22344  23607339.0424   23607341.8544
 -22430878.30744 -17478578.76244  20911748.7924   20911749.3794
 -25668698.60344 -20001557.70544  20632223.1424   20632223.6214
  -2259444.298 4  -1760605.196 4  24919118.692    24919118.271
   2841901.84644                  25379963.7474
 95  6  1  2  4  0.0000000  0  8G 6G26G21G22G23G17G28G20
 -18196894.03344 -14179389.27644  21081940.7574   21081941.1494
 -13616454.30944 -10610206.54844  22112335.9364   22112335.6304
  -8383354.75844  -6532471.51244  23497877.9244   23497880.3234
  -7427235.45844  -5787451.74144  23607677.1684   23607677.9854
 -22466041.81244 -17505978.87744  20905057.3534   20905057.9064
 -25677322.21644 -20008277.40344  20630582.1334   20630582.6184
  -2366767.336 4  -1844233.513 4  24898695.894    24898695.447
   2937229.97344                  25398104.3224
 95  6  1  2  4 30.0000000  0  8G 6G26G21G22G23G17G28G20
 -18129987.36544 -14127254.23444  21094672.6234   21094672.9914
 -13603205.72544 -10599882.96044  22114857.2004   22114857.2774
  -8467311.07044  -6597891.95044  23481901.5374   23481903.0644
  -7424933.26444  -5785657.83144  23608115.4234   23608117.5104
 -22500788.11244 -17533053.90144  20898445.3904   20898445.9614
 -25685744.65544 -20014840.34344  20628979.3794   20628979.8404
  -2474031.384 4  -1927815.869 4  24878284.235    24878283.768
   3032370.95244   2362878.35444  25416209.6654
 95  6  1  2  5  0.0000000  0  8G 6G26G21G22G23G17G28G20
 -18062622.54444 -14074762.20044  21107491.6514   21107492.0634
 -13589371.70444 -10589103.20044  22117489.6164   22117489.2864
  -8551028.34044  -6663126.13344  23465970.7934   23465973.7384
  -7422106.74044  -5783455.35344  23608653.2554   23608654.8964
 -22535123.25444 -17559808.53944  20891911.7784   20891912.2364
 -25693977.59444 -20021255.62044  20627412.7174   20627413.0894
  -2581235.324 4  -2011351.383 4  24857884.018    24857883.524
   3127335.60144   2436876.54244  25434281.3704
 95  6  1  2  5 30.0000000  0  8G 6G26G21G22G23G17G28G20
 -17994811.80944 -14021922.69844  21120395.6304   21120396.2754
 -13574972.26544 -10577882.85544  22120229.5784   22120229.2584
  -8634543.08544  -6728202.50244  23450078.1604   23450079.6574
  -7418777.53244  -5780861.18844  23609286.8714   23609288.7144
 -22569060.05344 -17586252.78144  20885453.8004   20885454.1354
 -25702032.07644 -20027531.84044  20625880.1424   20625880.4894
  -2688391.410 4  -2094849.604 4  24837492.742    24837492.350
   3222123.22944                  25452319.1414
 95  6  1  2  6  0.0000000  0  8G 6G26G21G22G23G17G28G20
 -17926557.27344 -13968737.37744  21133384.2404   21133384.8874
 -13559994.80244 -10566212.09844  22123079.6744   22123079.5134
  -8717854.84044  -6793120.68044  23434224.3554   23434226.3044
  -7414947.92244  -5777877.07044  23610015.5444   23610016.7054
 -22602598.79144 -17612386.84744  20879071.5084   20879071.9164
 -25709898.28044 -20033661.34444  20624383.2594   20624383.4704
  -2795497.329 4  -2178308.726 4  24817111.070    24817110.706
   3316737.29144                  25470323.3564
 95  6  1  2  6 30.0000000  0  8G 6G26G21G22G23G17G28G20
 -17857867.89544 -13915213.21744  21146455.4354   21146455.8384
 -13544448.13544 -10554097.80544  22126038.1394   22126037.7794
  -8800974.82344  -6857889.43744  23418407.2284   23418408.8394
  -7410624.64844  -5774508.30744  23610838.3954   23610838.9784
 -22635744.20944 -17638214.42544  20872764.1734   20872764.5954
 -25717570.89644 -20039640.00844  20622923.1774   20622923.3784
  -2902556.511 4  -2261731.434 4  24796738.297    24796737.969
   3411177.21144                  25488295.2644
 95  6  1  2  7  0.0000000  0  8G 6G26G21G22G23G17G28G20
 -17788753.59044 -13861357.94744  21159607.4564   21159607.7554
 -13528337.90044 -10541544.36944  22129103.8574   22129103.8454
  -8883916.88744  -6922519.55644  23402623.8324   23402625.4344
  -7405830.25944  -5770772.43844  23611750.3914   23611750.7884
 -22668497.16244 -17663736.19344  20866531.5524   20866532.0094
 -25725040.53644 -20045460.50744  20621501.7354   20621502.1094
  -3009572.222 4  -2345120.274 4  24776373.991    24776373.587
   3505424.77244                  25506230.1004
 95  6  1  2  7 30.0000000  0  8G 6G21G22G23G17G26G28G20
 -17719206.00344 -13807165.05344  21172841.9724   21172842.4134
  -8966654.38144  -6986990.27844  23386879.5534   23386882.0344
  -7400553.72044  -5766660.85344  23612754.1034   23612755.7024
 -22700842.35744 -17688940.22644  20860376.3144   20860376.8524
 -25732286.15144 -20051106.44044  20620122.8684   20620123.2564
 -13511648.33444 -10528539.51244  22132279.5684   22132279.2704
  -3116528.706 4  -2428462.973 4  24756020.844    24756020.469
   3599477.37144                  25524127.4444
 95  6  1  2  8  0.0000000  0  8G 6G21G22G23G17G26G28G20
 -17649223.05744 -13752632.92144  21186159.2414   21186159.8574
  -9049161.67044  -7051281.59444  23371178.9994   23371179.4814
  -7394797.21344  -5762175.26844  23613849.7174   23613851.3554
 -22732784.30044 -17713830.03344  20854298.0754   20854298.4944
 -25739308.66644 -20056578.53344  20618786.5214   20618786.9294
 -13494366.77744 -10515073.35844  22135568.1994   22135567.9484
  -3223425.813 4  -2511759.399 4  24735679.117    24735678.603
   3693323.17744   2877904.64044  25541986.1644
 95  6  1  2  8 30.0000000  0  8G 6G21G22G23G17G26G28G20
 -17578778.91744 -13697741.41744  21199564.4554   21199564.9684
  -9131406.79044  -7115368.62844  23355528.4024   23355530.0904
  -7388541.56444  -5757300.74244  23615040.3384   23615041.1364
 -22764289.93744 -17738379.86444  20848302.7064   20848303.2444
 -25746085.83444 -20061859.44644  20617496.8784   20617497.2104
 -13476475.55144 -10501132.13344  22138972.9704   22138972.5054
  -3330237.464 4  -2594989.226 4  24715353.249    24715352.885
   3786978.30044                  25559808.1304
 95  6  1  2  9  0.0000000  0  8G 6G21G22G23G17G26G28G20
 -17507935.87044 -13642539.07344  21213045.2624   21213045.7604
  -9213454.82744  -7179302.09844  23339914.6974   23339916.2194
  -7381849.53644  -5752086.20044  23616313.7814   23616314.8174
 -22795427.50244 -17762642.88944  20842377.3904   20842377.8754
 -25752685.10144 -20067001.73044  20616241.1664   20616241.5394
 -13458034.51744 -10486762.49544  22142482.2604   22142481.6364
  -3437022.881 4  -2678198.596 4  24695032.565    24695032.297
   3880369.84444                  25577580.0894
 95  6  1  2  9 30.0000000  0  8G 6G21G22G23G17G26G28G20
 -17436653.11644 -13586994.09844  21226609.8944   21226610.5364
  -9295269.39444  -7243053.65944  23324345.7384   23324347.0914
  -7374673.43844  -5746494.40544  23617679.5914   23617679.6924
 -22826180.18544 -17786606.00444  20836525.3294   20836525.7134
 -25759075.41244 -20071981.19444  20615025.1114   20615025.5844
 -13439017.51144 -10471944.04744  22146100.8134   22146100.2804
  -3543747.127 4  -2761360.311 4  24674723.631    24674723.321
   3973527.61644                  25595307.4404
 95  6  1  2 10  0.0000000  0  8G 6G21G22G23G17G26G28G20
 -17364895.05344 -13531078.75644  21240265.0784   21240265.5134
  -9376840.64644  -7306615.62844  23308823.2254   23308824.6284
  -7366994.14544  -5740510.58644  23619141.0724   23619142.2184
 -22856523.94944 -17810250.48244  20830751.0894   20830751.4484
 -25765223.01444 -20076771.53944  20613855.2024   20613855.6314
 -13419401.83144 -10456659.10444  22149833.6874   22149833.6614
  -3650385.802 4  -2844455.358 4  24654430.909    24654430.602
   4066466.74344                  25612993.4604
 95  6  1  2 10 30.0000000  0  8G 6G21G22G23G17G26G28G20
 -17292686.55444 -13474812.42444  21254005.8154   21254006.3684
  -9458209.67644  -7370020.00644  23293339.2614   23293341.1104
  -7358830.89044  -5734149.62644  23620694.4354   23620694.7694
 -22886488.57144 -17833599.52444  20825049.1174   20825049.4084
 -25771152.79544 -20081392.15044  20612726.9004   20612727.3894
 -13399215.53944 -10440929.52744  22153675.0574   22153674.6644
  -3756959.093 4  -2927499.459 4  24634150.699    24634150.344
   4159162.37444                  25630633.0514
 95  6  1  2 11  0.0000000  0  8G 6G21G22G23G17G26G28G20
 -17220026.92344 -13418194.56144  21267832.5044   21267833.0384
  -9539382.81944  -7433271.74844  23277892.5134   23277893.7864
  -7350180.26244  -5727408.90644  23622340.2564   23622340.9764
 -22916087.81744 -17856663.85644  20819416.3594   20819416.6734
 -25776873.99544 -20085850.22844  20611638.1454   20611638.5784
 -13378460.02344 -10424756.39744  22157624.6944   22157624.2564
  -3863467.762 4  -3010493.187 4  24613882.809    24613882.284
   4251605.58444                  25648224.1084
 95  6  1  2 11 30.0000000  0  8G 6G21G22G23G17G26G28G20
 -17146917.52244 -13361226.22644  21281744.7534   21281745.3944
  -9620353.27944  -7496365.56144  23262484.2624   23262486.6044
  -7341047.92344  -5720292.80944  23624078.2154   23624079.2304
 -22945303.47144 -17879429.28344  20813856.7844   20813857.3514
 -25782392.29544 -20090150.20844  20610587.9964   20610588.3954
 -13357140.38144 -10408143.70144  22161681.7844   22161681.6694
  -3969912.461 4  -3093437.094 4  24593626.914    24593626.556
   4343793.01344                  25665767.1854
 95  6  1  2 12  0.0000000  0  7G 6G21G22G23G17G26G28
 -17073368.17244 -13303915.07544  21295740.8844   21295741.2354
  -9701114.96244  -7559296.68044  23247115.5184   23247117.1654
  -7331441.67244  -5712807.42944  23625906.4054   23625907.6384
 -22974110.52044 -17901876.32044  20808375.1674   20808375.5084
 -25787710.72844 -20094294.44544  20609575.9554   20609576.4774
 -13335248.75144 -10391085.28544  22165847.6984   22165847.3394
  -4076285.137 4  -3176324.883 4  24573384.922    24573384.513
 95  6  1  2 12 30.0000000  0  8G 6G21G22G23G17G26G28G20
 -16999398.01444 -13246276.01844  21309817.0984   21309817.4954
  -9781644.12744  -7622046.61744  23231791.4054   23231793.9244
  -7321343.15744  -5704938.47644  23627828.1134   23627829.7254
 -23002493.49744 -17923992.90844  20802974.0174   20802974.4614
 -25792835.02344 -20098287.40544  20608600.8574   20608601.3784
 -13312788.40844 -10373583.72444  22170121.6634   22170121.2534
  -4182568.056 4  -3259142.741 4  24553159.915    24553159.507
         0.21154         0.74954  25700720.2564
 95  6  1  2 13  0.0000000  0  8G 6G21G22G23G17G26G28G20
 -16925053.91444 -13188345.57944  21323964.2744   21323964.9424
  -9861969.50544  -7684637.75444  23216506.3094   23216508.3324
  -7310791.61644  -5696716.51344  23629836.1054   23629836.6584
 -23030477.35544 -17945798.50344  20797648.7534   20797649.2194
 -25797807.26644 -20102161.88244  20607654.6934   20607655.1114
 -13289811.39644 -10355679.56444  22174493.9584   22174493.6054
  -4288797.447 4  -3341918.886 4  24532945.094    24532944.709
     91486.27444                  25718129.5614
 95  6  1  2 13 30.0000000  0  8G 6G21G22G23G17G26G28G20
 -16850354.81444 -13130138.52044  21338179.0344   21338179.4904
  -9942100.39044  -7747077.34644  23201257.7714   23201259.1644
  -7299802.44344  -5688153.53344  23631927.2334   23631928.2544
 -23058076.03744 -17967303.95344  20792396.9594   20792397.3024
 -25802624.46844 -20105915.54944  20606738.0154   20606738.4254
 -13266334.11244 -10337385.57844  22178961.5844   22178961.4354
  -4394978.010 4  -3424656.991 4  24512739.616    24512739.283
    182732.27344                  25735493.4104
 95  6  1  2 14  0.0000000  0  8G 6G21G22G23G17G26G28G20
 -16775238.37244 -13071606.25844  21352473.2344   21352473.9734
 -10021968.04144  -7809311.82144  23186058.9254   23186061.4574
  -7288291.98544  -5679184.37244  23634117.4564   23634118.5224
 -23085236.72144 -17988468.10544  20787228.5084   20787228.8584
 -25807203.28744 -20109483.46744  20605866.5834   20605867.0224
 -13242284.29844 -10318645.46544  22183538.2934   22183538.2254
  -4501034.182 4  -3507298.148 4  24492557.819    24492557.405
    273804.97244                  25752824.1254
 95  6  1  2 14 30.0000000  0  7G 6G21G22G23G17G26G28
 -16699696.04244 -13012742.13244  21366848.3914   21366848.9774
 -10101578.19444  -7871345.65844  23170909.5884   23170911.2144
  -7276252.11244  -5669802.67644  23636408.3424   23636409.5344
 -23111973.53044 -18009301.96944  20782140.5294   20782140.8814
 -25811536.74944 -20112860.19544  20605041.9474   20605042.3054
 -13217676.47044 -10299470.53844  22188220.8674   22188220.4974
  -4606972.833 4  -3589847.719 4  24472398.312    24472398.004
 95  6  1  2 15  0.0000000  0  7G 6G21G22G23G17G26G28
 -16623702.28344 -12953526.24544  21381309.5064   21381310.2094
 -10180941.95844  -7933187.49744  23155807.1264   23155809.3844
  -7263703.32044  -5660024.41644  23638796.4904   23638797.0364
 -23138305.07644 -18029820.04044  20777129.8474   20777130.1284
 -25815619.47044 -20116041.53844  20604264.9964   20604265.4544
 -13192509.94344 -10279860.26444  22193009.9354   22193009.9354
  -4712806.069 4  -3672315.132 4  24452258.992    24452258.406
 95  6  1  2 15 30.0000000  0  7G 6G21G22G26G23G17G28
 -16547275.47044 -12893972.91644  21395853.1624   21395854.0594
 -10260092.17344  -7994862.94244  23140745.4384   23140746.8694
  -7250683.26944  -5649878.92044  23641274.3704   23641274.7394
 -13166793.17844 -10259821.22644  22197903.6514   22197903.3344
 -23164267.75844 -18050050.68444  20772189.3074   20772189.7244
 -25819466.79444 -20119039.45744  20603532.9084   20603533.4164
  -4818558.326 4  -3754719.463 4  24432134.907    24432134.470
 95  6  1  2 16  0.0000000  0  7G 6G21G22G26G23G17G28
 -16470370.43544 -12834046.94544  21410487.8984   21410488.6054
 -10339001.12144  -8056350.37344  23125729.5804   23125731.7454
  -7237152.50044  -5639335.51144  23643848.9244   23643849.0134
 -13140480.49044 -10239317.83144  22202910.6864   22202910.5794
 -23189818.02144 -18069959.96244  20767327.1564   20767327.5644
 -25823046.90444 -20121829.15544  20602851.6324   20602852.0574
  -4924195.778 4  -3837034.335 4  24412032.828    24412032.044
 95  6  1  2 16 30.0000000  0  7G 6G21G22G26G23G17G28
 -16392966.50244 -12773732.22444  21425217.4954   21425217.9504
 -10417662.73744  -8117645.07844  23110760.6714   23110763.3484
  -7223113.12544  -5628395.74444  23646520.7964   23646522.8584
 -13113546.36144 -10218330.19344  22208035.9324   22208035.6854
 -23214944.67244 -18089539.15344  20762545.7724   20762546.1494
 -25826350.98644 -20124403.76944  20602222.9914   20602223.5114
  -5029698.905 4  -3919244.536 4  24391956.197    24391955.499
 95  6  1  2 17  0.0000000  0  7G 6G21G22G26G23G17G28
 -16315122.32944 -12713074.45744  21440030.6484   21440031.1704
 -10496127.05644  -8178786.06244  23095829.3314   23095831.6304
  -7208620.81744  -5617103.05644  23649278.5554   23649279.7424
 -13086016.83544 -10196878.62444  22213274.7414   22213274.4314
 -23239694.69944 -18108824.87744  20757835.9624   20757836.4044
 -25829420.85244 -20126795.87844  20601638.7744   20601639.2144
  -5135102.190 4  -4001376.931 4  24371898.585    24371897.920
 95  6  1  2 17 30.0000000  0  7G 6G21G22G23G17G26G28
 -16236872.02844 -12652100.23344  21454921.1584   21454921.5344
 -10574402.21744  -8239779.65144  23080934.2724   23080936.6874
  -7193675.35844  -5605457.26744  23652122.5744   23652123.3994
 -23264074.88244 -18127822.41344  20753196.5004   20753196.8844
 -25832271.33844 -20129017.03944  20601096.4214   20601096.8054
 -13057895.24744 -10174965.70044  22218626.0194   22218626.0194
  -5240407.079 4  -4083432.652 4  24351859.681    24351859.083
 95  6  1  2 18  0.0000000  0  7G 6G21G22G23G17G26G28
 -16158222.69344 -12590815.06944  21469887.6644   21469888.2024
 -10652466.60744  -8300609.00044  23066079.1784   23066080.9434
  -7178262.40944  -5593447.21144  23655055.6144   23655056.1914
 -23288083.23644 -18146530.21044  20748627.8644   20748628.2684
 -25834893.52044 -20131060.30444  20600597.4424   20600597.9674
 -13029183.75744 -10152593.11244  22224089.7444   22224089.5984
  -5345600.624 4  -4165401.615 4  24331841.966    24331841.326
 95  6  1  2 18 30.0000000  0  7G 6G21G22G23G17G26G28
 -16079199.80444 -12529238.82944  21484925.1564   21484925.6864
 -10730311.14744  -8361267.02544  23051265.9474   23051266.9034
  -7162397.90044  -5581085.26844  23658074.6684   23658075.7044
 -23311727.84944 -18164954.57144  20744128.3944   20744128.7724
 -25837304.34544 -20132938.87444  20600138.6754   20600139.0604
 -12999905.25644 -10129778.69444  22229661.3554   22229661.0724
  -5450687.487 4  -4247287.463 4  24311844.547    24311843.855
 95  6  1  2 19  0.0000000  0  7G 6G21G22G26G23G17G28
 -15999803.33144 -12467371.47244  21500033.7154   21500034.5804
 -10807911.69644  -8421734.92444  23036498.9304   23036500.2744
  -7146079.82744  -5568369.89844  23661179.8524   23661180.8064
 -12970078.31244 -10106536.90644  22235337.2244   22235336.7444
 -23335004.92244 -18183092.53444  20739698.9064   20739699.4664
 -25839513.15044 -20134660.02044  20599718.2574   20599718.7554
  -5555670.339 4  -4329092.251 4  24291866.912    24291866.240
 95  6  1  2 19 30.0000000  0  7G 6G21G22G23G17G26G28
 -15919998.08244 -12405185.60144  21515220.3014   21515221.1114
 -10885215.89744  -8481971.91844  23021788.3454   23021789.1044
  -7129277.74944  -5555277.40844  23664377.0234   23664379.0204
 -23357875.76544 -18200913.95144  20735346.7984   20735347.1054
 -25841496.12244 -20136205.20144  20599340.9144   20599341.3684
 -12939678.00144 -10082848.35944  22241122.1884   22241122.2874
  -5660517.787 4  -4410791.545 4  24271915.024    24271914.462
 95  6  1  2 20  0.0000000  0  7G 6G21G22G23G17G26G28
 -15839823.66244 -12342712.06944  21530477.2094   21530477.5904
 -10962277.02144  -8542019.51544  23007124.0044   23007125.0844
  -7112053.12944  -5541855.66144  23667654.7034   23667656.6744
 -23380381.04744 -18218450.51944  20731064.2034   20731064.4254
 -25843304.36244 -20137614.22544  20598996.8354   20598997.3004
 -12908772.57744 -10058766.21244  22247003.2494   22247002.7984
  -5765280.663 4  -4492424.930 4  24251979.322    24251978.628
 95  6  1  2 20 30.0000000  0  7G 6G21G22G23G17G26G28
 -15759268.33244 -12279941.72244  21545806.4164   21545806.9824
 -11039110.30544  -8601889.57644  22992503.0034   22992504.5644
  -7094415.68044  -5528112.21044  23671011.0764   23671012.5984
 -23402527.32744 -18235707.35044  20726849.8894   20726850.2884
 -25844963.03044 -20138906.69644  20598681.2654   20598681.7714
 -12877361.23444 -10034289.84044  22252980.6064   22252980.6094
  -5869964.866 4  -4573996.999 4  24232058.556    24232057.898
 95  6  1  2 21  0.0000000  0  7G 6G21G22G23G17G26G28
 -15678247.00244 -12216808.25944  21561224.1434   21561225.1144
 -11115648.34544  -8661529.57244  22977938.0694   22977939.7974
  -7076287.31444  -5513986.22044  23674461.0014   23674463.0694
 -23424247.88244 -18252632.44844  20722716.4994   20722717.0224
 -25846393.72644 -20140021.52844  20598408.9744   20598409.5264
 -12845357.28644 -10009351.69544  22259070.7284   22259071.1524
  -5974493.324 4  -4655447.707 4  24212167.303    24212166.804
 95  6  1  2 21 30.0000000  0  7G 6G21G22G23G17G26G28
 -15596818.36844 -12153357.41244  21576719.5514   21576720.2384
 -11191964.76744  -8720996.87344  22963415.5034   22963417.3994
  -7057716.02144  -5499515.10644  23677995.1264   23677996.3984
 -23445590.73244 -18269263.22844  20718655.2394   20718655.3684
 -25847641.70744 -20140993.98444  20598171.4654   20598171.9194
 -12812801.84044  -9983983.81644  22265265.7494   22265265.4534
  -6078911.892 4  -4736812.776 4  24192297.012    24192296.572
 95  6  1  2 22  0.0000000  0  7G 6G21G22G23G17G26G28
 -15515002.17944 -12089604.57744  21592288.6374   21592289.0884
 -11268084.52844  -8780310.92544  22948930.3684   22948931.8614
  -7038711.74944  -5484706.60144  23681611.3354   23681611.6624
 -23466570.12344 -18285610.79244  20714662.9274   20714663.0254
 -25848720.97644 -20141834.97644  20597966.0924   20597966.4074
 -12779707.36644  -9958195.90544  22271563.7254   22271563.1524
  -6183228.786 4  -4818098.620 4  24172446.078    24172445.768
 95  6  1  2 22 30.0000000  0  7G 6G21G22G23G17G26G28
 -15432799.43644 -12025550.53444  21607931.3314   21607931.9784
 -11343983.86244  -8839453.23144  22934487.3204   22934488.7544
  -7019254.62544  -5469545.22544  23685313.6524   23685314.4884
 -23487171.72044 -18301663.97144  20710742.4394   20710742.8604
 -25849617.00044 -20142533.17644  20597795.6564   20597796.0674
 -12746035.57144  -9931958.13844  22277971.2444   22277970.9214
  -6287422.994 4  -4899288.874 4  24152618.700    24152618.152
 95  6  1  2 23  0.0000000  0  7G 6G21G22G23G17G26G28
 -15350246.62644 -11961223.71244  21623640.5214   21623641.6544
 -11419684.88844  -8898441.00144  22920082.1404   22920083.1814
  -6999373.76344  -5454053.65744  23689096.8684   23689098.9554
 -23507397.89144 -18317424.62144  20706893.6124   20706894.0764
 -25850327.58744 -20143086.88044  20597660.3794   20597660.8044
 -12711822.59444  -9905298.66944  22284481.5924   22284481.1094
  -6391514.207 4  -4980398.878 4  24132810.735    24132810.307
 95  6  1  2 23 30.0000000  0  7G 6G21G22G23G17G26G28
 -15267348.81444 -11896628.05644  21639415.6494   21639416.6434
 -11495186.65244  -8957273.51444  22905714.7204   22905715.5044
  -6979068.32144  -5438231.26544  23692961.1364   23692961.8224
 -23527231.64844 -18332879.48144  20703119.4224   20703119.7514
 -25850833.14844 -20143480.82444  20597564.1944   20597564.7324
 -12677076.87044  -9878224.07544  22291093.6384   22291093.2584
  -6495492.356 4  -5061420.773 4  24113024.306    24113023.938
 95  6  1  2 24  0.0000000  0  7G 6G21G22G23G17G26G28
 -15184087.01944 -11831748.78044  21655259.8014   21655260.5804
 -11570456.02644  -9015924.94844  22891391.3134   22891392.6664
  -6958324.09644  -5422066.95544  23696908.5674   23696910.7764
 -23546669.72744 -18348026.02544  20699420.3964   20699420.7244
 -25851118.57944 -20143703.23944  20597509.9354   20597510.3004
 -12641802.78344  -9850737.76944  22297805.9504   22297805.7284
  -6599342.142 4  -5142342.645 4  24093262.392    24093261.974
 95  6  1  2 24 30.0000000  0  7G 6G21G22G23G17G26G28
 -15100442.05844 -11766570.93144  21671176.8854   21671177.5764
 -11645472.05844  -9074378.97144  22877116.0754   22877117.5714
  -6937123.65344  -5405547.16644  23700943.2534   23700945.1024
 -23565707.68444 -18362860.78944  20695797.6494   20695797.9414
 -25851146.96844 -20143725.36044  20597504.5494   20597504.9644
 -12605996.86344  -9822837.04344  22304619.6714   22304619.9704
  -6703046.424 4  -5223151.128 4  24073528.022    24073527.680
 95  6  1  2 25  0.0000000  0  7G 6G21G22G23G17G26G28
 -15016424.94244 -11701103.08644  21687164.9934   21687165.8784
 -11720264.67644  -9132658.89544  22862883.5384   22862885.2944
  -6915477.17844  -5388679.80744  23705062.2604   23705063.6784
 -23584370.25744 -18377403.04844  20692246.2464   20692246.5544
 -25850917.81044 -20143546.79844  20597548.1564   20597548.5174
 -12569704.79644  -9794557.50544  22311525.5584   22311525.6304
  -6806623.417 4  -5303860.429 4  24053817.998    24053817.638
 95  6  1  2 25 30.0000000  0  7G 6G21G22G23G17G26G28
 -14932006.99744 -11635322.91344  21703229.3164   21703229.7504
 -11794800.14144  -9190738.44244  22848699.6304   22848700.9644
  -6893336.14044  -5371427.08744  23709275.5774   23709276.5534
 -23602645.48744 -18391643.47744  20688768.5254   20688768.7604
 -25850410.03044 -20143151.12544  20597644.8104   20597645.2964
 -12532890.11144  -9765870.73144  22318531.2824   22318530.9864
  -6910035.824 4  -5384441.477 4  24034139.196    24034138.888
 95  6  1  2 26  0.0000000  0  7G 6G21G22G23G17G26G28
 -14847167.48344 -11569214.24144  21719373.6824   21719374.1874
 -11869054.59344  -9248599.02644  22834569.3884   22834571.3594
  -6870676.10044  -5353769.92044  23713587.5364   23713589.4984
 -23620531.43344 -18405580.56744  20685364.9914   20685365.2514
 -25849610.39144 -20142528.03144  20597797.0484   20597797.4144
 -12495523.91544  -9736754.21144  22325641.8374   22325641.4114
  -7013261.705 4  -5464877.185 4  24014495.903    24014495.668
 95  6  1  2 26 30.0000000  0  7G 6G21G22G23G17G26G28
 -14761916.33144 -11502784.81644  21735596.4394   21735597.1954
 -11943058.07044  -9306264.03144  22820487.1754   22820488.7354
  -6847502.68044  -5335712.75544  23717997.1364   23717999.9174
 -23638024.57744 -18419211.58644  20682036.0634   20682036.4004
 -25848513.36144 -20141673.20044  20598005.7494   20598006.1774
 -12457591.92244  -9707196.80344  22332860.1524   22332859.8964
  -7116303.683 4  -5545169.584 4  23994887.691    23994887.406
 95  6  1  2 27  0.0000000  0  7G 6G21G22G23G17G26G28
 -14676300.00444 -11436070.83844  21751888.7374   21751889.8664
 -12016868.39744  -9363778.53344  22806441.6454   22806443.4224
  -6823875.37444  -5317301.87144  23722493.4834   23722494.5334
 -23655169.56944 -18432571.31044  20678773.5244   20678773.8754
 -25847193.49144 -20140644.72944  20598256.8994   20598257.2314
 -12419132.87144  -9677228.69944  22340178.5064   22340178.3124
  -7219211.314 4  -5625357.311 4  23975304.994    23975304.809
 95  6  1  2 27 30.0000000  0  7G 6G21G22G23G17G26G28
 -14590298.18944 -11369056.48144  21768254.4224   21768255.1814
 -12090454.29044  -9421118.15644  22792438.5534   22792439.5404
  -6799795.30244  -5298538.21744  23727075.7614   23727076.5904
 -23671946.26844 -18445644.05344  20675581.1284   20675581.3314
 -25845658.28244 -20139448.46044  20598549.0484   20598549.4894
 -12380107.40044  -9646819.24144  22347604.7254   22347604.3784
  -7321957.306 4  -5705419.075 4  23955752.971    23955752.866
 95  6  1  2 28  0.0000000  0  7G 6G21G22G23G17G26G28
 -14503874.63144 -11301713.48744  21784700.2004   21784700.9094
 -12163773.22644  -9478249.75044  22778486.3954   22778487.7724
  -6775264.04244  -5279422.95044  23731743.7514   23731744.7964
 -23688319.01844 -18458402.03244  20672465.4244   20672465.5164
 -25843877.07644 -20138060.50344  20598887.9764   20598888.4264
 -12340475.77444  -9615937.45244  22355146.4524   22355146.0814
  -7424508.825 4  -5785329.314 4  23936237.903    23936237.955
 95  6  1  2 28 30.0000000  0  6G 6G21G22G26G23G17
 -14417055.19444 -11234062.02244  21801221.4154   21801221.9714
 -12236838.55144  -9535183.73544  22764582.5614   22764584.5454
  -6750322.94544  -5259988.35144  23736489.9264   23736491.5954
 -12300262.76644  -9584602.63744  22362798.6784   22362798.0694
 -23704289.38444 -18470846.46144  20669426.2594   20669426.3894
 -25841885.10044 -20136508.31444  20599267.0044   20599267.3394
 95  6  1  2 29  0.0000000  0  6G 6G21G22G23G17G26
 -14329891.29544 -11166142.13744  21817808.3194   21817809.2644
 -12309670.72744  -9591936.04444  22750723.1304   22750724.8174
  -6725031.15544  -5240280.46844  23741302.8804   23741304.5484
 -23719892.37044 -18483004.62044  20666457.1984   20666457.4084
 -25839744.57144 -20134840.36344  20599674.2954   20599674.7574
 -12259521.31544  -9552856.03344  22370551.4814   22370550.8444
 95  6  1  2 29 30.0000000  0  7G 6G21G22G23G17G26G28
 -14242366.88744 -11097941.34244  21834463.8154   21834464.8964
 -12382225.36944  -9648472.07844  22736916.0934   22736917.5424
  -6699365.89344  -5220281.59844  23746186.8034   23746187.7894
 -23735101.50144 -18494855.88144  20663562.7804   20663563.1764
 -25837423.30744 -20133031.58444  20600115.9794   20600116.4374
 -12218224.72944  -9520676.87344  22378410.0724   22378409.2724
         0.03614        -0.12214  23877872.835    23877872.770
 95  6  1  2 30  0.0000000  0  7G 6G21G22G23G17G26G28
 -14154467.76044 -11029448.55444  21851190.0944   21851191.0364
 -12454483.24144  -9704776.87544  22723165.8884   22723166.2504
  -6673293.85544  -5199965.73944  23751148.1344   23751148.3144
 -23749899.43744 -18506386.73144  20660746.9064   20660746.9174
 -25834882.34144 -20131051.60044  20600599.4864   20600599.9224
 -12176366.87044  -9488060.35444  22386375.2484   22386374.7884
   -101900.481 4    -79403.071 4  23858481.805    23858481.655
 95  6  1  2 30 30.0000000  0  7G 6G21G22G23G17G26G28
 -14066210.22044 -10960676.48444  21867985.0984   21867986.4034
 -12526484.12144  -9760881.42344  22709464.6324   22709466.1974
  -6646800.88344  -5179321.89844  23756189.5324   23756192.2514
 -23764309.10644 -18517615.03744  20658004.9234   20658005.2434
 -25832129.48744 -20128906.51844  20601123.3804   20601123.7614
 -12133982.70744  -9455033.72344  22394440.7714   22394440.1604
   -203635.525 4   -158677.095 4  23839122.260    23839122.263
 95  6  1  2 31  0.0000000  0  7G 6G21G22G23G17G26G28
 -13977580.00544 -10891614.03244  21884851.0544   21884851.5624
 -12598232.25144  -9816789.02444  22695811.3464   22695813.1254
  -6619860.70144  -5158329.57844  23761316.4414   23761317.1824
 -23778346.69544 -18528553.41144  20655333.4884   20655333.8454
 -25829142.63444 -20126579.09944  20601691.7834   20601692.3334
 -12091072.58444  -9421597.27244  22402606.2644   22402606.0674
   -305193.409 4   -237813.069 4  23819796.332    23819796.380
 95  6  1  2 31 30.0000000  0  8G 6G21G22G23G17G26G28G 1
 -13888579.78244 -10822263.25644  21901787.2434   21901788.4904
 -12669743.99144  -9872512.41544  22682203.0274   22682204.0704
  -6592469.62844  -5136985.92444  23766528.6164   23766529.3904
 -23792046.06444 -18539228.23744  20652726.6844   20652727.1204
 -25825913.36944 -20124062.78844  20602306.2884   20602306.7834
 -12047654.18544  -9387764.75344  22410868.5714   22410868.4644
   -406588.304 4   -316822.044 4  23800501.476    23800501.668
        -0.63054         0.98254  25202522.5934
 95  6  1  2 32  0.0000000  0  8G 6G21G22G23G17G26G28G 1
 -13799219.93044 -10752632.24944  21918791.6494   21918793.0784
 -12741050.94744  -9928076.23944  22668633.8804   22668634.8444
  -6564622.03544  -5115286.53044  23771827.7144   23771828.8544
 -23805416.88344 -18549647.05344  20650182.4274   20650182.5514
 -25822441.14844 -20121357.15944  20602966.9814   20602967.4164
 -12003742.70944  -9353548.01944  22419224.8254   22419224.7334
   -507833.018 4   -395713.993 4  23781235.303    23781235.328
   -109359.72944    -85213.45744  25181711.8284   25181715.7554
 95  6  1  2 32 30.0000000  0  8G 6G21G22G23G17G26G28G 1
 -13709498.73944 -10682719.67644  21935865.2224   21935866.4264
 -12812143.95844  -9983473.35344  22655105.3074   22655106.3774
  -6536318.97044  -5093232.23444  23777213.7834   23777215.6224
 -23818448.13544 -18559801.26744  20647702.6144   20647702.9264
 -25818725.58244 -20118461.91244  20603673.9724   20603674.4054
 -11959323.44444  -9318935.60344  22427677.3424   22427676.9864
   -608913.784 4   -474478.193 4  23762000.308    23762000.203
   -218821.38744   -170507.86744  25160881.7144
 95  6  1  2 33  0.0000000  0  8G 6G21G22G23G17G26G28G 1
 -13619436.90244 -10612541.66644  21953003.4304   21953004.3454
 -12882997.28744 -10038683.69444  22641622.3674   22641623.2214
  -6507590.12144  -5070846.14544  23782680.9484   23782683.7934
 -23831127.11144 -18569680.98144  20645289.8334   20645290.2674
 -25814772.08344 -20115381.25744  20604426.4174   20604426.8374
 -11914395.09444  -9283926.49444  22436226.9024   22436226.7794
   -709830.671 4   -553114.696 4  23742796.412    23742796.311
   -328389.46444   -255885.15444  25140031.5844
 95  6  1  2 33 30.0000000  0  8G 6G21G22G23G17G26G28G 1
 -13529030.75644 -10542095.36944  21970207.1664   21970207.6264
 -12953590.54744 -10093691.38844  22628188.8554   22628190.5814
  -6478432.18844  -5048125.71644  23788229.5854   23788231.0784
 -23843425.82544 -18579264.38644  20642949.5264   20642949.7834
 -25810567.81044 -20112105.19644  20605226.5104   20605226.9584
 -11868921.76144  -9248492.72644  22444880.2584   22444880.1574
   -810560.003 4   -631605.062 4  23723628.329    23723628.166
   -438036.79444   -341324.29144  25119166.1274
 95  6  1  2 34  0.0000000  0  8G 6G21G22G23G17G26G28G 1
 -13438303.89344 -10471399.16144  21987471.8704   21987472.8374
 -13023942.12444 -10148510.76244  22614801.3574   22614802.7654
  -6448886.92644  -5025103.47744  23793851.7224   23793851.7984
 -23855356.78744 -18588561.22544  20640679.0984   20640679.2994
 -25806146.14944 -20108659.74444  20606067.8654   20606068.1934
 -11822920.98744  -9212647.96444  22453634.1234   22453633.7004
   -911116.742 4   -709960.929 4  23704492.865    23704492.757
   -547773.92744   -426833.40244  25098283.2774   25098292.9574
 95  6  1  2 34 30.0000000  0  8G 6G21G22G23G17G26G28G 1
 -13347235.02544 -10400436.45844  22004801.7784   22004802.7074
 -13094012.98644 -10203111.38844  22601467.3064   22601468.1994
  -6418953.59044  -5001778.83444  23799547.9494   23799548.2554
 -23866908.23544 -18597562.34744  20638480.8234   20638481.1824
 -25801489.86244 -20105031.46744  20606953.9374   20606954.4154
 -11776390.55644  -9176390.48544  22462488.5314   22462487.6854
  -1011473.987 4   -788161.352 4  23685395.408    23685395.395
   -657581.07944   -512397.06344  25077387.2344   25077395.4254
 95  6  1  2 35  0.0000000  0  8G 6G21G22G23G17G26G28G 1
 -13255785.92944 -10329177.47144  22022204.2374   22022204.9334
 -13163781.29244 -10257476.26344  22588190.6354   22588191.4564
  -6388596.94344  -4978124.34144  23805324.6954   23805326.3144
 -23878056.15644 -18606249.03344  20636359.4434   20636359.8394
 -25796565.71044 -20101194.46544  20607890.9644   20607891.4154
 -11729304.94944  -9139700.40744  22471448.5584   22471448.5314
  -1111598.024 4   -866180.055 4  23666342.377    23666342.282
   -767411.12844   -597978.52144  25056487.2894   25056497.4664
 95  6  1  2 35 30.0000000  0  8G 6G21G22G23G17G26G28G 1
 -13163986.37544 -10257645.39444  22039673.0074   22039674.1634
 -13233299.34444 -10311646.13044  22574961.6774   22574963.2644
  -6357839.81444  -4954157.80144  23811177.2324   23811178.2944
 -23888846.68244 -18614657.22544  20634306.1414   20634306.4094
 -25791416.19244 -20097181.85544  20608870.9754   20608871.4124
 -11681701.99844  -9102607.19544  22480506.9784   22480506.4534
  -1211519.084 4   -944040.599 4  23647328.000    23647327.945
   -877291.14144   -683599.00044  25035577.5014   25035585.9404
 95  6  1  2 36  0.0000000  0  8G 6G21G22G23G17G26G28G 1
 -13071844.88244 -10185846.87944  22057206.7134   22057208.1024
 -13302566.78544 -10365620.72644  22561780.5684   22561782.1624
  -6326682.56544  -4929879.44544  23817106.2914   23817108.6524
 -23899272.60844 -18622781.31044  20632322.1034   20632322.5044
 -25786048.73144 -20092999.41644  20609892.4044   20609892.7644
 -11633615.33944  -9065137.08344  22489657.4504   22489657.6414
  -1311240.353 4  -1021745.455 4  23628351.727    23628351.548
   -987231.44744   -769266.44244  25014656.4874   25014665.6714
 95  6  1  2 36 30.0000000  0  8G 6G21G22G23G17G26G28G 1
 -12979370.16744 -10113788.70844  22074804.1974   22074805.4614
 -13371580.94644 -10419397.95544  22548647.4984   22548649.0224
  -6295094.84444  -4905265.67644  23823117.7644   23823118.8644
 -23909310.08144 -18630602.70944  20630412.0034   20630412.3684
 -25780446.16244 -20088633.77744  20610958.4594   20610958.7874
 -11585031.47344  -9027279.52444  22498902.7984   22498902.3794
  -1410741.795 4  -1099279.022 4  23609417.258    23609417.037
  -1097206.38644   -854960.91944  24993728.6034   24993736.1634
 95  6  1  2 37  0.0000000  0  8G 6G21G22G23G17G26G28G 1
 -12886607.04844 -10041505.80944  22092456.6334   22092457.7104
 -13440390.27044 -10473015.56244  22535553.6724   22535554.7954
  -6263116.06444  -4880347.19144  23829202.6854   23829204.8554
 -23918982.25944 -18638139.46344  20628571.5224   20628571.7114
 -25774650.55244 -20084117.71744  20612061.2994   20612061.7484
 -11535961.45444  -8989043.14944  22508240.4454   22508239.6904
  -1510061.011 4  -1176670.589 4  23590517.563    23590517.274
  -1207249.61344   -940708.58744  24972787.7174   24972791.2444
 95  6  1  2 37 30.0000000  0  8G 6G21G22G23G17G26G28G 1
 -12793580.77044  -9969017.84244  22110158.9544   22110160.0244
 -13509009.94044 -10526485.38744  22522495.7934   22522496.7754
  -6230775.71444  -4855146.94244  23835356.7714   23835359.4364
 -23928309.45344 -18645407.39544  20626796.6164   20626796.8994
 -25768676.37444 -20079462.51444  20613198.1374   20613198.5104
 -11486424.83544  -8950443.18344  22517666.9994   22517666.4244
  -1609220.327 4  -1253937.561 4  23571648.147    23571647.905
  -1317398.89344                  24951826.7274
 95  6  1  2 38  0.0000000  0  8G 6G21G22G23G17G26G28G 1
 -12700190.48244  -9896246.23644  22127930.5414   22127931.2514
 -13577347.70144 -10579735.54044  22509491.6154   22509492.1334
  -6197990.00644  -4829599.67944  23841595.9494   23841596.9864
 -23937214.63844 -18652346.49044  20625102.0874   20625102.0234
 -25762417.86244 -20074585.75644  20614389.1854   20614389.5424
 -11436332.33744  -8911410.07944  22527199.3024   22527199.4284
  -1708127.458 4  -1331008.031 4  23552826.740    23552826.438
  -1427568.09644  -1112384.70344  24930862.2254   24930869.5484
 95  6  1  2 38 30.0000000  0  8G 6G21G22G23G17G26G28G 1
 -12606438.58144  -9823192.85744  22145771.0744   22145771.5904
 -13645422.28044 -10632780.63344  22496537.3254   22496538.1224
  -6164778.90344  -4803720.94144  23847915.9524   23847915.7874
 -23945742.96544 -18658991.92344  20623479.1224   20623479.1364
 -25755881.89444 -20069492.79544  20615632.9554   20615633.1504
 -11385685.55844  -8871945.06744  22536837.0674   22536836.8174
  -1806798.245 4  -1407894.335 4  23534050.242    23534049.967
  -1537775.52344  -1198260.34944  24909890.3004
 95  6  1  2 39  0.0000000  0  8G 6G21G22G23G17G26G28G 1
 -12512312.98944  -9749848.28944  22163682.5904   22163684.1704
 -13713244.00244 -10685628.69644  22483631.3464   22483632.2004
  -6131168.76544  -4777531.27344  23854311.7494   23854313.9714
 -23953934.44344 -18665374.88844  20621920.3224   20621920.5104
 -25749076.74444 -20064190.08644  20616927.8434   20616928.2424
 -11334502.81044  -8832062.41044  22546576.8114   22546576.3604
  -1905246.324 4  -1484607.098 4  23515316.301    23515315.898
  -1648044.08044  -1284183.61244  24888906.6324   24888913.2774
 95  6  1  2 39 30.0000000  0  8G 6G21G22G23G17G26G28G 1
 -12417815.04744  -9676213.58644  22181664.8964   22181666.0504
 -13780821.59144 -10738286.52044  22470771.6684   22470772.5884
  -6097160.11544  -4751031.06844  23860783.6584   23860784.2234
 -23961804.70544 -18671507.55444  20620422.6474   20620422.9274
 -25742003.16344 -20058678.20944  20618273.8094   20618274.3464
 -11282809.43644  -8791781.86344  22556413.9684   22556413.8884
  -2003468.562 4  -1561143.876 4  23496625.217    23496624.844
  -1758375.66644  -1370156.04144  24867910.9754   24867917.0414
 95  6  1  2 40  0.0000000  0  8G 6G21G22G23G17G26G28G 1
 -12322983.12344  -9602318.62844  22199710.8164   22199712.1544
 -13848192.57644 -10790783.35044  22457951.4054   22457951.7714
  -6062780.45844  -4724241.80044  23867325.7924   23867326.5304
 -23969394.58544 -18677421.73844  20618978.3644   20618978.6914
 -25734707.05844 -20052992.93744  20619662.2074   20619662.7854
 -11230642.75544  -8751132.51544  22566340.7284   22566340.9314
  -2101492.091 4  -1637525.816 4  23477971.863    23477971.517
  -1868797.59144  -1456198.82644  24846898.5064   24846903.0834
 95  6  1  2 40 30.0000000  0  8G 6G21G22G23G17G26G28G 1
 -12227801.42344  -9528151.11444  22217823.4714   22217824.8944
 -13915320.28144 -10843090.61144  22445177.3614   22445178.2394
  -6027988.28944  -4697131.04944  23873946.2264   23873947.7774
 -23976652.76244 -18683077.45144  20617597.1274   20617597.4094
 -25727161.67544 -20047113.42244  20621098.1214   20621098.5834
 -11177963.23844  -8710083.54244  22576365.2414   22576365.1034
  -2199280.287 4  -1713724.384 4  23459363.314    23459362.953
  -1979265.83844  -1542277.74144  24825877.0104   24825881.7444
 95  6  1  2 41  0.0000000  0  8G 6G21G22G23G17G26G28G 1
 -12132340.43844  -9453765.97844  22235989.1594   22235989.8524
 -13982258.40344 -10895250.15644  22432439.3424   22432440.5684
  -5992841.33644  -4669743.85344  23880634.2794   23880635.4134
 -23983610.83444 -18688499.31644  20616273.1124   20616273.3384
 -25719427.95344 -20041087.14944  20622569.8254   20622570.3004
 -11124831.37244  -8668682.09144  22586475.8044   22586476.0734
  -2296884.521 4  -1789779.604 4  23440789.851    23440789.486
  -2089825.90744  -1628428.19644  24804837.8044   24804845.9954
 95  6  1  2 41 30.0000000  0  8G 6G21G22G23G17G26G28G 1
 -12036592.96744  -9379157.61344  22254209.2774   22254210.5294
 -14048963.94344 -10947228.46944  22419745.5354   22419746.7784
  -5957304.70744  -4642053.02844  23887397.0384   23887398.7844
 -23990223.65444 -18693652.15544  20615014.6974   20615014.8754
 -25711489.54744 -20034901.38044  20624080.4794   20624080.8434
 -11071214.39644  -8626902.64044  22596678.8534   22596678.3504
  -2394275.644 4  -1865668.758 4  23422256.812    23422256.518
  -2200441.49744  -1714621.92844  24783788.2944   24783796.9824
 95  6  1  2 42  0.0000000  0  8G 6G21G22G23G17G26G28G 1
 -11940546.94944  -9304316.61344  22272486.3184   22272487.3834
 -14115402.11944 -10998998.45144  22407102.7384   22407103.7584
  -5921360.44844  -4614044.54344  23894236.8874   23894237.9224
 -23996465.13944 -18698515.64244  20613826.9594   20613827.2524
 -25703322.05044 -20028537.10144  20625634.6674   20625635.0484
 -11017084.59444  -8584723.58744  22606979.5284   22606979.7824
  -2491432.304 4  -1941375.215 4  23403768.482    23403768.193
  -2311082.06044  -1800835.09144  24762733.8854   24762743.5664
 95  6  1  2 42 30.0000000  0  8G 6G21G22G23G17G26G28G 1
 -11844193.41144  -9229235.98144  22290821.8704   22290822.8554
 -14181551.76244 -11050543.59144  22394515.0194   22394516.5114
  -5885025.95944  -4585731.98944  23901150.9724   23901153.8554
 -24002314.99744 -18703073.96344  20612713.6824   20612713.8394
 -25694917.38344 -20021988.01344  20627233.9414   20627234.3744
 -10962440.50344  -8542143.79644  22617377.9024   22617377.2384
  -2588350.233 4  -2016895.645 4  23385325.585    23385325.244
  -2421736.37144  -1887059.04944  24741677.0054   24741685.4454
 95  6  1  2 43  0.0000000  0  8G 6G21G22G23G17G26G28G 1
 -11747531.65244  -9153915.18744  22309216.0504   22309217.9414
 -14247421.80244 -11101870.85144  22381980.3514   22381981.4494
  -5848329.38144  -4557137.34044  23908134.6894   23908135.9904
 -24007784.36144 -18707335.79744  20611672.9734   20611673.1674
 -25686288.76944 -20015264.42144  20628876.0184   20628876.5724
 -10907299.66844  -8499176.92644  22627870.9734   22627871.2274
  -2685037.246 4  -2092236.148 4  23366926.580    23366926.335
  -2532421.07144  -1973306.69744  24720614.1774   24720617.6584
 95  6  1  2 43 30.0000000  0  8G 6G21G22G23G17G26G28G 1
 -11650560.59544  -9078353.37044  22327668.9994   22327670.0044
 -14313018.47444 -11152985.09644  22369497.7524   22369498.5724
  -5811280.79844  -4528268.37744  23915184.7454   23915186.3864
 -24012885.71044 -18711310.86244  20610702.1464   20610702.3784
 -25677437.14044 -20008367.05144  20630560.4094   20630560.7754
 -10851668.30544  -8455827.81344  22638457.2954   22638456.8194
  -2781495.704 4  -2167398.557 4  23348571.104    23348571.006
  -2643142.31644  -2059582.77444  24699544.3074   24699550.5354
 95  6  1  2 44  0.0000000  0  8G 6G21G22G23G17G26G28G 1
 -11553267.02544  -9002540.25344  22346183.3214   22346185.0964
 -14378338.30944 -11203883.63844  22357067.8284   22357068.3124
  -5773890.50144  -4499133.14944  23922299.8004   23922300.7534
 -24017622.72344 -18715002.03944  20609800.7334   20609800.9594
 -25668343.97244 -20001281.46844  20632290.7544   20632291.2634
 -10795552.43144  -8412101.16444  22649135.5834   22649135.2594
  -2877716.763 4  -2242375.991 4  23330260.675    23330260.842
  -2753895.74144  -2145883.94144  24678468.4004   24678473.3894
 95  6  1  2 44 30.0000000  0  8G 6G21G22G23G17G26G28G 1
 -11455631.21444  -8926460.45644  22364762.8194   22364763.3114
 -14443374.61244 -11254561.25044  22344691.7234   22344692.3314
  -5736147.90044  -4469723.35144  23929482.1834   23929483.6844
 -24021990.04944 -18718405.13944  20608969.6224   20608969.7874
 -25658988.90544 -19993991.80544  20634070.8974   20634071.3844
 -10738946.44944  -8367992.62244  22659907.5664   22659907.2994
  -2973682.336 4  -2317154.337 4  23311998.901    23311999.244
  -2864670.52544  -2232201.76444  24657388.2644
 95  6  1  2 45  0.0000000  0  8G 6G21G22G23G17G26G28G 1
 -11357678.64144  -8850133.83344  22383402.8394   22383404.2774
 -14508155.36944 -11305039.73044  22332364.1754   22332365.0224
  -5698048.19044  -4440035.34744  23936732.4304   23936733.7404
 -24026008.97744 -18721536.76244  20608204.8514   20608204.9824
 -25649367.36144 -19986494.50344  20635901.7984   20635902.3754
 -10681863.87144  -8323512.68744  22670770.1554   22670769.5374
  -3069394.605 4  -2391735.304 4  23293785.456    23293785.855
  -2975465.53644  -2318535.37944  24636304.2964   24636310.7244
 95  6  1  2 45 30.0000000  0  8G 6G21G22G23G17G26G28G 1
 -11259436.22444  -8773581.36144  22402097.4734   22402098.5074
 -14572684.91944 -11355322.47144  22320084.8904   22320085.8214
  -5659603.18344  -4410078.28344  23944048.4624   23944049.5964
 -24029714.92644 -18724424.51644  20607499.7314   20607500.0354
 -25639489.85444 -19978797.75144  20637781.4944   20637782.0204
 -10624314.72044  -8278669.19944  22681721.4034   22681721.1644
  -3164864.878 4  -2466127.712 4  23275618.033    23275618.386
  -3086289.26244  -2404891.35144  24615215.7344   24615222.1844
 95  6  1  2 46  0.0000000  0  8G 6G21G22G23G17G26G28G 1
 -11160890.20944  -8696792.32144  22420849.9034   22420851.3164
 -14636946.71644 -11405396.56344  22307856.1294   22307857.1614
  -5620799.26844  -4379841.54844  23951432.4624   23951434.1754
 -24033090.23844 -18727054.62444  20606857.3444   20606857.6164
 -25629334.94244 -19970884.83944  20639713.9174   20639714.4364
 -10566281.51244  -8233448.54144  22692764.6664   22692764.0934
  -3260069.062 4  -2540312.776 4  23257501.293    23257501.613
  -3197120.34344  -2491253.03144  24594125.4894   24594129.6134
 95  6  1  2 46 30.0000000  0  8G 6G21G22G23G17G26G28G 1
 -11062047.41444  -8619772.01544  22439659.5064   22439661.1004
 -14700941.38844 -11455262.51344  22295678.1664   22295679.0384
  -5581623.62444  -4349315.11944  23958887.0564   23958889.2474
 -24036119.98544 -18729415.46244  20606280.8274   20606280.8634
 -25618914.77844 -19962765.23344  20641696.8144   20641697.4554
 -10507750.40544  -8187839.89144  22703902.7554   22703902.6754
  -3355001.049 4  -2614285.739 4  23239436.371    23239436.643
  -3307947.35244  -2577611.56244  24573035.6004   24573038.4674
 95  6  1  2 47  0.0000000  0  8G 6G21G22G23G17G26G28G 1
 -10962935.60344  -8542542.08944  22458520.2904   22458521.6674
 -14764676.77144 -11504926.42944  22283549.7864   22283550.7684
  -5542086.83144  -4318507.29444  23966410.9524   23966411.3244
 -24038815.38344 -18731515.76344  20605767.9134   20605768.0974
 -25608253.62344 -19954457.84444  20643725.5774   20643725.9794
 -10448726.47144  -8141847.22144  22715134.7014   22715134.1904
  -3449676.405 4  -2688058.733 4  23221420.303    23221420.490
  -3418784.56444  -2663978.05144  24551943.9744   24551949.8414
 95  6  1  2 47 30.0000000  0  8G 6G21G22G23G17G26G28G 1
 -10863543.57244  -8465093.81044  22477433.8294   22477434.4744
 -14828141.43144 -11554379.38644  22271472.9024   22271473.4714
  -5502180.33744  -4287411.37244  23974005.0914   23974005.8964
 -24041165.63444 -18733347.12444  20605320.5994   20605320.9614
 -25597357.15044 -19945967.09244  20645799.1924   20645799.6734
 -10389208.79144  -8095469.82944  22726460.4304   22726460.6894
  -3544090.207 4  -2761627.915 4  23203453.957    23203454.112
  -3529630.93144  -2750351.63144  24530850.2094   24530856.1354
 95  6  1  2 48  0.0000000  0  8G 6G21G22G23G17G26G28G 1
 -10763876.08544  -8387430.88944  22496399.5204   22496400.6694
 -14891354.84544 -11603636.56844  22259443.7284   22259445.2154
  -5461888.80944  -4256015.41844  23981672.2014   23981673.3774
 -24043152.51744 -18734895.34244  20604942.4264   20604942.6504
 -25586227.26844 -19937294.45844  20647917.0544   20647917.6954
 -10329226.92644  -8048730.72044  22737874.5694   22737874.7034
  -3638239.855 4  -2834991.257 4  23185537.933    23185537.869
  -3640472.17244  -2836721.21744  24509757.5844   24509760.7094
 95  6  1  2 48 30.0000000  0  8G 6G21G22G23G17G26G28G 1
 -10663934.36644  -8309554.30244  22515417.8254   22515419.9824
 -14954310.00444 -11652692.50344  22247463.7104   22247465.0274
  -5421192.68544  -4224304.22444  23989416.5634   23989418.5364
 -24044786.19344 -18736168.33144  20604631.6434   20604631.9134
 -25574861.18144 -19928437.76944  20650080.0124   20650080.4784
 -10268794.79344  -8001640.75844  22749374.4114   22749374.6214
  -3732124.389 4  -2908148.029 4  23167672.274    23167672.262
  -3751307.66844  -2923086.42744  24488666.1554   24488670.2134
 95  6  1  2 49  0.0000000  0  8G 6G21G22G23G17G26G28G 1
 -10563679.42644  -8231433.62444  22534495.9714   22534497.6334
 -15016995.84944 -11701538.57844  22235535.1634   22235535.6664
  -5380072.65344  -4192262.71844  23997241.7334   23997243.9174
 -24046053.87744 -18737156.13544  20604390.4444   20604390.4854
 -25563219.88144 -19919366.62844  20652295.2634   20652295.6604
 -10207908.74044  -7954197.08644  22760960.5724   22760960.7624
  -3825716.537 4  -2981076.952 4  23149862.178    23149862.240
  -3862118.26444  -3009432.11344  24467579.7484   24467582.9624
 95  6  1  2 49 30.0000000  0  8G 6G21G22G23G17G26G28G 1
 -10463139.53844  -8153090.92644  22553628.1444   22553629.3264
 -15079461.65644 -11750213.20844  22223648.2024   22223649.2044
  -5338570.68044  -4159923.60744  24005139.0044   24005141.1874
 -24046991.30944 -18737886.59344  20604211.9984   20604212.0854
 -25551334.35744 -19910105.18244  20654556.9944   20654557.5174
 -10146617.77544  -7906437.91044  22772623.8884   22772623.3064
  -3919047.309 4  -3053802.213 4  23132101.892    23132101.861
  -3972942.21944  -3095788.26444  24446490.2934   24446493.2494
 95  6  1  2 50  0.0000000  0  8G 6G21G22G23G17G26G28G 1
 -10362315.24444  -8074526.60244  22572814.6104   22572815.6934
 -15141706.13644 -11798715.37944  22211803.3364   22211803.8084
  -5296708.87544  -4127304.05744  24013105.0044   24013108.1704
 -24047601.57144 -18738362.11744  20604095.8904   20604096.1454
 -25539202.27444 -19900651.61544  20656865.6994   20656866.1874
 -10084902.07644  -7858347.75944  22784367.9104   22784367.5974
  -4012113.856 4  -3126321.578 4  23114391.855    23114391.849
  -4083786.80344  -3182160.43144  24425397.2124
 95  6  1  2 50 30.0000000  0  8G 6G21G22G23G17G26G28G 1
 -10261175.13644  -7995716.18544  22592060.6484   22592063.2374
 -15203691.81344 -11847015.87644  22200007.8754   22200008.9884
  -5254493.88244  -4094409.35544  24021138.5804   24021140.3624
 -24047865.52244 -18738567.78944  20604045.7414   20604045.8474
 -25526787.30744 -19890977.61644  20659228.1894   20659228.5434
 -10022692.13944  -7809872.49444  22796206.1934   22796206.2394
  -4104885.860 4  -3198611.433 4  23096737.879    23096737.901
  -4194633.79844  -3268534.55044  24404303.6264
 95  6  1  2 51  0.0000000  0  8G 6G21G22G23G17G26G28G 1
 -10159752.37244  -7916685.52244  22611360.8594   22611361.9924
 -15265430.39344 -11895123.84444  22188259.3704   22188260.3594
  -5211974.23044  -4061277.22344  24029229.7624   24029230.8974
 -24047792.42044 -18738510.82344  20604059.5894   20604059.7324
 -25514107.70344 -19881097.40944  20661640.9504   20661641.4834
  -9959985.68544  -7761010.34044  22808138.8454   22808139.0374
  -4197374.913 4  -3270680.804 4  23079137.829    23079137.855
  -4305492.20344  -3354917.56344  24383207.4334
 95  6  1  2 51 30.0000000  0  8G 6G21G22G23G17G26G28G 1
 -10058093.03544  -7837470.52644  22630706.1564   22630707.2624
 -15326924.96844 -11943041.67344  22176557.4774   22176558.0744
  -5169175.56344  -4027927.67844  24037373.9224   24037376.2584
 -24047406.29144 -18738209.94644  20604133.0954   20604133.3534
 -25501193.09244 -19871034.08444  20664098.5454   20664099.0354
  -9896789.80044  -7711766.79944  22820164.7014   22820164.4854
  -4289598.312 4  -3342543.169 4  23061588.343    23061588.330
  -4416370.74144  -3441316.23144  24362107.5864   24362110.6734
 95  6  1  2 52  0.0000000  0  8G 6G21G22G23G17G26G28G 1
  -9956209.20044  -7758080.58844  22650093.9954   22650094.9174
 -15388165.82444 -11990761.80244  22164903.6394   22164904.5824
  -5126111.78844  -3994371.57044  24045568.4164   24045571.2994
 -24046726.37144 -18737680.13244  20604262.4024   20604262.5964
 -25488049.84844 -19860792.59844  20666599.5774   20666600.1244
  -9833107.29144  -7662144.06244  22832283.0824   22832283.4464
  -4381558.111 4  -3414200.132 4  23044088.986    23044088.930
  -4527265.79644  -3527727.77944  24341005.0034   24341007.5154
 95  6  1  2 52 30.0000000  0  8G 6G21G22G23G17G26G28G 1
  -9854018.67544  -7678451.67844  22669540.3164   22669541.7754
 -15449073.73644 -12038222.50644  22153313.1844   22153313.7804
  -5082679.78444  -3960528.50444  24053833.7114   24053835.5694
 -24045678.21644 -18736863.38244  20604461.9584   20604462.1724
 -25474589.99344 -19850304.40044  20669160.8974   20669161.4784
  -9768883.39044  -7612099.47244  22844504.4334   22844504.1524
  -4473167.657 4  -3485584.168 4  23026656.155    23026656.275
  -4638085.85644  -3614080.87644  24319916.5124   24319923.2554
 95  6  1  2 53  0.0000000  0  8G 6G21G22G23G17G26G28G 1
  -9751561.95044  -7598615.33044  22689037.4594   22689039.2084
 -15509697.44444 -12085461.73644  22141776.9874   22141777.7464
  -5038902.55044  -3926416.43844  24062164.2654   24062167.4454
 -24044305.54344 -18735793.76244  20604723.2114   20604723.3424
 -25460861.33344 -19839606.74544  20671773.3854   20671773.9954
  -9704192.40644  -7561690.91744  22856814.7964   22856815.2094
  -4564468.882 4  -3556727.955 4  23009282.063    23009282.166
  -4748872.40344  -3700407.86344  24298834.2474   24298840.2704
 95  6  1  2 53 30.0000000  0  8G 6G21G22G23G17G26G28G 1
  -9648843.46744  -7518575.01144  22708584.2744   22708585.8294
 -15570064.20744 -12132500.74344  22130289.5124   22130290.2194
  -4994778.70344  -3892034.27844  24070560.7244   24070562.6174
 -24042618.94844 -18734479.53244  20605044.1054   20605044.1804
 -25446881.07844 -19828713.03944  20674433.7024   20674434.3014
  -9639057.14544  -7510936.17544  22869209.6964   22869209.6644
  -4655474.166 4  -3627641.142 4  22991964.289    22991964.486
  -4859639.09444  -3786719.43044  24277755.9364   24277759.4314
 95  6  1  2 54  0.0000000  0  8G 6G21G22G23G17G26G28G 1
  -9545893.40844  -7438354.25744  22728174.8024   22728176.3384
 -15630217.78844 -12179373.65044  22118842.5374   22118843.7404
  -4950347.79344  -3857412.87644  24079016.0754   24079017.8674
 -24040644.49444 -18732940.98644  20605419.7894   20605420.0084
 -25432676.74744 -19817644.73544  20677136.7374   20677137.3114
  -9573527.17344  -7459873.86344  22881679.5034   22881679.1914
  -4746222.104 4  -3698353.798 4  22974695.503    22974695.771
  -4970424.59144  -3873045.60544  24256674.2734   24256680.3114
 95  6  1  2 54 30.0000000  0  8G 6G21G22G23G17G26G28G 1
  -9442724.10544  -7357962.66144  22747807.3484   22747809.1424
 -15690173.79144 -12226092.61144  22107433.2814   22107434.3494
  -4905618.90544  -3822559.29744  24087528.2714   24087529.4684
 -24038372.57644 -18731170.66044  20605852.0644   20605852.3614
 -25418260.56944 -19806411.35344  20679880.0994   20679880.5884
  -9507614.80544  -7408513.58244  22894222.2754   22894221.9584
  -4836719.406 4  -3768871.158 4  22957474.410    22957474.698
  -5081222.64144  -3959381.56544  24235589.7894   24235593.9274
 95  6  1  2 55  0.0000000  0  8G 6G21G22G23G17G26G28G 1
  -9339230.31444  -7277318.21644  22767501.5404   22767502.6004
 -15749814.35744 -12272565.75344  22096084.1064   22096085.1694
  -4860492.07544  -3787395.59544  24096115.4044   24096115.7684
 -24035683.79144 -18729075.50544  20606363.7454   20606363.9984
 -25403523.18844 -19794927.68644  20682684.6224   20682685.1434
  -9441196.69644  -7356759.22544  22906861.1774   22906860.8054
  -4926850.559 4  -3839103.208 4  22940322.964    22940323.293
  -5191913.63644  -4045634.09544  24214525.6764   24214531.9384
 95  6  1  2 55 30.0000000  0  8G 6G21G22G23G17G26G28G 1
  -9235479.33644  -7196473.35644  22787244.7124   22787246.8594
 -15809204.60444 -12318843.83744  22084782.5784   22084783.7554
  -4815036.79544  -3751975.96844  24104764.8814   24104767.1664
 -24032644.63144 -18726707.33044  20606942.1034   20606942.3614
 -25388537.91944 -19783250.85744  20685536.1954   20685536.6344
  -9374336.29344  -7304660.21644  22919584.2434   22919584.3244
  -5016673.639 4  -3909095.200 4  22923230.182    22923230.558
  -5302549.65544  -4131843.80144  24193472.4784   24193478.3684
 95  6  1  2 56  0.0000000  0  8G 6G21G22G23G17G26G28G 1
  -9131454.27144  -7115414.92344  22807039.9654   22807041.9294
 -15868334.66444 -12364919.19644  22073530.4414   22073531.2044
  -4769243.94344  -3716293.29444  24113479.0844   24113479.5184
 -24029256.65844 -18724067.34844  20607586.8084   20607586.9284
 -25373296.92144 -19771374.76044  20688436.4494   20688436.8834
  -9307030.83444  -7252214.40844  22932392.0724   22932392.2504
  -5106176.695 4  -3978837.825 4  22906198.431    22906198.527
  -5413117.40044  -4218000.34044  24172432.1384   24172436.3304
 95  6  1  2 56 30.0000000  0  8G 6G21G22G23G17G26G28G 1
  -9027182.75744  -7034164.47544  22826882.1884   22826884.0914
 -15927226.40644 -12410808.84644  22062323.6844   22062324.8824
  -4723142.97744  -3680370.56344  24122251.7664   24122253.7354
 -24025555.72944 -18721183.50844  20608291.1614   20608291.3204
 -25357833.51944 -19759325.36444  20691379.0684   20691379.5214
  -9239303.01044  -7199439.48844  22945280.2174   22945279.7324
  -5195380.413 4  -4048347.199 4  22889223.536    22889223.423
  -5523647.38744  -4304127.43244  24151398.5594   24151401.9464
 95  6  1  2 57  0.0000000  0  8G 6G21G22G23G17G26G28G 1
  -8922707.18544  -6952754.99944  22846763.2894   22846765.9154
 -15985923.75144 -12456547.00644  22051153.8304   22051154.3774
  -4676781.91044  -3644245.12344  24131074.0414   24131077.7074
 -24021599.43044 -18718100.67944  20609043.9304   20609044.1794
 -25342191.25544 -19747136.58844  20694355.6204   20694356.1384
  -9171206.88444  -7146377.57844  22958238.5334   22958238.8954
  -5284326.352 4  -4117655.698 4  22872297.713    22872297.493
  -5634197.15144  -4390269.93744  24130361.8684   24130366.6674
 95  6  1  2 57 30.0000000  0  8G 6G21G22G23G17G26G28G 1
  -8817947.91144  -6871124.44144  22866698.3484   22866699.9494
 -16044326.29244 -12502055.47244  22040040.2594   22040040.9524
  -4630077.66344  -3607852.23344  24139961.2804   24139961.9474
 -24017302.80744 -18714752.65044  20609861.4764   20609861.8674
 -25326279.32444 -19734737.68444  20697383.4744   20697383.9224
  -9102653.75044  -7092959.55044  22971283.5364   22971283.9974
  -5372921.701 4  -4186691.006 4  22855438.584    22855438.232
  -5744678.13144  -4476358.84744  24109337.6114
 95  6  1  2 58  0.0000000  0  8G 6G21G22G23G17G26G28G 1
  -8712947.03944  -6789305.66044  22886679.3044   22886681.0694
 -16102441.65844 -12547340.17444  22028981.3124   22028982.4664
  -4583070.25744  -3571223.24044  24148907.0384   24148908.5254
 -24012687.35544 -18711156.19144  20610739.8914   20610740.0104
 -25310100.97744 -19722131.18844  20700462.1104   20700462.5984
  -9033665.71244  -7039202.65444  22984411.6924   22984411.8354
  -5461190.834 4  -4255472.129 4  22838641.556    22838641.343
  -5855127.14944  -4562422.84944  24088319.6224   24088323.4584
 95  6  1  2 58 30.0000000  0  8G 6G21G22G23G17G26G28G 1
  -8607743.45244  -6707328.89744  22906698.8894   22906701.3614
 -16160279.83344 -12592408.87244  22017975.0144   22017976.0584
  -4535794.01744  -3534384.67144  24157903.5374   24157905.2644
 -24007771.50744 -18707325.66144  20611675.3094   20611675.6074
 -25293659.30144 -19709319.50044  20703590.8664   20703591.5124
  -8964262.82844  -6985122.49944  22997618.5574   22997619.1884
  -5549147.647 4  -4324009.879 4  22821903.888    22821903.755
  -5965559.08944  -4648473.52244  24067305.1454   24067308.3664
 95  6  1  2 59  0.0000000  0  8G 6G21G22G23G17G26G28G 1
  -8502335.14744  -6625192.61644  22926757.5424   22926759.5184
 -16217829.25944 -12637252.56644  22007023.7434   22007024.3974
  -4488238.42344  -3497328.45044  24166952.7414   24166954.9304
 -24002558.19944 -18703263.34144  20612667.2844   20612667.4244
 -25276939.02744 -19696290.72144  20706772.7134   20706773.2974
  -8894435.50944  -6930711.61344  23010906.1944   23010906.0404
  -5636779.474 4  -4392294.398 4  22805228.011    22805227.974
  -6075961.03744  -4734500.88844  24046296.2254   24046300.8004
 95  6  1  2 59 30.0000000  0  8G 6G21G22G23G17G26G28G 1
  -8396724.53244  -6542898.69744  22946854.8524   22946856.4324
 -16275080.45344 -12681863.85344  21996129.1564   21996129.6104
  -4440380.28744  -3460036.47244  24176060.1824   24176061.6044
 -23997032.76144 -18698957.81244  20613718.7034   20613719.0034
 -25259926.77644 -19683034.42344  20710010.0044   20710010.5374
  -8824163.66244  -6875954.33644  23024278.4764   23024278.6744
  -5724072.858 4  -4460315.195 4  22788616.563    22788616.637
  -6186313.74844  -4820489.85844  24025296.7194   24025299.8994
 95  6  1  3  0  0.0000000  0  8G 6G21G22G23G17G26G28G 1
  -8290905.30744  -6460442.22844  22966991.9554   22966993.4764
 -16332059.55544 -12726263.11444  21985286.4524   21985287.6914
  -4392223.16644  -3422511.53444  24185223.4034   24185224.6664
 -23991198.33244 -18694411.50644  20614829.0224   20614829.0954
 -25242627.59444 -19669554.54344  20713301.9154   20713302.4634
  -8753467.25644  -6820866.23344  23037731.5214   23037731.7064
  -5811033.719 4  -4528076.881 4  22772068.427    22772068.575
  -6296618.42644  -4906441.40144  24004306.4254   24004308.9634
 95  6  1  3  0 30.0000000  0  8G 6G21G22G23G17G26G28G 1
  -8184837.68444  -6377792.20444  22987175.8784   22987176.1514
 -16388772.08544 -12770454.68644  21974494.1884   21974495.1464
  -4343743.17244  -3384734.97044  24194449.3414   24194451.6274
 -23985046.42444 -18689617.80444  20615999.6984   20616000.0044
 -25225058.18244 -19655864.09644  20716645.1984   20716645.8844
  -8682335.46244  -6765438.85944  23051267.5074   23051267.3334
  -5897646.204 4  -4595567.105 4  22755586.532    22755586.784
  -6406846.19944  -4992332.97544  23983330.4094
 95  6  1  3  1  0.0000000  0  8G 6G21G22G23G17G26G28G 1
  -8078493.96944  -6294927.03644  23007412.2654   23007415.0454
 -16445220.39744 -12814440.38244  21963752.3274   21963753.0364
  -4294926.54944                  24203739.4614
 -23978563.40744 -18684566.10244  20617233.2314   20617233.6624
 -25207228.54444 -19641970.87444  20720038.0054   20720038.6424
  -8610761.77944  -6709667.17344  23064887.4514   23064885.4394
  -5983902.499 4  -4662779.790 4  22739172.481    22739172.715
  -6516992.98244  -5078161.45444  23962369.9944
 95  6  1  3  1 30.0000000  0  8G 6G21G22G23G17G26G28G 1
  -7971871.63644  -6211844.78144  23027701.9594   23027702.3834
 -16501423.37444 -12858234.87244  21953057.3544   21953057.7094
  -4245780.10944  -3308400.25744  24213091.3504
 -23971741.04444 -18679249.97644  20618531.4864   20618531.5414
 -25189133.92444 -19627871.17244  20723481.3604   20723482.0534
  -8538755.31844  -6653558.23944  23078589.9414   23078590.8554
  -6069803.366 4  -4729715.507 4  22722826.050    22722826.284
  -6627054.76944                  23941425.9134
 95  6  1  3  2  0.0000000  0  8G 6G21G22G23G17G26G28G 1
  -7864975.56744  -6128549.22444  23048043.7144   23048046.4694
 -16557390.64544 -12901845.68344  21942407.0744   21942408.0294
  -4196343.32444  -3269878.13444  24222499.2484   24222499.4344
 -23964598.60244 -18673684.44244  20619890.8304   20619890.8134
 -25170790.10544 -19613577.29444  20726972.2054   20726972.4934
  -8466342.40844  -6597132.62744  23092369.7014   23092369.1574
  -6155360.269 4  -4796383.214 4  22706545.167    22706545.383
  -6737049.67444  -5249633.92744  23920494.4834   23920495.9734
 95  6  1  3  2 30.0000000  0  8G 6G21G22G23G17G26G28G 1
  -7757848.20244  -6045073.43544  23068429.5704   23068430.6704
 -16613133.95944 -12945282.01044  21931799.3674   21931800.3504
  -4146642.61144  -3231150.40044  24231956.4634   24231958.3774
 -23957168.03244 -18667894.37944  20621304.5594   20621304.8804
 -25152212.89144 -19599101.54644  20730507.3834   20730507.8324
  -8393533.85844  -6540398.67344  23106224.9154   23106224.0494
  -6240591.372 4  -4862797.027 4  22690326.209    22690326.421
  -6847003.46544  -5335312.03044  23899570.9704   23899573.2734
 95  6  1  3  3  0.0000000  0  8G 6G21G22G23G17G26G28G 1
  -7650535.81344  -5961453.47944  23088850.1914   23088850.7834
 -16668652.39144 -12988543.10444  21921234.5594   21921235.5104
  -4096689.82544  -3192226.25444  24241462.7664   24241462.9144
 -23949457.19744 -18661885.93344  20622771.9564   20622772.3194
 -25133380.42744 -19584426.90044  20734090.8764   20734091.3964
  -8320339.53944  -6483364.16644  23120153.4494   23120154.3884
  -6325501.673 4  -4928960.882 4  22674168.266    22674168.601
  -6956932.98044  -5420971.23144  23878652.0814   23878656.9634
 95  6  1  3  3 30.0000000  0  8G 6G21G22G23G17G26G28G 1
  -7543065.12944  -5877710.16544  23109301.2014   23109302.1564
 -16723932.96844 -13031618.86144  21910715.2334   21910716.0624
  -4046486.18944  -3153106.59444  24251016.4184   24251019.4684
 -23941462.95244 -18655656.65044  20624293.1704   20624293.1344
 -25114282.04044 -19569545.04044  20737725.2444   20737725.7194
  -8246758.64444  -6426028.39644  23134155.2664   23134153.7094
  -6410085.722 4  -4994870.514 4  22658072.452    22658072.761
  -7066821.26644  -5506598.31444  23857741.0764   23857742.3234
 95  6  1  3  4  0.0000000  0  8G 6G21G22G23G17G26G28G 1
  -7435405.57344  -5793819.69644  23129788.0944   23129791.0104
 -16778926.62544 -13074471.04544  21900250.2444   21900251.1384
  -3996004.47844  -3113770.27144  24260622.4584   24260624.3204
 -23933145.39244 -18649175.43444  20625876.0224   20625876.2784
 -25094889.06844 -19554433.63544  20741415.6754   20741416.1194
  -8172755.87044  -6368363.90844  23148237.5584   23148236.7354
  -6494303.158 4  -5060494.482 4  22642046.406    22642046.686
  -7176631.66144  -5592164.71644  23836844.5854   23836847.8804
 95  6  1  3  4 30.0000000  0  8G 6G21G22G23G17G26G28G 1
  -7327577.39144  -5709797.82444  23150307.4134   23150310.1744
 -16833660.24344 -13117120.55444  21889834.8044   21889835.2104
  -3945247.77844  -3074219.66544  24270281.2654   24270282.9824
 -23924522.84644 -18642456.56544  20627516.9624   20627517.1954
 -25075210.48044 -19539099.67444  20745160.3434   20745160.7424
  -8098345.98444  -6310382.19844  23162397.1854   23162397.3484
  -6578165.566 4  -5125841.799 4  22626087.920    22626088.183
  -7286372.20644  -5677676.69644  23815961.5394   23815963.9854
 95  6  1  3  5  0.0000000  0  8G 6G21G22G23G17G26G28G 1
  -7219565.64144  -5625632.90844  23170861.5704   23170862.9674
 -16888135.98644 -13159569.15044  21879468.4054   21879468.9674
  -3894218.27344  -3034456.46344  24279992.0194   24279992.5194
 -23915586.41144 -18635493.10544  20629217.5464   20629217.6894
 -25055254.50044 -19523549.55344  20748957.8354   20748958.2504
  -8023550.95544  -6252100.34944  23176630.3364   23176630.5714
  -6661670.333 4  -5190910.436 4  22610197.481    22610197.709
  -7396031.57744  -5763125.40044  23795093.8704   23795097.0564
 95  6  1  3  5 30.0000000  0  8G 6G21G22G23G17G26G28G 1
  -7111320.85744  -5541286.43244  23191460.0184   23191461.8254
 -16942318.68544 -13201789.41744  21869157.8204   21869158.4534
  -3842887.37644  -2994458.43744  24289760.1334   24289762.7734
 -23906304.18844 -18628260.19544  20630984.0174   20630984.1844
 -25034999.10644 -19507766.13444  20752812.3434   20752812.7334
  -7948342.64144  -6193496.47944  23190941.8174   23190940.9804
  -6744779.530 4  -5255670.837 4  22594382.314    22594382.631
  -7505563.86644  -5848475.09544  23774250.5644   23774253.4124
 95  6  1  3  6  0.0000000  0  8G 6G21G22G23G17G26G28G 1
  -7002859.60444  -5456771.25144  23212099.4924   23212100.7174
 -16996254.38644 -13243817.21944  21858894.0384   21858894.9854
  -3791288.00444  -2954251.17544  24299578.7844   24299581.9924
 -23896737.78544 -18620805.85044  20632804.2704   20632804.4894
 -25014485.55844 -19491781.54744  20756715.9754   20756716.3164
  -7872767.55544  -6134606.81244  23205323.0914   23205322.5074
  -6827530.493 4  -5320152.095 4  22578635.349    22578635.613
  -7615018.37244  -5933764.17544  23753421.9704   23753425.8574
 95  6  1  3  6 30.0000000  0  8G 6G21G22G23G17G26G28G 1
  -6894173.21044  -5372080.64844  23232781.6274   23232783.6874
 -17049935.62744 -13285646.74244  21848678.8254   21848679.3634
  -3739404.40744  -2913822.42744  24309451.7654   24309454.1934
 -23886887.05644 -18613129.95344  20634678.7054   20634679.0514
 -24993705.16244 -19475589.02844  20760670.3254   20760670.7614
  -7796817.15144  -6075424.69844  23219776.3184   23219776.8764
  -6909912.739 4  -5384346.043 4  22562958.511    22562958.658
  -7724374.19844  -6018976.35244  23732611.8824   23732614.9664
 95  6  1  3  7  0.0000000  0  8G 6G21G22G23G17G26G28G 1
  -6785249.91744  -5287205.44844  23253509.1594   23253510.9494
 -17103330.11444 -13327252.83544  21838518.2974   21838518.8754
  -3687223.68744  -2873162.14944  24319381.6274   24319382.4154
 -23876732.28344 -18605217.13844  20636611.1714   20636611.4384
 -24972637.80844 -19459172.91044  20764679.3714   20764679.6754
  -7720462.69244  -6015927.71944  23234306.1804   23234306.2084
  -6991906.303 4  -5448237.117 4  22547355.614    22547355.701
  -7833602.90844  -6104089.49544  23711826.4854   23711830.4554
 95  6  1  3  7 30.0000000  0  8G 6G21G22G23G17G26G28G 1
  -6676129.75044  -5202176.82844  23274274.4784   23274276.3434
 -17156476.72444 -13368665.74344  21828404.6184   21828405.2674
  -3634787.38044  -2832302.71944  24329359.8444   24329362.1044
 -23866321.79544 -18597105.06244  20638592.2534   20638592.2564
 -24951313.73944 -19442556.74844  20768737.1664   20768737.4254
  -7643729.18844  -5956135.37444  23248908.2764   23248909.4094
  -7073547.031 4  -5511853.244 4  22531819.848    22531819.837
  -7942749.84144  -6189138.90344  23691056.4784   23691056.9624
 95  6  1  3  8  0.0000000  0  8G 6G21G22G23G17G26G28G 1
  -6566799.79544  -5116984.75344  23295079.7674   23295081.1714
 -17209369.11844 -13409880.57244  21818339.6094   21818340.2114
  -3582087.56944  -2791237.96644  24339388.2664   24339390.3154
 -23855637.23144 -18588779.43044  20640625.4394   20640625.6084
 -24929714.92244 -19425726.50544  20772847.3974   20772847.7994
  -7566603.93144  -5896037.78344  23263584.5204   23263584.1654
  -7154818.014 4  -5575181.274 4  22516354.500    22516354.592
  -8051802.54444  -6274114.86944  23670304.3184   23670308.6604
 95  6  1  3  8 30.0000000  0  8G 6G21G22G23G17G26G28G 1
  -6457270.78644  -5031637.59044  23315922.4114   23315923.2494
 -17261985.48844 -13450880.32444  21808327.1414   21808327.6844
  -3529132.00544  -2749973.95844  24349465.4334   24349467.9374
 -23844645.16544 -18580214.17444  20642717.0474   20642717.3904
 -24907815.51844 -19408662.03544  20777014.6294   20777015.1004
  -7489067.23644  -5835619.58144  23278339.1554   23278339.8044
  -7235698.904 4  -5638205.325 4  22500963.403    22500963.527
  -8160744.24244  -6359004.35344  23649573.3184   23649576.2574
 95  6  1  3  9  0.0000000  0  8G 6G21G22G23G17G26G28G 1
  -6347538.92544  -4946132.34244  23336803.5894   23336804.7144
 -17314330.32944 -13491668.48644  21798366.2084   21798366.9114
  -3475929.08644  -2708517.16644  24359589.9094   24359592.9764
 -23833342.63744 -18571407.00544  20644867.8894   20644868.0684
 -24885612.48044 -19391360.96444  20781239.7224   20781240.1194
  -7411123.79544  -5774884.44544  23293171.3574   23293171.5604
  -7316185.360 4  -5700922.022 4  22485647.336    22485647.553
  -8269586.25144  -6443816.16644  23628861.2034   23628864.8884
 95  6  1  3  9 30.0000000  0  8G 6G21G22G23G17G26G28G 1
  -6237672.45044  -4860522.20644  23357709.8694   23357710.2904
 -17366479.28344 -13532304.02144  21788442.5604   21788443.4014
  -3422549.67644  -2666922.89244  24369747.6484   24369749.0894
 -23821792.22244 -18562406.67144  20647065.8654   20647066.2474
 -24863182.18644 -19373882.81444  20785507.8904   20785508.3754
  -7332859.16144  -5713899.00844  23308064.6644   23308063.9464
  -7396339.585 4  -5763379.839 4  22470394.426    22470394.704
  -8378401.76044  -6528607.32044  23608154.0344   23608157.3094
 95  6  1  3 10  0.0000000  0  8G 6G21G22G23G17G26G28G 1
  -6127675.95944  -4774810.75144  23378641.4414   23378644.5404
 -17418419.30544 -13572776.77344  21778558.7274   21778559.3754
  -3368982.37944  -2625182.22444  24379941.4264   24379946.6594
 -23809977.52144 -18553200.40444  20649314.0344   20649314.3434
 -24840527.25444 -19356229.61744  20789819.0214   20789819.5434
  -7254258.05444  -5652651.40244  23323021.9044   23323022.3424
  -7476146.952 4  -5825567.374 4  22455207.539    22455207.833
  -8487162.68644  -6613355.94544  23587457.2764   23587460.1424
 95  6  1  3 10 30.0000000  0  8G 6G21G22G23G17G26G28G 1
  -6017461.17444  -4688929.18944  23399615.0324   23399618.9154
 -17470044.01944 -13613003.79144  21768734.7084   21768735.2084
  -3315125.98344  -2583216.25144  24390189.8814   24390191.4354
 -23797812.60544 -18543721.24244  20651628.8884   20651629.2304
 -24817566.97644 -19338338.49144  20794188.2424   20794188.7304
  -7175228.79044  -5591070.16744  23338060.8144   23338060.4044
  -7555515.996 4  -5887413.359 4  22440104.088    22440104.378
  -8595765.70144  -6697981.54144  23566790.8144   23566793.9984
 95  6  1  3 11  0.0000000  0  8G 6G21G22G23G17G26G28G 1
  -5907067.11244  -4602907.94744  23420622.2444   23420624.1544
 -17521400.50044 -13653021.79744  21758961.7614   21758962.5944
  -3261012.30944  -2541049.83444  24400487.2424   24400491.0094
 -23785346.08344 -18534007.06244  20654001.1954   20654001.5294
 -24794355.08144 -19320251.30044  20798605.3804   20798605.9664
  -7095823.87744  -5529196.21944  23353171.0104   23353170.5214
  -7634487.611 4  -5948949.663 4  22425076.319    22425076.519
  -8704233.76144  -6782501.97644  23546149.7354   23546152.4844
 95  6  1  3 11 30.0000000  0  8G 6G21G22G23G17G26G28G 1
  -5796517.95144  -4516765.85044  23441658.9754   23441660.1414
 -17572479.85544 -13692823.87044  21749241.6884   21749242.3574
  -3206645.00444  -2498685.76444  24410833.0084   24410836.2354
 -23772590.00844 -18524067.26144  20656428.7154   20656428.9414
 -24770897.43744 -19301972.61744  20803069.1544   20803069.5524
  -7016053.58344  -5467037.55344  23368350.8974   23368350.3964
  -7713064.766 4  -6010178.596 4  22410123.536    22410123.914
  -8812552.01744  -6866905.66544  23525537.3854   23525541.4884
 95  6  1  3 12  0.0000000  0  8G 6G21G22G23G17G26G28G 1
  -5685801.42444  -4430493.33644  23462727.2814   23462730.3454
 -17623263.62644 -13732395.62044  21739577.8864   21739578.5444
  -3152021.02644  -2456121.69344  24421227.9944   24421228.4204
 -23759542.33444 -18513900.23944  20658911.6144   20658911.7084
 -24747178.24044 -19283490.12444  20807582.8464   20807583.2244
  -6935897.27144  -5404578.09244  23383604.0864   23383603.5184
  -7791235.770 4  -6071091.046 4  22395248.065    22395248.543
  -8920704.41044  -6951180.10244  23504956.4974   23504960.0864
 95  6  1  3 12 30.0000000  0  8G 6G21G22G23G17G26G28G 1
  -5574926.76044  -4344097.58244  23483825.8534   23483829.0714
 -17673771.01544 -13771752.00444  21729966.7314   21729967.2334
  -3097169.86144  -2413380.61644  24431666.3044   24431669.1634
 -23746231.78944 -18503528.37844  20661444.5534   20661444.5954
 -24723191.33444 -19264799.03044  20812147.4584   20812147.9724
  -6855399.02944  -5341852.20544  23398922.4504   23398922.9024
  -7869011.210 4  -6131695.273 4  22380447.865    22380448.412
  -9028721.70044  -7035349.26144  23484401.4774   23484403.6784
 95  6  1  3 13  0.0000000  0  8G 6G21G22G23G17G26G28G 1
  -5463894.06744  -4257578.69244  23504954.8144   23504959.1104
 -17724011.23144 -13810900.20444  21720406.3054   21720406.9964
  -3042106.77844  -2370474.33844  24442144.2544   24442148.1784
 -23732658.29544 -18492951.61444  20664027.4704   20664027.5454
 -24698918.60144 -19245885.21244  20816766.3434   20816766.9744
  -6774567.22044  -5278866.38144  23414304.2174   23414303.7434
  -7946384.780 4  -6191986.351 4  22365724.177    22365724.613
  -9136614.94544  -7119421.81544  23463869.5424   23463872.4394
 95  6  1  3 13 30.0000000  0  8G 6G21G22G23G17G26G28G 1
  -5352699.23144  -4170933.47944  23526114.7454   23526119.0584
 -17773981.02544 -13849837.67144  21710897.4404   21710898.1524
  -2986838.67144  -2327408.37944  24452661.2774   24452663.7794
 -23718824.71844 -18482172.19444  20666659.9064   20666659.9734
 -24674353.09144 -19226743.25744  20821441.0984   20821441.4544
  -6693393.56144  -5215614.18444  23429750.9164   23429750.2064
  -8023353.978 4  -6251962.337 4  22351077.395    22351077.806
  -9244397.66744  -7203408.19744  23443359.0114   23443362.6164
 95  6  1  3 14  0.0000000  0  8G 6G21G22G23G17G26G28G 1
  -5241322.52044  -4084146.54044  23547309.2134   23547313.0094
 -17823681.59644 -13888565.36344  21701439.7094   21701440.3104
  -2931352.71944  -2284172.62844  24463219.8974   24463222.2054
 -23704709.81044 -18471173.55044  20669345.8094   20669345.8944
 -24649472.24544 -19207355.58644  20826175.7624   20826176.1894
  -6611864.35744  -5152084.93344  23445265.3564   23445265.7324
  -8099904.197 4  -6311611.848 4  22336510.281    22336510.658
  -9352073.24744  -7287311.10844  23422869.0624   23422871.4484
 95  6  1  3 14 30.0000000  0  8G 6G21G22G23G17G26G28G 1
  -5129783.20144  -3997232.88244  23568534.8274   23568537.3974
 -17873135.34044 -13927100.73244  21692028.8114   21692029.6334
  -2875639.97244  -2240760.15544  24473822.1644   24473827.5174
 -23690314.89944 -18459956.72544  20672085.1104   20672085.1684
 -24624277.01944 -19187722.94044  20830970.1144   20830970.5324
  -6529996.25044  -5088291.62244  23460844.2284   23460844.4514
  -8176041.428 4  -6370939.541 4  22322021.887    22322022.067
  -9459650.06644  -7371137.04944  23402397.6914   23402399.8864
 95  6  1  3 15  0.0000000  0  8G 6G21G22G23G17G26G28G 1
  -5018078.18144  -3910190.11944  23589791.4754   23589793.7964
 -17922340.03144 -13965442.03544  21682665.5244   21682666.0534
  -2819684.44844  -2197158.53844  24484469.7984   24484473.2724
 -23675624.13644 -18448509.36744  20674880.8074   20674880.8414
 -24598775.88344 -19167851.91844  20835822.8354   20835823.3184
  -6447756.80844  -5024208.93644  23476494.0324   23476494.0874
  -8251763.490 4  -6429943.732 4  22307612.535    22307612.640
  -9567108.00944  -7454870.38344  23381949.4214   23381952.9004
 95  6  1  3 15 30.0000000  0  8G 6G21G22G23G17G26G28G 1
  -4906198.59844  -3823011.31844  23611081.4934   23611085.1234
 -17971280.85844 -14003577.73144  21673352.4294   21673353.0964
  -2763460.84044  -2153348.00044  24495168.4144   24495171.3914
 -23660620.14844 -18436817.93844  20677735.9874   20677736.0874
 -24572966.14444 -19147740.43244  20840734.2394   20840734.8354
  -6365127.49244  -4959822.45144  23492217.7624   23492217.8944
  -8327054.702 4  -6488612.194 4  22293285.076    22293285.276
  -9674419.38644  -7538489.50344  23361528.5014   23361531.8604
 95  6  1  3 16  0.0000000  0  8G 6G21G22G23G17G26G28G 1
  -4794139.86844  -3735692.94844  23632405.9894   23632407.8294
 -18019961.19444 -14041510.43844  21664088.8224   21664089.4274
  -2706968.73744  -2109328.27044  24505918.5454   24505920.3814
 -23645301.48244 -18424881.30544  20680650.8564   20680650.9834
 -24546849.04744 -19127389.44444  20845704.2734   20845704.6374
  -6282115.99444  -4895138.16044  23508014.4064   23508014.0234
  -8401907.376 4  -6546938.941 4  22279040.949    22279041.326
  -9781567.42144  -7621981.34244  23341138.9794   23341141.6234
 95  6  1  3 16 30.0000000  0  8G 6G21G22G23G17G26G28G 1
  -4681962.16544  -3648281.85244  23653753.3424   23653756.4474
 -18068434.09844 -14079281.51344  21654864.8164   21654865.2254
  -2650281.41744  -2065156.33944  24516706.0864   24516711.0104
 -23629742.20644 -18412757.18444  20683611.6564   20683611.7984
 -24520489.65344 -19106849.65544  20850720.2844   20850720.6364
  -6198784.84144  -4830204.79444  23523871.7124   23523870.1444
  -8476375.441 4  -6604965.999 4  22264870.057    22264870.537
  -9888589.45644  -7705374.99344  23320772.9314   23320775.8894
 95  6  1  3 17  0.0000000  0  8G 6G21G22G23G17G26G28G 1
  -4569643.87844  -3560761.22444  23675127.2374   23675127.0294
 -18116664.34244 -14116863.49944  21645686.9444   21645687.2464
  -2593402.23644  -2020834.94544  24527530.0234   24527532.3164
 -23613936.91044 -18400441.35844  20686619.3204   20686619.3594
 -24493882.15544 -19086116.53844  20855783.5374   20855783.8514
  -6115118.41944  -4765010.18644  23539792.6884   23539793.2084
  -8550433.401 4  -6662673.490 4  22250777.333    22250777.778
  -9995454.12344  -7788646.03344  23300437.3564   23300439.3994
 95  6  1  3 17 30.0000000  0  8G 6G21G22G23G17G26G28G 1
  -4457174.56044  -3473122.90344  23696529.6404   23696529.1764
 -18164625.89644 -14154236.13044  21636560.0254   21636560.4304
  -2536317.73744  -1976353.61544  24538392.7054   24538397.9954
 -23597874.76344 -18387925.38944  20689675.8364   20689676.0464
 -24466996.90344 -19065166.99144  20860899.6174   20860899.9864
  -6031114.84344  -4699552.88244  23555777.8434   23555777.0624
  -8624052.934 4  -6720039.353 4  22236768.017    22236768.438
 -10102136.66344  -7871775.16544  23280136.3704   23280140.3644
 95  6  1  3 18  0.0000000  0  8G 6G21G22G23G17G26G28G 1
  -4344587.13544  -3385392.56944  23717954.3364   23717957.5164
 -18212347.47044 -14191421.76144  21627478.9344   21627479.2914
  -2479064.38644  -1931740.67244  24549287.7984   24549290.7614
 -23581584.91944 -18375231.99744  20692775.6994   20692775.9874
 -24439857.65744 -19044019.52844  20866064.0424   20866064.4814
  -5946803.19344  -4633855.48944  23571822.1154   23571821.4934
  -8697255.589 4  -6777080.378 4  22222837.976    22222838.398
 -10208672.60644  -7954790.05044  23259863.3184   23259866.4284
 95  6  1  3 18 30.0000000  0  8G 6G21G22G23G17G26G28G 1
  -4231885.17244  -3297572.96644  23739400.5814   23739402.2804
 -18259810.46744 -14228405.88044  21618447.0814   21618447.4234
  -2421634.99044  -1886990.55444  24560216.6994   24560218.8254
 -23565059.98944 -18362355.41644  20695920.2014   20695920.3764
 -24412460.95944 -19022671.45244  20871277.3834   20871277.8224
  -5862177.80744  -4567913.64544  23587926.0314   23587925.4734
  -8770034.320 4  -6833791.076 4  22208988.658    22208989.104
 -10315068.37944  -8037695.71844  23239616.6704   23239620.6554
 95  6  1  3 19  0.0000000  0  8G 6G21G22G23G17G26G28G 1
  -4119062.89044  -3209659.60344  23760869.9424   23760872.7554
 -18307007.78744 -14265182.98344  21609465.5444   21609466.1794
  -2364015.46144  -1842092.22544  24571181.3664   24571181.9734
 -23548274.76144 -18349276.00844  20699114.3324   20699114.6274
 -24384795.47044 -19001113.93044  20876541.9564   20876542.4014
  -5777230.78644  -4501721.16144  23604091.1694   23604091.4884
  -8842380.101 4  -6890164.402 4  22195221.789    22195222.152
 -10421334.68444  -8120500.50644  23219395.0394   23219397.7124
 95  6  1  3 19 30.0000000  0  8G 6G21G22G23G17G26G28G 1
  -4006118.47044  -3121651.06944  23782362.4774   23782362.0954
 -18353956.53444 -14301766.42044  21600531.3554   21600531.9644
  -2306215.26144  -1797053.28244  24582180.0284   24582183.7364
 -23531215.42644 -18335983.01444  20702360.7254   20702360.7954
 -24356857.53244 -18979344.11044  20881858.3944   20881858.9174
  -5691973.20244  -4435286.68944  23620315.2094   23620315.7684
  -8914298.089 4  -6946204.387 4  22181536.317    22181536.651
 -10527484.95344  -8203214.87544  23199195.0694   23199196.9204
 95  6  1  3 20  0.0000000  0  8G 6G21G22G23G17G26G28G 1
  -3893030.63344  -3033530.79444  23803882.4494   23803884.2024
 -18400647.57644 -14338149.03944  21591646.5644   21591647.0694
  -2248232.50044  -1751872.00444  24593213.5934   24593218.0244
 -23513857.52244 -18322457.36644  20705663.7944   20705663.7604
 -24328637.87044 -18957354.76444  20887228.3584   20887228.9434
  -5606394.48144  -4368601.95844  23636600.3274   23636600.4744
  -8985776.972 4  -7001902.206 4  22167934.353    22167934.672
 -10633503.77144  -8285826.82244  23179020.4534   23179022.7454
 95  6  1  3 20 30.0000000  0  8G 6G21G22G23G17G26G28G 1
  -3779776.08444  -2945280.61144  23825433.9784   23825436.7664
 -18447063.15944 -14374317.03244  21582814.0424   21582814.5614
  -2190040.94344  -1706527.99544  24604287.3924   24604290.4174
 -23496177.07944 -18308680.39344  20709028.2644   20709028.2084
 -24300097.50244 -18935115.52144  20892659.4524   20892659.9934
  -5520470.15344  -4301647.93844  23652950.8574   23652950.4524
  -9056792.225 4  -7057238.756 4  22154420.529    22154420.926
 -10739344.53944  -8368300.01644  23158879.4064   23158882.1654
 95  6  1  3 21  0.0000000  0  8G 6G21G22G23G17G26G28G 1
  -3666381.04044  -2856920.95444  23847012.6254   23847015.0004
 -18493250.49044 -14410307.12544  21574024.8574   21574025.5214
  -2131672.27444  -1661046.00044  24615395.2674   24615397.2914
 -23478206.76444 -18294677.55044  20712447.7914   20712447.9754
 -24271251.64544 -18912638.22844  20898148.6414   20898149.0624
  -5434226.24844  -4234444.89444  23669362.5244   23669362.0594
  -9127368.868 4  -7112233.534 4  22140990.128    22140990.559
 -10845010.05044  -8450636.66144  23138771.8184   23138773.7734
 95  6  1  3 21 30.0000000  0  8G 6G21G22G23G17G26G28G 1
  -3552861.88544  -2768464.56644  23868614.6454   23868617.0374
 -18539214.65444 -14446123.30744  21565277.9944   21565278.6314
  -2073131.97344  -1615430.25444  24626534.8144   24626537.8674
 -23459977.17144 -18280472.66844  20715916.8064   20715916.7784
 -24242105.72844 -18889927.12844  20903694.9254   20903695.3754
  -5347669.76244  -4166998.27844  23685833.4204   23685833.9614
  -9197510.105 4  -7166889.029 4  22127642.671    22127642.970
 -10950484.90944  -8532824.75344  23118700.4054   23118703.2074
 95  6  1  3 22  0.0000000  0  8G 6G21G22G23G17G26G28G 1
  -3439207.11844  -2679902.51744  23890242.3144   23890248.1454
 -18584919.82444 -14481737.70544  21556580.6104   21556581.0634
  -2014369.55044  -1569641.46744  24637716.4574   24637720.7094
 -23441480.30444 -18266059.51844  20719436.6734   20719436.7684
 -24212624.40244 -18866954.67244  20909304.9894   20909305.2914
  -5260762.24044  -4099278.13044  23702371.3894   23702370.8934
  -9267183.333 4  -7221179.837 4  22114384.249    22114384.541
 -11055727.07644  -8614831.51144  23098673.5604   23098675.4804
 95  6  1  3 22 30.0000000  0  8G 6G21G22G23G17G26G28G 1
  -3325437.70644  -2591251.14744  23911891.6184   23911894.8994
 -18630374.51044 -14517156.92344  21547930.8464   21547931.3474
  -1955396.78744  -1523688.73144  24648938.7194   24648944.7834
 -23422747.23744 -18251462.31844  20723001.4474   20723001.5334
 -24182823.70944 -18843733.35744  20914975.9684   20914976.3414
  -5173521.35244  -4031298.22544  23718972.8684   23718973.0404
  -9336401.295 4  -7275115.897 4  22101212.506    22101212.885
 -11160753.43944  -8696670.12644  23078687.6314   23078690.7924
 95  6  1  3 23  0.0000000  0  8G 6G21G22G23G17G26G28G 1
  -3211559.23344  -2502514.79344  23933561.9114   23933564.2444
 -18675571.79644 -14552375.58744  21539330.0564   21539330.5024
  -1896233.30144  -1477587.40744  24660197.6904   24660200.8644
 -23403792.22444 -18236692.17544  20726608.4914   20726608.4714
 -24152725.58344 -18820280.27744  20920703.3744   20920703.9064
  -5085964.69744  -3963072.25444  23735634.5144   23735633.8304
  -9405166.655 4  -7328699.279 4  22088126.921    22088127.345
 -11265584.47044  -8778356.53444  23058738.9304   23058740.6134
 95  6  1  3 23 30.0000000  0  8G 6G21G22G23G17G26G28G 1
  -3097592.71144  -2413709.83144  23955249.2734   23955251.0984
 -18720510.47444 -14587392.71444  21530778.4954   21530779.0634
  -1836900.92144  -1431354.43144  24671488.2324   24671493.4434
 -23384619.93244 -18221752.71744  20730256.8724   20730256.9234
 -24122354.98044 -18796614.88044  20926482.8644   20926483.3404
  -4998113.69344  -3894616.95544  23752351.9084   23752352.3234
  -9473489.810 4  -7381938.084 4  22075125.433    22075125.805
 -11370251.96344  -8859915.50944  23038821.1074   23038822.6764
 95  6  1  3 24  0.0000000  0  8G 6G21G22G23G17G26G28G 1
  -2983541.78844  -2324839.06844  23976952.4334   23976952.5854
 -18765201.93244 -14622217.21244  21522273.9854   21522274.7994
  -1777429.15244  -1385012.83744  24682805.4674   24682807.1514
 -23365217.79644 -18206634.16344  20733948.9094   20733949.0074
 -24091716.24444 -18772740.54644  20932313.1854   20932313.5564
  -4909979.82244  -3825941.17544  23769123.0604   23769121.6434
  -9541373.723 4  -7434834.623 4  22062207.460    22062207.750
 -11474773.73744  -8941360.93444  23018931.1664   23018933.6154
 95  6  1  3 24 30.0000000  0  8G 6G21G22G23G17G26G28G 1
  -2869389.54044  -2235889.41444  23998675.5314   23998679.6284
 -18809628.09544 -14656834.99944  21513820.0164   21513820.6504
  -1717835.23944  -1338576.15244  24694145.8984   24694149.0804
 -23345558.15444 -18191314.95544  20737689.9934   20737690.1594
 -24060800.15444 -18748650.09444  20938196.4534   20938196.9374
  -4821555.04144  -3757038.75344  23785950.1434   23785949.7574
  -9608796.308 4  -7487371.687 4  22049377.350    22049377.716
 -11579149.43344  -9022692.54144  22999069.0304   22999070.6134
 95  6  1  3 25  0.0000000  0  8G 6G21G22G23G17G26G28G 1
  -2755151.33444  -2146872.75144  24020414.1364   24020418.6114
 -18853809.81244 -14691262.29744  21505412.3174   21505412.8454
  -1658127.33744  -1292050.64644  24705507.6744   24705513.7344
 -23325637.58244 -18175792.42544  20741480.6024   20741480.6874
 -24029613.34244 -18724348.68544  20944130.9674   20944131.3814
  -4732836.87844  -3687907.70944  23802832.6114   23802830.5534
  -9675758.383 4  -7539549.912 4  22036634.923    22036635.314
 -11683389.63444  -9103918.57844  22979233.0264   22979235.2104
 95  6  1  3 25 30.0000000  0  8G 6G21G22G23G17G26G28G 1
  -2640831.63744  -2057792.63144  24042168.6584   24042170.4184
 -18897744.62744 -14725497.19544  21497051.7634   21497052.2174
  -1598296.22644  -1245429.04444  24716893.4364   24716895.8004
 -23305440.54344 -18160054.46944  20745324.0914   20745324.1824
 -23998140.67844 -18699824.53744  20950120.0234   20950120.3654
  -4643823.15344  -3618546.36444  23819771.5264   23819771.0104
  -9742255.940 4  -7591366.178 4  22023980.882    22023981.270
 -11787477.71344  -9185026.07344  22959425.4424   22959427.3064
 95  6  1  3 26  0.0000000  0  8G 6G21G22G23G17G26G28G 1
  -2526416.49544  -1968638.08944  24063941.1734   24063944.0304
 -18941414.33044 -14759525.51544  21488741.8024   21488742.2804
  -1538312.34244  -1198688.48644  24728307.7514   24728308.3074
 -23284964.89344 -18144099.41644  20749220.5624   20749220.8664
 -23966368.26044 -18675066.81544  20956166.1804   20956166.5654
  -4554498.58244  -3548942.81244  23836769.3984   23836769.2904
  -9808274.420 4  -7642809.139 4  22011417.969    22011418.286
 -11891385.34344  -9265992.96444  22939652.7114   22939654.4124
 95  6  1  3 26 30.0000000  0  8G 6G21G22G23G17G26G28G 1
  -2411900.18644  -1879404.75844  24085732.9354   24085735.7134
 -18984807.11244 -14793338.06044  21480484.4684   21480484.9814
  -1478143.84044  -1151804.00644  24739757.5154   24739760.7384
 -23264217.84244 -18127932.87744  20753168.5914   20753168.6874
 -23934305.41744 -18650082.78844  20962267.4614   20962267.9254
  -4464861.58944  -3479095.78244  23853826.6364   23853827.9474
  -9873806.384 4  -7693872.998 4  21998947.645    21998947.878
 -11995095.45444  -9346805.93744  22919917.1774   22919919.4024
 95  6  1  3 27  0.0000000  0  8G 6G21G22G23G17G26G28G 1
  -2297274.88544  -1790086.43844  24107545.7064   24107548.9124
 -19027921.91544 -14826933.97444  21472279.9274   21472280.4064
  -1417772.71544  -1104761.63344  24751245.9204   24751247.4564
 -23243208.61044 -18111562.03744  20757166.5124   20757166.5324
 -23901942.74344 -18624865.12844  20968425.8194   20968426.1614
  -4374925.37644  -3409015.63344  23870940.9404   23870941.2174
  -9938854.221 4  -7744559.612 4  21986569.466    21986569.738
 -12098578.84344  -9427442.25344  22900224.5834   22900226.0424
 95  6  1  3 27 30.0000000  0  8G 6G21G22G23G17G26G28G 1
  -2182533.23344  -1700677.53644  24129380.6754
 -19070742.93644 -14860300.96844  21464131.3564   21464131.9744
  -1357194.29644  -1057557.75444  24762773.2514   24762777.2344
 -23221949.85544 -18094996.76744  20761211.8884   20761211.8644
 -23869283.59844 -18599416.45344  20974640.7254   20974641.0914
  -4284708.99344  -3338717.15944  23888108.4974   23888108.0154
 -10003415.228 4  -7794866.885 4  21974283.912    21974284.222
 -12201827.04344  -9507895.31144  22880576.9574   22880580.1544
 95  6  1  3 28  0.0000000  0  8G 6G21G22G23G17G26G28G 1
  -2067676.82644  -1611179.18144  24151237.1294   24151240.2924
 -19113294.99544 -14893458.39644  21456034.1014   21456034.7274
  -1296429.50644  -1010208.71344  24774336.3564   24774336.9064
 -23200475.81444 -18078263.74544  20765298.2484   20765298.3994
 -23836342.60644 -18573748.16044  20980909.1304   20980909.6284
  -4194220.91144  -3268206.97744  23905327.9594   23905328.0294
 -10067493.395 4  -7844797.915 4  21962090.278    21962090.593
 -12304853.64544  -9588175.68644  22860971.4984   22860974.4124
 95  6  1  3 28 30.0000000  0  8G 6G21G22G23G17G26G28G 1
  -1952703.99744  -1521590.12444  24173116.0364   24173117.6284
 -19155590.40444 -14926415.84144  21447985.3654   21447985.8424
  -1235506.03844   -962735.97844  24785929.9844   24785931.6644
 -23178787.84044 -18061364.02544  20769425.4024   20769425.3404
 -23803100.84944 -18547845.50044  20987234.8494   20987235.4544
  -4103472.99944  -3197494.30444  23922596.3574   23922596.9444
 -10131089.252 4  -7894353.120 4  21949988.430    21949988.778
 -12407661.44444  -9668285.56544  22841407.7774   22841410.0564
 95  6  1  3 29  0.0000000  0  8G 6G21G22G23G17G26G28G 1
  -1837633.36944  -1431924.85644  24195013.4824   24195019.8934
 -19197653.08144 -14959191.91544  21439980.9824   21439981.5264
  -1174454.74244   -915163.58744  24797548.1674   24797552.6454
 -23156893.57144 -18044303.55444  20773591.7474   20773591.6664
 -23769557.15044 -18521707.56044  20993617.9534   20993618.4394
  -4012481.66144  -3126591.96644  23939911.4824   23939910.9324
 -10194217.997 4  -7943544.345 4  21937975.374    21937975.786
 -12510261.90444  -9748233.88544  22821883.4554   22821886.0934
 95  6  1  3 29 30.0000000  0  8G 6G21G22G23G17G26G28G 1
  -1722457.19944  -1342177.35544  24216930.6814   24216934.0804
 -19239477.94644 -14991782.69344  21432022.1324   21432022.6914
  -1113264.28044   -867482.75944  24809192.3624   24809195.9504
 -23134776.27044 -18027069.29244  20777800.4264   20777800.3694
 -23735702.39344 -18495327.23744  21000060.4714   21000060.7984
  -3921216.12544  -3055475.97944  23957278.7054   23957277.6854
 -10256859.856 4  -7992356.179 4  21926054.976    21926055.423
 -12612651.77544  -9828018.11744  22802399.0654   22802401.7564
 95  6  1  3 30  0.0000000  0  8G 6G21G22G23G17G26G28G 1
  -1607170.27044  -1252343.52944  24238869.2474   24238872.7054
 -19281056.71044 -15024181.72844  21424109.8134   21424110.6204
  -1051940.58744   -819698.16344  24820862.1304   24820865.1754
 -23112422.45844 -18009650.73244  20782054.2314   20782054.2924
 -23701516.49444 -18468688.88544  21006565.7274   21006566.1184
  -3829670.93644  -2984142.07044  23974699.4394   23974699.8344
 -10319010.405 4  -8040785.171 4  21914228.122    21914228.481
 -12714815.00344  -9907625.72944  22782957.9694   22782960.5304
 95  6  1  3 30 30.0000000  0  8G 6G21G22G23G17G26G28G 1
  -1491803.70744  -1162447.67644  24260822.8494   24260825.1154
 -19322396.24644 -15056394.33444  21416243.1894   21416243.7514
   -990485.05544   -771810.83344  24832556.5834   24832557.0184
 -23089825.69444 -17992042.85744  20786354.3214   20786354.4484
 -23667013.24444 -18441803.24544  21013131.5874   21013131.9304
  -3737867.55944  -2912607.00344  23992169.1384   23992169.0694
 -10380681.909 4  -8088840.880 4  21902492.482    21902492.690
 -12816754.34844  -9987058.91044  22763559.4644   22763561.8234
 95  6  1  3 31  0.0000000  0  8G 6G21G22G23G17G26G28G 1
  -1376369.37044  -1072499.01444  24282789.3194   24282793.3094
 -19363507.61244 -15088429.15244  21408420.0254   21408420.4914
   -928892.12744   -723816.44944  24844277.7054   24844277.7704
 -23066988.08844 -17974247.31744  20790700.1004   20790700.0984
 -23632222.89644 -18414693.88844  21019751.9394   21019752.3164
  -3645802.45044  -2840867.96744  24009688.4734   24009687.0024
 -10441868.995 4  -8136519.118 4  21890848.931    21890849.204
 -12918470.16844 -10066317.90444  22744203.6464   22744205.8634
 95  6  1  3 31 30.0000000  0  8G 6G21G22G23G17G26G28G 1
  -1260907.48944   -982528.95544  24304761.1874   24304764.4044
 -19404394.95444 -15120289.40444  21400639.4514   21400639.8834
   -867182.01444   -675730.70244  24856020.4284   24856023.3274
 -23043939.56444 -17956287.42844  20795086.0784   20795086.0534
 -23597168.48544 -18387378.77044  21026422.6494   21026423.0744
  -3553493.16144  -2768938.65444  24027254.1704   24027253.4674
 -10502586.133 4  -8183831.163 4  21879294.851    21879295.157
 -13019988.44944 -10145422.98744  22724885.6494   22724887.9104
 95  6  1  3 32  0.0000000  0  8G 6G21G22G23G17G26G28G 1
  -1145435.15344   -892550.58444  24326734.9154   24326736.7494
 -19445057.10644 -15151974.16944  21392901.6614   21392902.0494
   -805376.39344   -627570.55044  24867781.5544   24867784.3194
 -23020684.77344 -17938166.80744  20799511.2614   20799511.1624
 -23561851.03444 -18359858.68344  21033143.2174   21033143.6524
  -3460953.28444  -2696829.66144  24044863.7014   24044864.3014
 -10562838.279 4  -8230780.875 4  21867829.228    21867829.536
 -13121310.24544 -10224374.94844  22705604.8354   22705606.8074
 95  6  1  3 32 30.0000000  0  7G 6G21G23G17G26G28G 1
  -1029896.88344   -802520.92544  24348721.0034   24348724.4804
 -19485437.38144 -15183439.29144  21385217.5574   21385218.0454
 -22997153.14344 -17919830.46944  20803989.2084   20803989.2364
 -23526214.89644 -18332090.26644  21039924.5624   21039925.0344
  -3368105.54644  -2624480.78244  24062531.9514   24062531.7624
 -10622552.396 4  -8277311.347 4  21856465.958    21856466.299
 -13222377.74944 -10303128.77144  22686372.2064   22686373.4964
 95  6  1  3 33  0.0000000  0  7G 6G21G23G17G26G28G 1
   -914333.09844   -712471.40044  24370711.8914   24370718.3814
 -19525558.90444 -15214702.79544  21377582.6904   21377583.0554
 -22973392.36444 -17901315.57444  20808510.7124   20808510.6974
 -23490298.41344 -18304103.40144  21046759.2444   21046759.9024
  -3274993.95244  -2551926.29244  24080250.5224   24080250.7094
 -10681766.172 4  -8323451.942 4  21845197.905    21845198.314
 -13323239.12244 -10381721.96444  22667178.4314   22667180.5814
 95  6  1  3 33 30.0000000  0  8G 6G21G31G23G17G26G28G 1
   -798725.13044   -622387.45444  24392711.4034   24392716.9494
 -19565399.16244 -15245747.13044  21370001.2934   21370001.6564
        -0.48254                  25194598.8724
 -22949389.65944 -17882612.16944  20813078.2604   20813078.3324
 -23454068.90144 -18275872.61744  21053653.5454   21053654.0094
  -3181621.12644  -2479168.28844  24098019.0934   24098018.5624
 -10740470.004 4  -8369195.175 4  21834026.921    21834027.357
 -13423875.86544 -10460140.12644  22648027.7434   22648029.0764
 95  6  1  3 34  0.0000000  0  8G 6G21G31G23G17G26G28G 1
   -683033.36744   -532238.18644  24414727.1164
 -19604960.42744 -15276574.06944  21362472.9084   21362473.3054
    -99974.06144                  25175574.2314
 -22925121.45844 -17863701.88544  20817696.3074   20817696.4544
 -23417509.67644 -18247384.91644  21060610.4674   21060610.9274
  -3087989.62644  -2406208.69344  24115836.6264   24115837.0814
 -10798646.104 4  -8414527.190 4  21822956.409    21822956.807
 -13524257.22144 -10538359.28644  22628925.8854   22628927.1454
 95  6  1  3 34 30.0000000  0  8G 6G21G31G23G17G26G28G 1
   -567274.34144   -442036.51644  24436755.3844   24436760.0654
 -19644266.15044 -15307201.88044  21354993.2814   21354993.4524
   -199732.02044   -155634.81844  25156591.1244
 -22900607.18644 -17844599.85544  20822361.1884   20822361.4014
 -23380650.56244 -18218663.53644  21067624.4154   21067624.8964
  -2994122.55744  -2333065.55544  24133698.9254   24133700.0604
 -10856309.900 4  -8459460.007 4  21811983.376    21811983.658
 -13624401.50944 -10616393.71544  22609869.2304   22609870.8544
 95  6  1  3 35  0.0000000  0  8G 6G21G31G23G17G26G28G 1
   -451437.18644   -351773.93844  24458798.6744   24458802.6684
 -19683305.56044 -15337622.16644  21347564.3024   21347564.6054
   -299269.37344                  25137649.4304
 -22875844.80744 -17825304.49344  20827073.3694   20827073.3624
 -23343482.20144 -18189701.18444  21074697.4604   21074697.6784
  -2900018.17844  -2259737.47844  24151606.4214   24151605.8134
 -10913451.465 4  -8503985.890 4  21801109.667    21801109.903
 -13724283.90844 -10694224.07844  22590862.2324   22590863.6274
 95  6  1  3 35 30.0000000  0  8G 6G21G31G23G17G26G28G 1
   -335514.75444   -261444.95844  24480858.2874
 -19722102.28844 -15367853.36244  21340181.4794   21340181.8054
   -398600.55944                  25118747.4564
 -22850839.65044 -17805819.95544  20831831.7934   20831831.9814
 -23306002.24044 -18160496.02644  21081829.6754   21081830.2224
  -2805660.92544  -2186212.35444  24169561.9564   24169562.5214
 -10970068.139 4  -8548102.761 4  21790335.859    21790336.162
 -13823897.60444 -10771845.05944  22571906.0394   22571908.3914
 95  6  1  3 36  0.0000000  0  8G 6G21G31G23G17G26G28G 1
   -219527.12244   -171065.11944  24502930.3304   24502932.4314
 -19760660.56544 -15397898.76144  21332844.1434   21332844.5344
   -497735.92244                  25099882.5664
 -22825603.74944 -17786155.61244  20836633.9764   20836634.0994
 -23268221.60144 -18131056.57444  21089019.0724   21089019.4174
  -2711032.85444  -2112476.20744  24187569.2544   24187569.4254
 -11026161.266 4  -8591811.681 4  21779661.636    21779662.063
 -13923256.74144 -10849267.69244  22552998.5374   22553000.7164
 95  6  1  3 36 30.0000000  0  8G 6G21G31G23G17G26G28G 1
   -103480.82144    -80639.62744  24525013.6204   24525020.2284
 -19798969.11844 -15427749.56644  21325554.3274   21325554.7464
   -596670.14744   -464934.72044  25081055.9884   25081060.0734
 -22800145.26944 -17766317.83744  20841478.5254   20841478.3504
 -23230142.20644 -18101384.32544  21096265.2174   21096265.6744
  -2616122.12744  -2038519.81444  24205629.9944   24205631.2574
 -11081730.088 4  -8635112.053 4  21769087.145    21769087.606
 -14022370.70244 -10926499.27544  22534137.8734   22534139.5574
 95  6  1  3 37  0.0000000  0  8G 6G21G31G23G17G26G28G 1
     12591.98044      9806.56044  24547100.6454
 -19837058.70944 -15457429.74244  21318305.9864   21318306.3924
   -695421.46644   -541880.65344  25062264.1484   25062266.1584
 -22774497.47844 -17746332.54544  20846359.1184   20846359.1954
 -23191780.88144 -18071492.38744  21103565.2184   21103565.6684
  -2520969.23044  -1964374.71344  24223737.0314   24223735.8604
 -11136804.558 4  -8678027.212 4  21758606.810    21758607.241
 -14121266.72744 -11003561.03544  22515318.5794   22515320.4044
 95  6  1  3 37 30.0000000  0  8G 6G21G31G23G17G26G28G 1
    128694.89844    100276.18844  24569194.5634   24569200.0164
 -19874918.17544 -15486930.60944  21311101.4634   21311102.0994
   -793987.23444   -618680.71444  25043507.7914   25043510.5114
 -22748652.52644 -17726193.62144  20851277.3704   20851277.5174
 -23153114.27144 -18041362.56644  21110923.1134   21110923.7194
  -2425566.26644  -1890034.74844  24241891.5094   24241893.8124
 -11191376.929 4  -8720551.128 4  21748222.065    21748222.484
 -14219942.02844 -11080450.80044  22496541.2984   22496543.7074
 95  6  1  3 38  0.0000000  0  8G 6G21G31G23G17G26G28G 1
    244830.92044    190771.59744  24591294.5734   24591296.8634
 -19912526.05844 -15516235.43744  21303945.0584   21303945.3764
   -892335.77344   -695309.42844  25024792.5994   25024794.2184
 -22722596.87444 -17705890.51644  20856235.5924   20856235.6264
 -23114135.53344 -18010989.52944  21118340.6924   21118341.2704
  -2329919.39444  -1815504.72444  24260092.8164   24260094.0014
 -11245435.366 4  -8762674.579 4  21737935.082    21737935.553
 -14318377.27744 -11157153.51944  22477809.5804   22477811.2744
 95  6  1  3 38 30.0000000  0  8G 6G21G31G23G17G26G28G 1
    360993.40044    281287.64544  24613399.8544   24613405.1274
 -19949896.85744 -15545355.51844  21296833.5534   21296833.9724
   -990465.18544   -771764.23344  25006118.8754   25006120.5484
 -22696332.76444 -17685424.97644  20861233.5264   20861233.5274
 -23074852.57844 -17980379.43844  21125816.0644   21125816.6394
  -2234059.60644  -1740808.82644  24278334.2334   24278333.1984
 -11298981.738 4  -8804399.017 4  21727745.542    21727745.940
 -14416559.62644 -11233659.16744  22459126.0944   22459127.9754
 95  6  1  3 39  0.0000000  0  8G 6G21G31G23G17G26G28G 1
    477170.30444    371814.95644  24635507.6084
 -19987041.33444 -15574299.25044  21289765.1074   21289765.5094
  -1088388.99044   -848068.58344  24987484.7664   24987486.5854
 -22669855.19744 -17664793.10444  20866271.9284   20866271.9084
 -23035253.83444 -17949523.28444  21133351.3374   21133351.8044
  -2137990.43644  -1665949.73044  24296615.7174   24296615.7074
 -11352011.279 4  -8845720.730 4  21717654.376    21717654.757
 -14514482.96444 -11309962.99344  22440491.7924   22440493.7804
 95  6  1  3 39 30.0000000  0  8G 6G21G31G23G17G26G28G 1
    593368.76744    462359.02344  24657619.7534   24657624.2674
 -20023943.39044 -15603054.08544  21282742.9864   21282743.1004
  -1186095.41644   -924212.86044  24968892.0064   24968893.9724
 -22643164.47044 -17643995.13244  20871351.0024   20871351.1094
 -22995338.87044 -17918420.71944  21140946.9214   21140947.4434
  -2041695.50744  -1590914.73944  24314940.1254   24314939.6124
 -11404506.711 4  -8886626.254 4  21707664.754    21707665.283
 -14612132.65944 -11386053.58144  22421909.6294   22421911.5734
 95  6  1  3 40  0.0000000  0  8G 6G21G31G23G17G26G28G 1
    709592.49244    552922.82644  24679736.6424   24679742.7274
 -20060605.98344 -15631622.32744  21275766.3974   21275766.4034
  -1283561.60244  -1000165.60844  24950344.5994   24950346.8504
 -22616262.44744 -17623032.51244  20876470.3344   20876470.2604
 -22955125.63244 -17887085.72844  21148599.1344   21148599.5824
  -1945200.69444  -1515723.99944  24333302.4564   24333303.2364
 -11456461.324 4  -8927110.360 4  21697778.050    21697778.675
 -14709507.98544 -11461930.38544  22403379.5274   22403381.3564
 95  6  1  3 40 30.0000000  0  8G 6G21G31G23G17G26G28G 1
    825826.35344    643494.48744  24701855.9664   24701859.3944
 -20097039.13144 -15660011.77044  21268833.2884   21268833.6474
  -1380816.38844  -1075951.69844  24931837.4294   24931839.9944
 -22589161.76444 -17601915.09344  20881627.4154   20881627.5594
 -22914629.38944 -17855530.22344  21156305.2774   21156305.9354
  -1848537.49744  -1440402.03944  24351696.9524   24351696.2884
 -11507889.216 4  -8967184.038 4  21687991.737    21687992.176
 -14806636.30844 -11537614.71644  22384896.5424   22384898.4764
 95  6  1  3 41  0.0000000  0  8G 6G21G31G23G17G26G28G 1
    942079.08144    734080.79044  24723977.8394   24723982.2814
 -20133222.34644 -15688206.46444  21261947.8594   21261948.1394
  -1477852.65644  -1151566.49344  24913371.8734   24913373.0514
 -22561859.74144 -17580640.78644  20886822.7504   20886822.7744
 -22873848.11844 -17823752.61444  21164065.8964   21164066.4364
  -1751692.11344  -1364938.12644  24370125.8874   24370127.1804
 -11558783.015 4  -9006841.537 4  21678306.936    21678307.345
 -14903510.16544 -11613100.76944  22366462.1924   22366463.7504
 95  6  1  3 41 30.0000000  0  8G 6G21G31G23G17G26G28G 1
   1058325.03944    824661.91244  24746098.6344
 -20169169.42044 -15716217.15544  21255107.3124   21255107.6564
  -1574693.26244                  24894943.9214
 -22534385.35444 -17559232.17144  20892050.8694   20892050.9814
 -22832818.01044 -17791781.10744  21171873.6404   21171874.1864
  -1654692.96444  -1289354.33844  24388584.0814   24388584.5084
 -11609168.001 4  -9046102.562 4  21668718.943    21668719.344
 -15000147.39644 -11688402.43444  22348072.8674   22348074.2384
 95  6  1  3 42  0.0000000  0  8G 6G21G31G23G17G26G28G 1
   1174637.66444    915294.93044  24768232.0384   24768236.2194
 -20204817.59344 -15743994.94344  21248323.6964   21248324.1004
  -1671283.60144                  24876563.3804
 -22506660.46844 -17537628.36544  20897326.8544   20897327.0574
 -22791462.41444 -17759555.96944  21179743.1684   21179743.7944
  -1557467.65044  -1213594.38144  24407085.6184   24407085.4234
 -11658979.223 4  -9084916.497 4  21659240.233    21659240.658
 -15096478.25744 -11763465.36544  22329741.5554   22329742.6114
 95  6  1  3 42 30.0000000  0  8G 6G21G31G23G17G26G28G 1
   1291010.69144   1005975.06144  24790377.4124
 -20240167.37944 -15771540.22344  21241596.7684   21241597.1364
  -1767637.98644                  24858227.7894
 -22478679.38844 -17515824.92844  20902651.4954   20902651.5294
 -22749760.55844 -17727061.02644  21187678.8294   21187679.3674
  -1459979.66244  -1137629.73844  24425636.7784   24425637.0744
 -11708213.017 4  -9123280.489 4  21649871.423    21649871.848
 -15192490.13444 -11838279.74244  22311470.7984   22311472.2824
 95  6  1  3 43  0.0000000  0  8G 6G21G31G23G17G26G28G 1
   1407407.70444   1096673.81244  24812526.9364
 -20275260.90544 -15798885.82044  21234918.6984   21234919.0994
  -1863775.76844                  24839940.3574
 -22450478.26044 -17493850.02244  20908018.0134   20908018.1594
 -22707728.19744 -17694308.54544  21195677.4944   21195677.9024
  -1362242.00944  -1061470.53344  24444235.6704   24444234.1184
 -11756894.211 4  -9161213.881 4  21640607.761    21640608.061
 -15288198.81444 -11912857.85944  22293258.1364   22293259.7364
 95  6  1  3 43 30.0000000  0  8G 6G21G31G23G17G26G28G 1
   1523845.19344   1187404.16544  24834684.5234   24834693.4584
 -20310087.36144 -15826023.30144  21228291.4494   21228292.0114
  -1960291.35944                  24821682.5754
 -22422035.87044 -17471687.11644  20913430.3584   20913430.3544
 -22665327.25244 -17661268.85944  21203746.0414   21203746.3414
  -1264241.22444   -985106.29544  24462884.3184   24462883.9394
 -11805000.291 4  -9198699.133 4  21631453.450    21631453.727
 -15383589.82544 -11987188.44244  22275105.7794   22275107.1234
 95  6  1  3 44  0.0000000  0  7G 6G21G23G17G26G28G 1
   1640269.36244   1278124.08444  24856839.8044   24856842.8284
 -20344706.10544 -15852998.93644  21221703.7244   21221704.1524
 -22393409.69744 -17449381.00744  20918877.6264   20918877.5644
 -22622609.24144 -17627982.10544  21211875.0904   21211875.4234
  -1166039.47944   -908585.46044  24481571.4774   24481572.6684
 -11852580.854 4  -9235774.894 4  21622399.071    21622399.471
 -15478716.72844 -12061313.23044  22257003.6794   22257005.2024
 95  6  1  3 44 30.0000000  0  7G 6G21G23G17G26G28G 1
   1756645.17844   1368806.38144  24878985.4154   24878992.3644
 -20379142.79144 -15879832.70244  21215150.5974   21215150.9234
 -22364631.37944 -17426956.34144  20924354.0174   20924353.9954
 -22579596.90244 -17594466.00244  21220060.0114   21220060.4344
  -1067674.68344   -831937.55544  24500289.6724   24500290.7294
 -11899651.999 4  -9272453.708 4  21613441.726    21613442.197
 -15573595.94044 -12135245.00444  22238948.6644   22238950.3664
 95  6  1  3 45  0.0000000  0  7G 6G21G23G17G26G28G 1
   1872997.72244   1459470.51944  24901126.5744
 -20413368.26144 -15906501.88244  21208637.7504   21208637.9974
 -22335684.39844 -17404400.25044  20929862.5674   20929862.6584
 -22536274.04544 -17560707.94044  21228304.2454   21228304.5624
   -969132.90944   -755151.77044  24519041.6054   24519040.9644
 -11946181.294 4  -9308710.300 4  21604587.511    21604587.984
 -15668192.75544 -12208956.74144  22220947.2214   22220948.8924
 95  6  1  3 45 30.0000000  0  8G 6G21G31G23G17G26G28G 1
   1989360.55344   1550142.64744  24923270.6074   24923276.4914
 -20447346.38944 -15932978.33344  21202171.8904   21202172.2284
        -0.53054                  24749135.8274
 -22306540.80944 -17381690.96044  20935408.4334   20935408.4094
 -22492623.46944 -17526694.51444  21236610.6014   21236610.8534
   -870381.59144   -678202.66544  24537833.2664   24537833.2864
 -11992136.845 4  -9344519.816 4  21595842.498    21595842.894
 -15762465.62444 -12282416.05144  22203007.6714   22203009.2394
 95  6  1  3 46  0.0000000  0  8G 6G21G31G23G17G26G28G 1
   2105726.51444   1640817.21144  24945414.5534   24945420.1584
 -20481093.78144 -15959274.98744  21195750.1114   21195750.4394
    -94617.46344                  24731130.7164
 -22277210.59644 -17358836.24844  20940989.6114   20940989.7924
 -22448661.06344 -17492438.10344  21244976.2314   21244976.6044
   -771429.43644   -601097.11444  24556663.3164   24556660.0134
 -12037528.460 4  -9379889.900 4  21587204.742    21587205.147
 -15856419.29844 -12355626.63444  22185128.9544   22185130.0164
 95  6  1  3 46 30.0000000  0  8G 6G21G31G23G17G26G28G 1
   2222043.00544   1731453.27444  24967548.7324   24967550.2954
 -20514662.62344 -15985432.51644  21189362.1864   21189362.3624
   -189015.82244                  24713167.4304
 -22247740.63844 -17335872.65144  20946597.5184   20946597.5924
 -22404430.16544 -17457972.47144  21253393.0424   21253393.5024
   -672331.25044   -523877.76044  24575521.0914   24575521.3764
 -12082409.820 4  -9414862.380 4  21578664.145    21578664.550
 -15950104.59144 -12428628.08944  22167301.2064   22167302.2894
 95  6  1  3 47  0.0000000  0  8G 6G21G31G23G17G26G28G 1
   2338360.28644   1822089.96644  24989683.4194
 -20548003.30244 -16011412.25544  21183017.5494   21183017.8614
   -283168.14244   -220650.32044  24695251.0154
 -22218080.57644 -17312760.91544  20952241.6554   20952241.8094
 -22359900.85044 -17423274.30844  21261866.7864   21261867.3834
   -573050.96244   -446516.48544  24594413.4434   24594410.3514
 -12126744.397 4  -9449408.798 4  21570227.533    21570227.965
 -16043488.61544 -12501394.79144  22149530.9004   22149532.2824
 95  6  1  3 47 30.0000000  0  8G 6G21G31G23G17G26G28G 1
   2454685.81144   1912733.05844  25011819.3254   25011821.3854
 -20581105.68044 -16037206.29644  21176718.3074   21176718.6214
   -377094.74144   -293839.80544  24677377.3934
 -22188214.82344 -17289488.90144  20957925.0514   20957924.9814
 -22315075.37544 -17388345.37544  21270396.8304   21270397.0584
   -473599.97244   -369022.23644  24613338.1074   24613338.8524
 -12170532.635 4  -9483529.498 4  21561894.821    21561895.380
 -16136582.88944 -12573935.71344  22131815.5514   22131816.6194
 95  6  1  3 48  0.0000000  0  8G 6G21G31G23G17G26G28G 1
   2571019.52244   2003382.49244  25033957.1024
 -20613961.08044 -16062807.89144  21170466.1224   21170466.5944
   -470780.51544   -366841.69944  24659549.5484
 -22158123.10044 -17266040.80344  20963651.2554   20963651.0514
 -22269961.05244 -17353191.36344  21278981.8914   21278982.2144
   -373992.91144   -291406.36544  24632292.7864   24632293.2854
 -12213769.963 4  -9517220.920 4  21553667.051    21553667.511
 -16229396.03544 -12646257.57644  22114153.8124   22114154.9074
 95  6  1  3 48 30.0000000  0  8G 6G21G31G23G17G26G28G 1
   2687378.40544   2094051.58844  25056099.6344
 -20646530.33244 -16088186.51844  21164268.3994   21164268.8294
   -564193.56244   -439631.08744  24641773.6414   24641771.4424
 -22127787.66044 -17242402.79844  20969423.8774   20969423.7874
 -22224548.38744 -17317804.87844  21287623.6484   21287624.0964
   -274219.95044   -213661.18044  24651278.8714   24651278.0084
 -12256432.333 4  -9550464.324 4  21545548.743    21545549.052
 -16321907.67644 -12718344.49844  22096549.2904   22096550.2874
 95  6  1  3 49  0.0000000  0  8G 6G21G31G23G17G26G28G 1
   2803307.54244                  25078234.1494
 -20678856.51344 -16113375.74044  21158116.9174   21158117.2844
   -657361.14844   -512229.12244  24624044.4124
 -22097252.29144 -17218609.00244  20975234.5774   20975234.4104
 -22178891.03944 -17282227.73344  21296311.8974   21296312.4834
   -174316.68444   -135814.46844  24670289.6664   24670290.8994
 -12298554.132 4  -9583286.501 4  21537533.240    21537533.575
 -16414151.46644 -12790222.70744  22078995.8534   22078996.5764
 95  6  1  3 49 30.0000000  0  7G21G31G17G23G26G28G 1
 -20710906.28444 -16138349.56744  21152018.0444   21152018.1834
   -750222.59044   -584588.64644  24606373.5744
 -22132932.21544 -17246415.67044  21305057.6704   21305058.0894
 -22066486.74344 -17194635.84844  20981089.1904   20981089.1264
    -74236.13744    -57829.62644  24689334.6084   24689334.5814
 -12340089.652 4  -9615651.835 4  21529629.204    21529629.566
 -16506076.19344 -12861852.29744  22061503.1154   22061503.6674
 95  6  1  3 50  0.0000000  0  7G21G31G23G17G26G28G 1
 -20742713.13244 -16163134.11044  21145965.3044   21145965.7844
   -842799.61844   -656726.58044  24588756.5554
 -22035539.08744 -17170520.79144  20986978.3234   20986978.2394
 -22086680.89144 -17210375.68744  21313858.9004   21313859.3554
     25994.83944     20272.40244  24708407.6584   24708409.2164
 -12381062.160 4  -9647578.463 4  21521832.324    21521832.756
 -16597694.87544 -12933243.41144  22044068.5154   22044069.7744
 95  6  1  3 50 30.0000000  0  8G 9G21G31G23G17G26G28G 1
         0.08754         1.45754  24164899.1174   24164900.1074
 -20774255.44144 -16187712.51944  21139963.0974   21139963.4514
   -935061.20544                  24571199.5884
 -22004397.42544 -17146254.56244  20992904.3474   20992904.4134
 -22040073.15544 -17174057.98344  21322728.1174   21322728.7224
    126431.21744     98534.50144  24727520.2824   24727521.5654
 -12421431.518 4  -9679035.105 4  21514150.309    21514150.744
 -16688954.31744 -13004354.60144  22026702.2294   22026703.6324
 95  6  1  3 51  0.0000000  0  8G 9G21G31G23G17G26G28G 1
    -41215.93044    -32114.86444  24157055.5334   24157057.0114
 -20805554.43344 -16212101.33044  21134007.0134   21134007.2134
  -1027010.22644   -800267.20444  24553701.9544
 -21973074.21344 -17121846.86844  20998864.9114   20998865.2034
 -21993095.67044 -17137452.15944  21331667.5884   21331668.2094
    227082.32544    176963.94844  24746673.3484   24746671.8384
 -12461203.532 4  -9710026.284 4  21506582.010    21506582.392
 -16779851.94444 -13075183.85144  22009404.8894   22009405.8974
 95  6  1  3 51 30.0000000  0  8G 9G21G31G23G17G26G28G 1
    -82091.85844    -63966.18644  24149277.6144   24149279.4124
 -20836638.08344 -16236322.34444  21128092.0294   21128092.4744
  -1118687.07544   -871703.69444  24536256.4644
 -21941601.84644 -17097322.94944  21004853.8334   21004854.0684
 -21945767.00644 -17100572.69444  21340673.9284   21340674.3804
    327910.35044    255531.24344  24765860.3544   24765861.3714
 -12500408.992 4  -9740575.992 4  21499121.569    21499121.881
 -16870418.87644 -13145755.42344  21992170.7284   21992171.8034
 95  6  1  3 52  0.0000000  0  8G 9G21G31G23G17G26G28G 1
   -122605.58844    -95535.27844  24141568.3834   24141566.9674
 -20867499.88144 -16260370.48844  21122219.2514   21122219.5834
  -1210095.80244   -942931.20344  24518862.2274
 -21909969.28744 -17072674.20244  21010873.3564   21010873.4344
 -21898095.72044 -17063426.25044  21349745.5704   21349746.1104
    428916.20344    334237.08344  24785081.0874   24785082.0054
 -12539044.824 4  -9770681.834 4  21491769.335    21491769.710
 -16960654.78044 -13216069.04944  21974999.3914   21975000.3824
 95  6  1  3 52 30.0000000  0  8G 9G21G31G23G17G26G28G 1
   -162766.91544   -126829.77544  24133925.1764   24133927.2694
 -20898147.22044 -16284251.51944  21116387.2314   21116387.6224
  -1301234.31844                  24501518.8694
 -21878168.28644 -17047894.20144  21016924.9454   21016925.2714
 -21850104.31044 -17026030.35744  21358877.9334   21358878.4554
    530091.48044    413074.97844  24804334.5084   24804333.9584
 -12577119.729 4  -9800350.591 4  21484523.842    21484524.327
 -17050580.28644 -13286140.81144  21957887.0264   21957888.2484
 95  6  1  3 53  0.0000000  0  8G 9G21G31G23G17G26G28G 1
   -202579.36344   -157852.47544  24126348.6624   24126349.1854
 -20928566.49144 -16307954.83144  21110598.6274   21110599.0344
  -1392115.93144  -1084764.97044  24484224.8304
 -21846185.88144 -17022972.84744  21023010.9144   21023010.8204
 -21801808.42144 -16988397.21044  21368068.3144   21368068.8224
    631409.26944    492023.90144  24823614.5684   24823615.1374
 -12614635.164 4  -9829583.399 4  21477384.845    21477385.280
 -17140211.56244 -13355983.30044  21940830.6974   21940832.2214
 95  6  1  3 53 30.0000000  0  8G 9G21G31G23G17G26G28G 1
   -242004.19144   -188573.10144  24118846.4874   24118846.2494
 -20958734.11644 -16331462.05944  21104857.8964   21104858.1184
  -1482725.34744  -1155369.64144  24466982.5874
 -21813995.12144 -16997889.13544  21029136.5834   21029136.6384
 -21753206.54144 -16950525.62644  21377317.0344   21377317.3944
    732877.76044    571090.30044  24842923.0844   24842923.4944
 -12651567.467 4  -9858361.817 4  21470356.936    21470357.260
 -17229528.39944 -13425580.77744  21923834.2824   21923835.3494
 95  6  1  3 54  0.0000000  0  8G 9G21G31G23G17G26G28G 1
   -281054.01244   -219001.51944  24111416.0474   24111416.0194
 -20988673.52744 -16354791.45944  21099160.6014   21099161.0764
  -1573067.65544  -1225766.24644  24449791.0104   24449789.1804
 -21781620.83744 -16972662.42244  21035297.1324   21035297.2834
 -21704315.10744 -16912428.41844  21386620.7384   21386621.1284
    834480.31844    650261.12344  24862257.5354   24862258.4924
 -12687931.157 4  -9886697.160 4  21463437.191    21463437.595
 -17318541.28844 -13494941.40844  21906895.5564   21906896.5614
 95  6  1  3 54 30.0000000  0  8G 9G21G31G23G17G26G28G 1
   -319742.37644   -249148.27544  24104053.9704   24104055.5444
 -21018384.75644 -16377943.05744  21093506.7324   21093507.0984
  -1663128.31744  -1295943.31244  24432653.1104
 -21749073.28744 -16947300.69844  21041490.8734   21041490.8654
 -21655122.64844 -16874096.64044  21395981.6584   21395982.1014
    936217.00544    729536.48744  24881617.6204   24881617.0224
 -12723716.464 4  -9914581.814 4  21456627.424    21456627.981
 -17407226.54944 -13564046.74344  21890019.1854   21890020.3804
 95  6  1  3 55  0.0000000  0  8G 9G21G31G23G17G26G28G 1
   -358095.42144   -279033.72444  24096755.6644   24096753.5074
 -21047894.22744 -16400937.43444  21087891.0854   21087891.4874
  -1752924.36944  -1365914.27244  24415565.3684
 -21716383.02844 -16921827.76844  21047711.5644   21047711.6084
 -21605645.37844 -16835542.93344  21405396.7944   21405397.2854
   1038061.51544                  24900998.0254
 -12758944.759 4  -9942032.431 4  21449923.670    21449924.224
 -17495587.74444 -13632899.56144  21873204.4884   21873205.7204
 95  6  1  3 55 30.0000000  0  8G 9G21G31G23G17G26G28G 1
   -396074.76844   -308628.03744  24089528.2434   24089527.2774
 -21077179.30044 -16423756.95244  21082318.3234   21082318.7724
  -1842401.86944  -1435636.98844  24398538.0274
 -21683519.52444 -16896219.83744  21053965.2364   21053965.2004
 -21555841.50944 -16796734.73244  21414874.1374   21414874.7534
   1140055.85344                  24920406.4284
 -12793579.753 4  -9969020.733 4  21443332.838    21443333.308
 -17583576.29044 -13701462.00344  21856460.9604   21856462.2454
 95  6  1  3 56  0.0000000  0  8G 9G21G31G23G17G26G28G 1
   -433684.50844   -337934.26444  24082371.3824   24082371.5064
 -21106240.28844 -16446401.87044  21076788.3314   21076788.6454
  -1931553.53544  -1505105.72344  24381573.3404   24381570.6944
 -21650493.54244 -16870485.31044  21060249.9954   21060250.1474
 -21505706.65344 -16757668.61444  21424414.7914   21424415.4844
   1242179.40644                  24939840.4344
 -12827629.073 4  -9995552.676 4  21436853.454    21436854.036
 -17671196.17844 -13769737.18944  21839787.4894   21839788.5924
 95  6  1  3 56 30.0000000  0  8G 9G21G31G23G17G26G28G 1
   -470895.69144   -366929.95244  24075290.6544   24075290.3404
 -21135035.20944 -16468839.45444  21071308.7504   21071309.1514
  -2020345.81344  -1574294.49044  24364676.7134   24364676.2244
 -21617260.38144 -16844589.33844  21066573.9684   21066574.2314
 -21455215.27244 -16718324.68744  21434022.8424   21434023.7134
   1344452.53244   1047642.15144  24959302.3644
 -12861060.711 4 -10021603.308 4  21430491.534    21430492.283
 -17758423.75144 -13837706.66944  21823188.6414   21823189.3164
 95  6  1  3 57  0.0000000  0  8G 9G21G31G23G17G26G28G 1
   -507685.80944   -395597.55744  24068289.1904   24068290.0554
 -21163545.34044 -16491055.12944  21065883.4564   21065883.7584
  -2108785.70844  -1643208.65944  24347846.9024   24347847.3214
 -21583798.62044 -16818515.23644  21072941.5594   21072941.7044
 -21404369.95344 -16678704.96444  21443698.3604   21443698.9804
   1446871.55444                  24978792.1844
 -12893869.209 4 -10047168.375 4  21424248.311    21424248.921
 -17845275.14644 -13905383.02144  21806661.3294   21806662.0694
 95  6  1  3 57 30.0000000  0  8G 9G21G31G23G17G26G28G 1
   -544081.16844   -423957.55344  24061363.4324   24061363.9474
 -21191813.35144 -16513082.13744  21060504.3584   21060504.3464
  -2196920.75444  -1711885.28744  24331075.6474   24331074.4104
 -21550147.80944 -16792293.82444  21079345.1744   21079345.2914
 -21353225.14144 -16638851.87044  21453431.0024   21453431.4444
   1549393.79444   1207336.71144  24998301.5674
 -12926099.128 4 -10072282.598 4  21418115.287    21418115.652
 -17931804.28144 -13972808.26544  21790195.2014   21790196.2644
 95  6  1  3 58  0.0000000  0  8G 9G21G31G23G17G26G28G 1
   -580082.73244   -452010.68744  24054512.6444   24054514.3994
 -21219825.60644 -16534909.85944  21055173.7034   21055173.9934
  -2284740.12544  -1780315.95344  24314363.8514   24314361.0904
 -21516313.09644 -16765929.11444  21085783.6664   21085783.7154
 -21301790.71044 -16598773.10244  21463218.7264   21463219.1394
   1652020.67844                  25017830.7144
 -12957747.664 4 -10096943.792 4  21412092.795    21412093.209
 -18018014.06444 -14039984.66744  21773789.9154   21773790.7214
 95  6  1  3 58 30.0000000  0  8G 9G21G31G23G17G26G28G 1
   -615698.54344   -479763.21644  24047735.1024   24047733.7944
 -21247589.39044 -16556543.96044  21049890.4004   21049890.8344
  -2372247.88744  -1848503.78644  24297711.7084   24297708.9044
 -21482292.45344 -16739419.52444  21092257.4684   21092257.4674
 -21250070.57244 -16558471.70744  21473060.7154   21473061.1684
   1754768.18344                  25037382.7134
 -12988809.760 4 -10121148.024 4  21406181.872    21406182.298
 -18103895.46444 -14106905.18444  21757447.1734   21757447.9574
 95  6  1  3 59  0.0000000  0  8G 9G21G31G23G17G26G28G 1
   -650926.76644   -507213.77444  24041031.1394   24041031.9694
 -21275127.84244 -16578002.48944  21044650.1344   21044650.5074
  -2459459.21144  -1916460.62844  24281115.4784   24281116.2454
 -21448109.46144 -16712783.42844  21098762.3794   21098762.5474
 -21198064.83044 -16517947.76244  21482957.0404   21482957.3544
   1857645.31044   1447532.78944  25056959.7654
 -13019290.689 4 -10144899.399 4  21400381.604    21400381.878
 -18189438.99244 -14173562.42444  21741168.8944   21741169.5164
 95  6  1  3 59 30.0000000  0  8G 9G21G31G23G17G26G28G 1
   -685760.89744   -534357.21444  24034402.1104   24034404.2054
 -21302439.08644 -16599283.97444  21039452.9614   21039452.8944
  -2546343.49944  -1984162.65344  24264581.9774   24264580.4754
 -21413759.37544 -16686017.13044  21105299.0444   21105299.2464
 -21145741.98644 -16477176.71844  21492913.7294   21492914.1334
   1960674.09744                  25076565.2164
 -13049173.885 4 -10168185.003 4  21394695.054    21394695.420
 -18274601.72444 -14239922.93844  21724962.9454   21724963.5364
 95  6  1  4  0  0.0000000  0  8G 9G21G31G23G17G26G28G 1
   -720218.64944   -561207.39144  24027845.1424   24027845.5924
 -21329517.93244 -16620384.36644  21034299.9644   21034300.1394
  -2632899.75144  -2051609.05544  24248111.2714   24248110.5804
 -21379247.41144 -16659124.69244  21111866.4974   21111866.3054
 -21093084.29544 -16436144.75944  21502934.2444   21502934.7314
   2063841.26444                  25096197.3554
 -13078451.141 4 -10190998.452 4  21389123.739    21389124.224
 -18359362.73044 -14305970.42044  21708833.3764   21708834.1324
 95  6  1  4  0 30.0000000  0  8G 9G21G31G23G17G26G28G 1
   -754306.22844   -587769.11344  24021358.8974   24021360.5614
 -21356376.41744 -16641313.04944  21029188.9354   21029189.1764
  -2719145.18444  -2118813.26444  24231699.0834   24231699.5364
 -21344572.52444 -16632105.29944  21118464.8864   21118464.8424
 -21040079.83144 -16394842.59244  21513020.5964   21513020.8404
   2167139.37344                  25115854.4054
 -13107125.624 4 -10213342.202 4  21383667.125    21383667.587
 -18443725.19744 -14371707.35444  21692779.6844   21692780.4834
 95  6  1  4  1  0.0000000  0  8G 9G21G31G23G17G26G28G 1
   -788011.95844   -614033.31144  24014945.0594   24014945.0644
 -21383018.45244 -16662073.07244  21024119.1574   21024119.4164
  -2805083.04644  -2185777.81944  24215345.8394   24215345.3754
 -21309737.96344 -16604961.48244  21125093.6724   21125093.5244
 -20986729.82844 -16353271.16744  21523172.7104   21523173.4664
   2270553.00044                  25135533.3134
 -13135204.620 4 -10235221.937 4  21378323.766    21378324.317
 -18527712.30344 -14437151.80144  21676797.4504   21676798.1754
 95  6  1  4  1 30.0000000  0  8G 9G21G31G23G17G26G28G 1
   -821334.01244   -639998.52744  24008603.6444   24008602.9794
 -21409440.22044 -16682661.45244  21019091.1424   21019091.3494
  -2890696.45344  -2252489.52344  24199054.2874   24199054.5194
 -21274731.01544 -16577683.33544  21131755.2414   21131755.0504
 -20933043.47644 -16311437.65344  21533388.9544   21533389.5714
   2374067.33444                  25155231.5054
 -13162687.171 4 -10256636.910 4  21373093.990    21373094.567
 -18611340.16444 -14502316.31844  21660883.4854   21660884.0794
 95  6  1  4  2  0.0000000  0  8G 9G21G31G23G17G26G28G 1
   -854227.29044   -665629.59244  24002344.7004   24002343.0214
 -21435624.98144 -16703065.15544  21014108.3794   21014108.6194
  -2975960.25344  -2318928.86644  24182829.0424   24182827.5124
 -21239534.20944 -16550257.24744  21138452.9034   21138452.8864
 -20879018.59144 -16269340.34644  21543669.5884   21543670.1684
   2477709.00844                  25174953.6454
 -13189549.905 4 -10277568.910 4  21367982.204    21367982.664
 -18694604.24944 -14567197.37244  21645038.7574   21645039.7544
 95  6  1  4  2 30.0000000  0  8G 9G21G31G23G17G26G28G 1
   -886676.01644   -690914.28744  23996169.8004   23996170.2314
 -21461591.91044 -16723299.10944  21009167.2824   21009167.3864
  -3060869.90844  -2385092.18044  24166671.1834   24166671.6494
 -21204151.25844 -16522686.11144  21145186.0564   21145186.1624
 -20824682.42844 -16227000.48444  21554009.2734   21554010.1634
   2581483.39044                  25194701.5154
 -13215804.229 4 -10298026.827 4  21362986.119    21362986.558
 -18777522.03944 -14631808.58744  21629259.9194   21629261.1414
 95  6  1  4  3  0.0000000  0  8G 9G21G31G23G17G26G28G 1
   -918683.22944   -715854.97744  23990078.7234   23990078.3784
 -21487361.13544 -16743379.01744  21004263.4054   21004263.6024
  -3145428.60744  -2450982.08844  24150580.0874   24150582.0244
 -21168587.47344 -16494974.06944  21151953.6414   21151953.7284
 -20770063.71544 -16184440.45344  21564402.8174   21564403.4584
   2685373.43244                  25214470.7334
 -13241458.544 4 -10318017.205 4  21358104.269    21358104.734
 -18860082.11444 -14696141.06844  21613549.3074   21613550.2404
 95  6  1  4  3 30.0000000  0  8G 9G21G31G23G17G26G28G 1
   -950248.10044   -740450.92244  23984072.3854   23984071.7714
 -21512909.60544 -16763286.89944  20999401.5054   20999401.8284
  -3229609.49044  -2516577.54044  24134560.8674   24134558.1594
 -21132841.84744 -16467120.33144  21158755.7574   21158755.8904
 -20715160.30144 -16141658.58044  21574850.7284   21574851.1894
   2789391.47644                  25234264.8044
 -13266499.108 4 -10337529.340 4  21353339.276    21353339.828
 -18942245.71444 -14760164.60644  21597913.9324   21597914.6974
 95  6  1  4  4  0.0000000  0  8G 9G21G31G23G17G26G28G 1
   -981383.33144   -764712.15744  23978147.5454   23978147.6094
 -21538234.47744 -16783020.55144  20994582.4934   20994582.4494
  -3313420.97044  -2581885.18444  24118612.1014   24118613.4164
 -21096946.49744 -16439149.92544  21165586.4394   21165586.2804
 -20659969.52844 -16098652.79744  21585353.1924   21585353.6134
   2893516.20744                  25254079.2444
 -13290938.860 4 -10356573.309 4  21348688.614    21348689.080
 -19024009.31144 -14823876.45244  21582354.8064   21582355.8034
 95  6  1  4  4 30.0000000  0  8G 9G21G31G23G17G26G28G 1
  -1012124.14844   -788665.98844  23972297.7224   23972298.8734
 -21563336.38844 -16802580.47544  20989805.7474   20989805.6664
  -3396879.44544  -2646917.74344  24102730.6194   24102730.1044
 -21060919.25344 -16411076.74744  21172442.1364   21172442.4114
 -20604494.46744 -16055425.48544  21595909.7864   21595910.5414
   2997709.67444                  25273906.0714
 -13314794.546 4 -10375162.160 4  21344149.083    21344149.438
 -19105378.46544 -14887280.94144  21566870.7944   21566871.5314
 95  6  1  4  5  0.0000000  0  8G 9G21G31G23G17G26G28G 1
  -1042472.58844   -812314.11044  23966522.4524   23966522.0774
 -21588198.58544 -16821953.59944  20985074.3634   20985074.5034
  -3479981.75444  -2711672.77044  24086916.8934   24086920.9404
 -21024761.56544 -16382901.91744  21179322.5614   21179322.9064
 -20548702.52744 -16011951.25444  21606526.4614   21606527.1514
   3101968.48344                  25293746.5814
 -13338055.254 4 -10393287.383 4  21339722.707    21339723.116
 -19186342.70844 -14950369.91744  21551463.8074   21551464.8064
 95  6  1  4  5 30.0000000  0  8G 9G21G31G23G17G26G28G 1
  -1072432.54844   -835659.51144  23960820.9334   23960821.4354
 -21612819.20744 -16841138.49644  20980389.3074   20980389.5734
  -3562738.97344  -2776158.90344  24071168.8124   24071169.1554
 -20988505.45044 -16354650.40144  21186221.9764   21186221.9474
 -20492592.89644 -15968229.47744  21617203.9604   21617204.5144
   3206278.14344                  25313595.5784
 -13360731.255 4 -10410957.001 4  21335407.630    21335408.109
 -19266938.00944 -15013171.41044  21536126.9774   21536128.1434
 95  6  1  4  6  0.0000000  0  8G 9G21G31G23G17G26G28G 1
  -1101997.50844   -858697.12844  23955195.1754   23955194.5364
 -21637216.06144 -16860149.01644  20975746.8414   20975746.9744
  -3645168.23044  -2840389.46144  24055483.1044   24055484.6864
 -20952132.88044 -16326308.13244  21193143.5174   21193143.6444
 -20436145.70444 -15924244.66344  21627945.4934   21627945.9164
   3310637.94444                  25333454.6584
 -13382816.046 4 -10428165.928 4  21331205.005    21331205.302
 -19347166.32144 -15075686.93044  21520859.9694   21520860.7614
 95  6  1  4  6 30.0000000  0  7G 9G21G31G23G17G28G 1
  -1131178.48344   -881435.53144  23949642.1994   23949643.5904
 -21661416.79844 -16879006.72044  20971141.5574   20971141.7294
  -3727293.94344  -2904383.49644  24039854.9514   24039856.2704
 -20915626.81244 -16297861.83844  21200090.3314   21200090.3514
 -20379382.52344 -15880013.62244  21638747.0434   21638747.8664
 -13404317.123 4 -10444920.014 4  21327113.404    21327113.748
 -19427041.60344 -15137927.36744  21505660.2354   21505660.7924
 95  6  1  4  7  0.0000000  0  7G 9G21G31G23G17G28G 1
  -1159955.68844   -903859.29444  23944165.8654   23944164.6454
 -21685421.40544 -16897711.59644  20966573.5654   20966573.9074
  -3809112.57144  -2968138.25844  24024285.2494   24024284.3764
 -20878971.89644 -16269299.56144  21207065.5324   21207065.3484
 -20322299.95544 -15835533.70244  21649609.5804   21649610.6144
 -13425224.802 4 -10461211.714 4  21323134.815    21323135.296
 -19506556.78244 -15199887.20444  21490529.0024   21490529.6804
 95  6  1  4  7 30.0000000  0  7G 9G21G31G23G17G28G 1
  -1188287.96844   -925936.39744  23938774.2274   23938775.6024
 -21709201.53244 -16916241.55844  20962048.4884   20962048.4114
  -3890590.73344  -3031627.69444  24008780.1524   24008781.5774
 -20842129.91544 -16240591.51744  21214076.4134   21214076.2394
 -20264878.79344 -15790789.94444  21660536.4164   21660536.8954
 -13445507.849 4 -10477016.684 4  21319275.081    21319275.554
 -19585675.64744 -15261538.22744  21475473.0974   21475473.7164
 95  6  1  4  8  0.0000000  0  7G 9G21G31G23G17G28G 1
  -1216182.42244   -947672.27644  23933466.6314   23933467.2184
 -21732775.08344 -16934610.54444  20957562.4814   20957562.7574
  -3971728.76944  -3094852.12444  23993340.3404   23993339.7654
 -20805102.89844 -16211739.29244  21221122.3804   21221122.3484
 -20207137.06344 -15745796.40344  21671524.2994   21671525.2494
 -13465176.086 4 -10492342.592 4  21315532.306    21315532.790
 -19664395.28044 -15322878.15844  21460493.1904   21460493.8634
 95  6  1  4  8 30.0000000  0  7G 9G31G21G23G17G28G 1
  -1243618.51244   -969051.02244  23928245.6804   23928245.1834
  -4052488.85544  -3157782.02944  23977972.3394   23977972.3374
 -21756112.74644 -16952795.72844  20953121.5354   20953121.8554
 -20767888.88444 -16182741.35444  21228203.9254   21228204.0574
 -20149077.38244 -15700555.10344  21682572.7494   21682573.4514
 -13484216.276 4 -10507179.107 4  21311909.088    21311909.647
 -19742705.01844 -15383898.69544  21445591.2344   21445592.1204
 95  6  1  4  9  0.0000000  0  7G 9G21G31G23G17G28G 1
  -1270585.93544   -990064.56944  23923113.7214   23923114.8414
 -21779188.54544 -16970776.85844  20948730.3874   20948730.6604
  -4132843.62144  -3220396.14144  23962681.4524   23962679.9174
 -20730503.76344 -16153610.08744  21235318.0284   21235318.0294
 -20090691.74244 -15655059.80544  21693683.2244   21693683.6694
 -13502620.320 4 -10521519.924 4  21308407.006    21308407.497
 -19820598.08044 -15444594.54644  21430768.7004   21430769.3304
 95  6  1  4  9 30.0000000  0  7G 9G21G31G23G17G28G 1
  -1297106.43044  -1010729.84044  23918067.2214   23918066.5104
 -21802030.18744 -16988575.52344  20944383.8324   20944383.8924
  -4212806.48444  -3282704.83844  23947465.1134   23947465.0494
 -20692982.30144 -16124372.58144  21242458.1474   21242458.5324
 -20032005.46344 -15609330.23944  21704850.8064   21704851.4244
 -13520413.602 4 -10535384.818 4  21305021.091    21305021.445
 -19898104.41944 -15504989.05144  21416019.8854   21416020.4054
 95  6  1  4 10  0.0000000  0  7G 9G31G21G23G17G28G 1
  -1323191.30644  -1031055.66244  23913103.5464   23913102.8224
  -4292366.02344  -3344699.27344  23932325.3014   23932325.7724
 -21824637.30544 -17006191.44044  20940081.7294   20940081.6614
 -20655321.10744 -16095026.19244  21249624.7844   21249624.7064
 -19973020.11944 -15563367.63844  21716075.4274   21716075.8564
 -13537590.970 4 -10548769.784 4  21301752.322    21301752.703
 -19975219.87644 -15565078.98344  21401345.3114   21401346.0144
 95  6  1  4 10 30.0000000  0  7G 9G21G31G23G17G28G 1
  -1348835.00244  -1051037.71744  23908223.3724   23908223.8404
 -21847006.31844 -17023621.82144  20935825.0054   20935825.0594
  -4371528.36844  -3406384.20344  23917261.2794   23917260.0874
 -20617515.22444 -16065567.05544  21256819.0674   21256819.0614
 -19913714.35044 -15517155.36044  21727360.9094   21727361.4274
 -13554148.886 4 -10561672.055 4  21298601.456    21298601.932
 -20051936.96544 -15624858.49144  21386746.5704   21386747.0344
 95  6  1  4 11  0.0000000  0  7G 9G21G31G23G17G28G 1
  -1374046.42244  -1070682.94344  23903425.5044   23903426.9474
 -21869172.06444 -17040893.81744  20931606.9914   20931607.2264
  -4450326.43444  -3467785.25944  23902266.3524   23902267.3014
 -20579587.47744 -16036012.96144  21264036.5254   21264036.4214
 -19854094.26844 -15470698.15644  21738706.0424   21738706.4324
 -13570106.332 4 -10574106.430 4  21295564.844    21295565.294
 -20128272.02244 -15684340.31344  21372220.4454   21372220.9214
 95  6  1  4 11 30.0000000  0  7G 9G21G31G23G17G28G 1
  -1398804.57644  -1089974.95144  23898714.5634   23898715.2054
 -21891147.19544 -17058017.27944  20927425.2824   20927425.3004
  -4528752.77144  -3528896.67144  23887342.0784   23887342.5014
 -20541511.26944 -16006343.18444  21271282.2264   21271282.3324
 -19794146.71444 -15423985.77644  21750113.7314   21750114.2824
 -13585445.645 4 -10586059.138 4  21292645.865    21292646.241
 -20204193.24244 -15743499.66544  21357773.0434   21357773.6024
 95  6  1  4 12  0.0000000  0  7G 9G21G31G23G17G28G 1
  -1423107.44844  -1108912.18144  23894089.8124   23894089.9204
 -21912926.33344 -17074988.02044  20923280.7384   20923280.7714
  -4606798.21044  -3589711.25144  23872490.7414   23872490.7504
 -20503279.34044 -15976552.06744  21278557.5684   21278557.6254
 -19733868.41144 -15377015.67344  21761584.5064   21761584.6794
 -13600162.369 4 -10597526.710 4  21289845.390    21289845.762
 -20279680.17544 -15802320.61344  21343408.3554   21343408.8894
 95  6  1  4 12 30.0000000  0  7G 9G21G31G23G17G28G 1
  -1446950.70944  -1127491.29344  23889552.5034   23889550.0444
 -21934512.13444 -17091808.11144  20919173.0894   20919173.1494
  -4684460.76644  -3650227.52244  23857712.2214   23857711.9844
 -20464905.30644 -15946650.21744  21285859.8884   21285859.9154
 -19673261.68944 -15329789.66144  21773117.7374   21773117.9934
 -13614265.106 4 -10608515.858 4  21287161.697    21287162.157
 -20354735.17844 -15860804.99544  21329125.7794   21329126.3044
 95  6  1  4 13  0.0000000  0  7G 9G21G31G23G17G28G 1
  -1470364.56044  -1145735.81344  23885096.7014   23885096.3464
 -21955923.46744 -17108492.24944  20915098.7014   20915098.7734
  -4761744.36944  -3710448.50344  23843005.6344   23843005.9704
 -20426407.27244 -15916651.74444  21293185.7784   21293185.5514
 -19612366.95144 -15282339.22144  21784705.4034   21784706.0584
 -13627770.621 4 -10619039.639 4  21284591.617    21284592.051
 -20429375.20544 -15918966.02044  21314922.1924   21314922.6734
 95  6  1  4 13 30.0000000  0  7G 9G21G31G23G17G28G 1
  -1493368.15544  -1163660.67244  23880719.4724   23880721.1754
 -21977143.30944 -17125027.17544  20911060.6884   20911060.9234
  -4838642.38744  -3770368.99444  23828372.2724   23828372.4184
 -20387784.04244 -15886555.71644  21300535.4904   21300535.5244
 -19551189.94844 -15234668.82944  21796346.8144   21796347.5524
 -13640684.992 4 -10629102.783 4  21282134.090    21282134.559
 -20503601.38244 -15976804.56144  21300797.2024   21300797.7484
 95  6  1  4 14  0.0000000  0  7G 9G21G31G23G17G28G 1
  -1515927.55544  -1181239.36944  23876426.7944   23876427.3214
 -21998117.32944 -17141370.55544  20907069.3474   20907069.5454
  -4915115.21444  -3829958.19544  23813819.7254   23813819.1114
 -20349011.82044 -15856343.58944  21307913.5804   21307913.6804
 -19489688.11944 -15186745.32044  21808050.4214   21808051.0484
 -13652979.322 4 -10638682.784 4  21279794.616    21279795.113
 -20577395.17344 -16034306.18044  21286754.5694   21286755.0934
 95  6  1  4 14 30.0000000  0  7G 9G21G31G23G17G28G 1
  -1538056.25544                  23872215.4964
 -22018856.26744 -17157530.74944  20903122.8344   20903123.0114
  -4991192.26644  -3889238.96744  23799342.4044   23799344.1104
 -20310102.82044 -15826024.88044  21315317.7194   21315317.8614
 -19427878.24144 -15138581.78444  21819812.6094   21819813.0794
 -13664672.065 4 -10647794.017 4  21277569.644    21277570.019
 -20650788.19944 -16091495.51844  21272788.5354   21272789.4404
 95  6  1  4 15  0.0000000  0  7G 9G21G31G23G17G28G 1
  -1559734.46144                  23868090.1904
 -22039347.99144 -17173498.30944  20899223.3964   20899223.2774
  -5066880.49044  -3948216.79644  23784939.3474   23784938.9924
 -20271043.95944 -15795589.39244  21322750.2584   21322750.3144
 -19365762.50244 -15090179.91144  21831632.5284   21831633.1664
 -13675754.694 4 -10656429.823 4  21275460.621    21275460.941
 -20723778.16344 -16148370.77544  21258898.9014   21258899.5284
 95  6  1  4 15 30.0000000  0  7G 9G21G31G23G17G28G 1
  -1580939.86044                  23864055.2274
 -22059580.24244 -17189263.68544  20895373.4484   20895373.5244
  -5142173.79444  -4006886.88044  23770611.5274   23770612.8604
 -20231826.41344 -15765030.26244  21330213.1864   21330213.2424
 -19303324.71544 -15041527.09344  21843514.0054   21843514.5864
 -13686220.122 4 -10664584.714 4  21273469.107    21273469.484
 -20796361.55744 -16204929.23344  21245086.7694   21245087.2754
 95  6  1  4 16  0.0000000  0  7G 9G21G31G23G17G28G 1
  -1601670.92644  -1248052.90144  23860110.0794   23860110.2234
 -22079583.40344 -17204850.54944  20891566.9994   20891566.9694
  -5217080.19044  -4065255.46044  23756357.2534   23756358.3594
 -20192464.05144 -15734358.28744  21337703.4954   21337703.5754
 -19240586.42144 -14992640.10544  21855452.8324   21855453.6244
 -13696077.399 4 -10672265.709 4  21271593.316    21271593.725
 -20868546.05144 -16261176.85544  21231350.6024   21231351.0974
 95  6  1  4 16 30.0000000  0  7G 9G31G21G23G17G28G 1
  -1621914.35144  -1263829.12544  23856258.0824   23856257.9234
  -5291590.20644  -4123315.21044  23742178.4414   23742180.1794
 -22099356.99344 -17220258.52544  20887804.1404   20887804.0834
 -20152936.42844 -15703557.53344  21345225.4394   21345225.3804
 -19177538.42544 -14943511.80444  21867450.4464   21867451.0814
 -13705305.148 4 -10679456.168 4  21269837.335    21269837.776
 -20940298.01644 -16317087.44144  21217696.6514   21217697.1004
 95  6  1  4 17  0.0000000  0  7G 9G31G21G23G17G28G 1
  -1641664.69144  -1279230.41644  23852499.3584   23852499.4794
  -5365676.52144  -4181044.78144  23728080.3834   23728080.6154
 -22118905.08544 -17235490.78944  20884084.3024   20884084.5264
 -20113240.00044 -15672625.24644  21352779.3774   21352779.6054
 -19114167.57144 -14894131.91744  21879509.5384   21879510.2554
 -13713888.708 4 -10686144.660 4  21268203.939    21268204.356
 -21011589.84444 -16372639.48044  21204130.1234   21204130.7624
 95  6  1  4 17 30.0000000  0  7G 9G31G21G23G17G28G 1
  -1660952.13944  -1294252.87244  23848828.8774   23848829.0144
  -5439347.31444  -4238450.57644  23714061.4084   23714061.8084
 -22138249.01144 -17250563.96944  20880403.2454   20880403.2904
 -20073399.51244 -15641580.70444  21360360.7524   21360360.7894
 -19050478.44544 -14844504.03044  21891629.1614   21891629.6194
 -13721841.524 4 -10692341.665 4  21266690.543    21266691.024
 -21082430.10144 -16427839.64744  21190649.6814   21190650.0554
 95  6  1  4 18  0.0000000  0  7G 9G31G21G23G17G28G 1
  -1679779.47944  -1308914.50544  23845245.8574   23845245.3834
  -5512605.02644  -4295534.47944  23700120.7804   23700120.5514
 -22157386.67244 -17265476.42144  20876761.5334   20876761.5294
 -20033415.24944 -15610424.13144  21367969.6114   21367969.5604
 -18986469.41344 -14794626.86044  21903809.7244   21903810.3384
 -13729159.737 4 -10698044.165 4  21265297.953    21265298.467
 -21152810.87844 -16482681.77144  21177256.7224   21177257.1834
 95  6  1  4 18 30.0000000  0  7G 9G31G21G23G17G28G 1
  -1698171.05844                  23841746.4404
  -5585470.52044  -4352312.77644  23686255.0974   23686254.7714
 -22176321.01744 -17280230.44144  20873158.3614   20873158.4104
 -19993306.37244 -15579170.45444  21375602.0114   21375601.8864
 -18922154.84844 -14744511.62344  21916048.3614   21916048.9484
 -13735862.308 4 -10703266.946 4  21264022.501    21264022.979
 -21222759.55844 -16537187.20344  21163945.7864   21163946.3494
 95  6  1  4 19  0.0000000  0  7G 9G31G21G23G17G28G 1
  -1716097.84644                  23838335.0604
  -5657912.42144  -4408760.98544  23672469.7954   23672470.6544
 -22195019.14344 -17294800.39944  20869600.1844   20869600.4054
 -19953050.30644 -15547802.08544  21383262.4354   21383262.7014
 -18857514.59244 -14694142.60144  21928349.0604   21928349.5534
 -13741929.919 4 -10707994.957 4  21262867.854    21262868.336
 -21292268.46544 -16591349.95244  21150718.7004   21150719.1374
 95  6  1  4 19 30.0000000  0  7G 9G31G21G23G17G28G 1
  -1733543.60144                  23835015.1224
  -5729922.90044  -4464873.02544  23658766.7334   23658766.2364
 -22213468.35544 -17309176.40044  20866089.3694   20866089.5644
 -19912640.85344 -15516314.19644  21390952.1204   21390952.0164
 -18792537.75444 -14643511.30244  21940713.7274   21940714.5584
 -13747353.385 4 -10712221.037 4  21261835.803    21261836.304
 -21361328.27244 -16645162.75344  21137577.1164   21137577.4564
 95  6  1  4 20  0.0000000  0  7G 9G31G21G23G17G28G 1
  -1750507.80744  -1364026.75144  23831786.6784
  -5801497.80744  -4520645.68544  23645146.6824   23645144.7154
 -22231686.68044 -17323372.48744  20862622.4804   20862622.6794
 -19872090.63844 -15484716.62044  21398668.6044   21398668.5084
 -18727223.64044 -14592617.18444  21953142.5684   21953143.4814
 -13752144.134 4 -10715954.095 4  21260924.197    21260924.655
 -21429941.77844 -16698627.79044  21124520.1844   21124520.6484
 95  6  1  4 20 30.0000000  0  7G 9G31G21G23G17G28G 1
  -1766972.06744  -1376856.03444  23828653.8234   23828654.2734
  -5872604.87744  -4576053.78744  23631615.4154   23631615.3574
 -22249668.45444 -17337384.24844  20859200.6594   20859201.0394
 -19831396.88444 -15453007.19444  21406412.3564   21406412.4244
 -18661561.12944 -14541451.59444  21965637.6914   21965638.5464
 -13756291.188 4 -10719185.575 4  21260135.063    21260135.431
 -21498082.86644 -16751724.70944  21111553.3284   21111553.8374
 95  6  1  4 21  0.0000000  0  7G 9G31G21G23G17G28G 1
  -1782951.20944  -1389307.27844  23825613.2094   23825615.8044
  -5943252.47344  -4631103.85344  23618171.3194   23618171.7144
 -22267453.40044 -17351242.64144  20855816.2674   20855816.4274
 -19790591.57144 -15421210.84144  21414177.3044   21414177.1834
 -18595565.60644 -14490026.51744  21978196.2474   21978197.3064
 -13759814.065 4 -10721930.677 4  21259464.692    21259464.994
 -21565755.54944 -16804456.63544  21098675.7454   21098676.1974
 95  6  1  4 21 30.0000000  0  7G 9G31G21G23G17G28G 1
  -1798483.37244  -1401410.22944  23822657.3154   23822658.7564
  -6013469.90544  -4685818.71644  23604809.2884   23604811.0164
 -22285067.69444 -17364968.05744  20852464.5124   20852464.3764
 -19749715.85144 -15389359.62544  21421955.7234   21421955.6734
 -18529260.76044 -14438360.41044  21990813.7684   21990814.7344
 -13762746.989 4 -10724216.073 4  21258906.565    21258906.922
 -21632986.04244 -16856843.99544  21085882.3034   21085882.7514
 95  6  1  4 22  0.0000000  0  7G 9G31G21G23G17G28G 1
  -1813547.81944  -1413148.72744  23819791.0384   23819790.8344
  -6083247.24944  -4740190.65744  23591531.0104   23591531.2374
 -22302483.52844 -17378538.82644  20849150.3834   20849150.3434
 -19708749.05744 -15357437.44644  21429751.3804   21429751.4254
 -18462641.88044 -14386449.60144  22003490.8714   22003491.2044
 -13765081.135 4 -10726034.892 4  21258462.451    21258462.757
 -21699771.01244 -16908884.20344  21073173.4764   21073173.7594
 95  6  1  4 22 30.0000000  0  7G 9G31G21G23G17G28G 1
  -1828132.92244  -1424513.69444  23817015.2094   23817014.7864
  -6152590.13444  -4794224.07044  23578335.9424   23578336.1934
 -22319694.06644 -17391949.62244  20845875.3744   20845875.3024
 -19667670.50644 -15325428.17944  21437568.4114   21437568.1074
 -18395724.56444 -14334306.24544  22016224.9014   22016225.3684
 -13766808.598 4 -10727380.968 4  21258133.710    21258134.086
 -21766115.21444 -16960580.95044  21060548.6144   21060548.8924
 95  6  1  4 23  0.0000000  0  7G 9G31G21G23G17G28G 1
  -1842253.43344  -1435516.64744  23814328.3314   23814327.5514
  -6221529.89044  -4847943.34344  23565217.1134   23565216.2164
 -22336708.01144 -17405207.22844  20842637.6604   20842637.6774
 -19626484.68544 -15293335.32744  21445405.8474   21445405.8364
 -18328518.35044 -14281937.76944  22029013.8874   22029014.2414
 -13767944.596 4 -10728266.170 4  21257917.376    21257917.952
 -21832050.05144 -17011958.71144  21048001.5994   21048001.9624
 95  6  1  4 23 30.0000000  0  7G 9G31G21G23G17G28G 1
  -1855899.53444  -1446149.90544  23811731.7344   23811731.4474
  -6290076.29744  -4901356.14644  23552173.2004   23552173.6154
 -22353510.35644 -17418299.95744  20839440.2364   20839440.3224
 -19585176.92844 -15261147.45944  21453266.3954   21453266.4284
 -18261037.81644 -14229355.54644  22041854.9884   22041855.4344
 -13768487.491 4 -10728689.209 4  21257813.976    21257814.744
 -21897579.38044 -17063020.49344  21035531.6534   21035532.1964
 95  6  1  4 24  0.0000000  0  7G 9G31G21G23G17G28G 1
  -1869057.72444  -1456403.00544  23809227.6554   23809226.1884
  -6358221.14544  -4954456.02544  23539205.5384   23539205.7514
 -22370121.16144 -17431243.43144  20836279.2664   20836279.4594
 -19543730.34444 -15228851.41644  21461153.4514   21461153.4374
 -18193297.02844 -14176570.52344  22054745.4674   22054745.7724
 -13768428.470 4 -10728643.211 4  21257825.315    21257825.999
 -21962688.32244 -17113754.70544  21023141.6424   21023142.1454
 95  6  1  4 24 30.0000000  0  7G 9G31G23G21G17G28G 1
  -1881722.92544  -1466271.96744  23806817.2144   23806817.8074
  -6425943.74144  -5007226.88944  23526318.1574   23526319.3614
 -19502138.57244 -15196442.23344  21469068.0454   21469067.8754
 -22386540.03344 -17444037.34844  20833154.9224   20833154.8634
 -18125279.09444 -14123569.54144  22067688.8884   22067689.3264
 -13767752.389 4 -10728116.391 4  21257954.103    21257954.591
 -22027356.72344 -17164145.63644  21010835.6874   21010836.2124
 95  6  1  4 25  0.0000000  0  7G 9G31G23G21G17G28G 1
  -1893883.71544  -1475747.87844  23804503.4964   23804502.0264
  -6493225.78444  -5059654.43444  23513514.5654   23513515.1774
 -19460406.75144 -15163923.92844  21477009.4154   21477009.1664
 -22402740.94644 -17456661.42644  20830071.8024   20830071.7874
 -18056965.02344 -14070337.80744  22080688.6344   22080689.2624
 -13766445.057 4 -10727097.692 4  21258202.859    21258203.348
 -22091555.44144 -17214170.58144  20998619.0944   20998619.5164
 95  6  1  4 25 30.0000000  0  7G 9G31G23G17G28G21G 1
  -1905562.27844  -1484848.03244  23802280.9494   23802281.4414
  -6560073.94644  -5111743.90144  23500793.9434   23500794.3954
 -19418555.14944 -15131312.28444  21484973.5314   21484973.3804
 -17988381.34144 -14016895.98744  22093739.7144   22093740.2474
 -13764525.712 4 -10725602.102 4  21258568.073    21258568.548
 -22418756.51044 -17469141.07644  20827024.1554   20827024.1074
 -22155293.20644 -17263836.34144  20986490.2384   20986490.6384
 95  6  1  4 26  0.0000000  0  7G 9G31G23G17G28G21G 1
  -1916760.89044  -1493574.18944  23800149.8034   23800150.5064
  -6626469.11844  -5163480.38744  23488159.5434   23488160.1124
 -19376581.88544 -15098605.84344  21492960.7974   21492960.5954
 -17919498.32844 -13963220.92244  22106847.6624   22106848.0964
 -13761990.016 4 -10723626.235 4  21259050.624    21259050.983
 -22434591.70244 -17481480.18444  20824010.9704   20824010.9624
 -22218560.01144 -17313135.12044  20974451.0724   20974451.3164
 95  6  1  4 26 30.0000000  0  7G 9G31G23G17G28G21G 1
  -1927454.20944  -1501906.62444  23798114.5974   23798114.7774
  -6692382.28444  -5214841.30344  23475616.6104   23475617.0664
 -19334484.40244 -15065802.60544  21500971.6964   21500971.4664
 -17850267.65544 -13909274.94344  22120021.9934   22120022.4954
 -13758809.120 4 -10721147.610 4  21259655.947    21259656.377
 -22450195.68744 -17493639.12444  20821041.5794   20821041.4104
 -22281328.88444 -17362045.89744  20962506.3814   20962506.5564
 95  6  1  4 27  0.0000000  0  7G 9G31G23G17G28G21G 1
  -1937666.48544  -1509864.22744  23796171.8044   23796172.3204
  -6757841.20944  -5265848.25044  23463159.9164   23463161.4424
 -19292289.32344 -15032923.32344  21509001.1244   21509000.7994
 -17780717.28944 -13855079.86244  22133257.0404   22133257.3254
 -13755010.478 4 -10718187.629 4  21260378.743    21260379.289
 -22465600.72944 -17505643.04244  20818110.0354   20818109.7324
 -22343625.71644 -17410588.85144  20950651.5984   20950651.9914
 95  6  1  4 27 30.0000000  0  7G 9G31G23G17G28G21G 1
  -1947403.23844  -1517451.26444  23794318.8064   23794318.4934
  -6822839.53244  -5316496.28844  23450791.3184   23450790.8074
 -19249983.02244 -14999957.37144  21517051.7614   21517051.6924
 -17710838.14744 -13800628.58944  22146554.4374   22146555.0254
 -13750598.546 4 -10714749.764 4  21261218.307    21261218.800
 -22480817.81044 -17517500.49844  20815214.2894   20815214.2054
 -22405462.20944 -17458773.10244  20938884.6044   20938885.0074
 95  6  1  4 28  0.0000000  0  7G 9G31G23G17G28G21G 1
  -1956667.34344  -1524670.04444  23792555.7954   23792555.3734
  -6887386.39544  -5366792.55344  23438508.5054   23438508.3574
 -19207583.04844 -14966918.42644  21525120.1164   21525120.1174
 -17640628.15744 -13745919.51044  22159914.8524   22159915.1264
 -13745582.390 4 -10710841.075 4  21262172.906    21262173.356
 -22495839.53544 -17529205.72844  20812355.8644   20812355.9114
 -22466863.14544 -17506617.95644  20927200.3544   20927200.6464
 95  6  1  4 28 30.0000000  0  7G 9G31G23G17G28G21G 1
  -1965453.73744  -1531516.56844  23790883.6264   23790884.1974
  -6951488.53544  -5416742.26744  23426310.6074   23426310.8964
 -19165088.00444 -14933805.40044  21533206.6654   21533206.4864
 -17570099.68844 -13690962.26744  22173336.0144   22173336.4874
 -13739960.501 4 -10706460.393 4  21263242.706    21263243.221
 -22510650.34344 -17540746.60544  20809537.3904   20809537.6944
 -22527834.51344 -17554128.08544  20915597.7224   20915597.9534
 95  6  1  4 29  0.0000000  0  7G 9G31G23G17G28G21G 1
  -1973762.74044  -1537991.12044  23789302.1224   23789301.7894
  -7015150.96744  -5466349.36244  23414195.9554   23414195.4834
 -19122467.26044 -14900594.42544  21541317.1184   21541317.1874
 -17499260.44544 -13635762.86944  22186816.2464   22186816.7194
 -13733739.000 4 -10701612.479 4  21264426.541    21264427.074
 -22525257.65244 -17552128.91544  20806757.6634   20806757.5544
 -22588379.96844 -17601306.33044  20904076.4874   20904076.7454
 95  6  1  4 29 30.0000000  0  7G 9G31G23G17G28G21G 1
  -1981582.81644  -1544084.63744  23787814.2614   23787815.2854
  -7078357.72544  -5515601.37744  23402168.0484   23402168.6514
 -19079706.47544 -14867274.33044  21549454.1484   21549454.2764
 -17428090.74344 -13580305.96744  22200359.4404   22200360.1424
 -13726905.839 4 -10696287.942 4  21265726.847    21265727.272
 -22539642.58544 -17563337.94644  20804020.3834   20804020.2744
 -22648485.72344 -17648141.95744  20892638.7024   20892638.9734
 95  6  1  4 30  0.0000000  0  7G 9G31G23G17G28G21G 1
  -1988916.98244  -1549799.53744  23786419.0184   23786419.3894
  -7141108.41544  -5564498.01844  23390226.8954   23390227.5284
 -19036817.25644 -14833854.15544  21557615.6354   21557615.6294
 -17356611.07244 -13524607.52644  22213961.5164   22213961.9904
 -13719462.795 4 -10690488.170 4  21267143.244    21267143.679
 -22553804.25744 -17574373.00844  20801325.4834   20801325.2694
 -22708149.43344 -17694633.13144  20881284.9214   20881285.2974
 95  6  1  4 30 30.0000000  0  7G 9G31G23G17G28G21G 1
  -1995752.23244  -1555125.69944  23785117.6684   23785118.8054
  -7203391.64344  -5613030.38344  23378374.5524   23378374.6294
 -18993775.60644 -14800315.20444  21565806.2324   21565806.3674
 -17284831.55344 -13468675.44744  22227620.6914   22227620.7194
 -13711402.969 4 -10684207.797 4  21268676.985    21268677.505
 -22567742.23544 -17585233.76244  20798673.2084   20798672.9614
 -22767332.77744 -17740749.99444  20870022.7834   20870023.3094
 95  6  1  4 31  0.0000000  0  7G 9G31G23G17G28G21G 1
  -2002087.63444  -1560062.38444  23783912.1494   23783911.6724
  -7265183.49044  -5661179.86844  23366616.1394   23366616.3604
 -18950576.80344 -14766653.79544  21574026.6494   21574026.7704
 -17212748.43744 -13412506.79444  22241337.7494   22241338.6214
 -13702719.240 4 -10677441.263 4  21270329.405    21270329.972
 -22581463.41844 -17595925.58044  20796062.0744   20796062.0934
 -22826022.18544 -17786481.97344  20858854.5704   20858854.6814
 95  6  1  4 31 30.0000000  0  7G 9G31G23G17G28G21G 1
  -2007904.08444  -1564594.64644  23782805.8064   23782805.2684
  -7326458.99944  -5708927.01844  23354956.1834   23354955.7164
 -18907240.05244 -14732884.89944  21582273.4064   21582273.2674
 -17140367.65244 -13356106.18244  22255111.4304   22255111.7374
 -13693398.729 4 -10670178.524 4  21272103.114    21272103.611
 -22594963.39944 -17606445.03544  20793493.0224   20793493.0354
 -22884208.27044 -17831821.75444  20847782.0324   20847782.3304
 95  6  1  4 32  0.0000000  0  7G 9G31G23G17G28G21G 1
  -2013200.17544  -1568721.44544  23781798.1124   23781796.5914
  -7387235.69544  -5756285.47344  23343390.8654   23343391.3934
 -18863785.37144 -14699024.10144  21590542.6474   21590542.3524
 -17067718.76844 -13299496.66644  22268936.0614   22268936.9534
 -13683453.626 4 -10662429.102 4  21273995.700    21273996.161
 -22608251.70344 -17616799.54844  20790964.4834   20790964.6424
 -22941899.40744 -17876775.86444  20836803.8304   20836804.0984
